GFSCGP_sfc_thetae_000.txt.gz
Theta_e
297 292 288 289 291 291 290 288 286 287 292 294 292 292 294 299 299 298 299 300 300 301 304 306 309 310 311 313 313 314 314 314 311 307 308 309 307 309 305 303 302 302 301 300
293 289 293 296 295 294 292 289 288 291 295 294 293 291 293 296 297 298 299 299 300 301 302 304 304 305 307 308 310 308 308 307 307 307 306 309 308 304 302 301 298 299 299 299
290 292 297 296 294 294 292 289 289 290 295 294 293 290 292 297 300 301 301 300 301 301 302 302 301 300 302 302 302 303 303 303 304 307 305 302 301 301 298 298 295 297 298 298
294 297 295 294 293 293 289 294 293 292 290 286 290 283 289 293 296 298 298 299 300 301 301 300 299 298 298 298 299 300 301 301 301 301 301 299 298 296 296 295 294 295 297 297
292 293 294 293 292 295 293 295 293 290 288 287 287 285 286 293 293 296 297 299 299 299 300 301 300 300 299 300 299 299 300 300 300 299 299 298 294 295 295 293 294 294 296 296
294 296 295 293 296 295 297 295 293 291 288 281 286 285 284 289 293 295 297 299 300 300 299 300 302 302 301 299 298 298 299 297 298 297 296 295 295 294 293 294 294 295 294 295
293 293 295 296 293 295 294 290 283 282 279 280 289 286 287 293 295 298 298 298 299 298 298 299 300 300 297 296 296 297 295 295 295 295 295 295 294 293 294 294 293 294 295 294
287 284 292 295 292 290 289 290 283 279 276 281 288 283 288 294 297 299 299 299 298 298 299 298 297 296 296 296 294 294 294 293 294 294 294 294 294 294 295 295 294 294 293 292
287 287 293 294 295 294 290 285 290 284 282 280 283 287 291 294 295 297 297 297 296 295 295 296 296 296 295 296 295 293 293 293 293 293 293 292 292 292 292 292 292 292 292 293
292 286 291 294 296 295 291 293 284 282 277 275 280 283 284 290 293 295 294 294 294 294 295 295 294 294 294 294 295 294 291 289 289 289 290 289 289 289 290 290 289 290 291 292
292 289 288 292 290 288 290 288 287 286 281 276 273 280 289 292 295 293 292 293 293 293 293 293 293 292 291 293 292 291 288 288 288 287 288 288 288 289 289 288 289 289 290 291
292 288 282 287 292 294 290 288 286 278 280 278 275 279 290 290 293 293 293 293 293 293 292 292 292 291 290 289 289 287 287 287 287 287 287 287 288 288 287 287 287 288 288 288
293 286 281 285 289 291 288 290 288 285 282 281 275 279 291 292 291 292 291 292 292 292 292 291 290 289 289 288 287 288 288 286 285 285 285 287 287 287 287 286 286 287 287 287
297 288 285 281 284 286 284 288 288 286 278 280 280 282 288 289 290 291 291 291 291 291 292 290 289 288 287 287 289 288 286 286 286 285 285 286 287 287 287 286 286 287 288 288
292 285 285 286 287 287 286 286 288 286 285 282 284 284 287 290 290 291 292 291 291 291 290 290 288 285 287 288 286 286 286 286 286 285 285 286 287 287 287 287 287 287 287 289
290 282 283 284 287 286 285 286 286 286 286 286 285 286 291 291 292 291 291 291 290 290 291 290 288 287 287 286 285 285 285 285 286 285 285 287 288 288 287 287 287 287 290 286
284 282 280 277 282 281 278 284 286 286 287 287 284 288 291 290 291 291 291 291 290 290 291 290 289 286 285 285 285 284 284 285 285 285 286 287 287 287 286 286 286 286 285 284
282 280 277 275 276 271 284 288 289 288 289 291 289 290 292 292 291 292 292 292 290 290 290 289 287 284 283 284 284 284 284 284 284 285 285 286 286 286 285 285 285 285 285 284
287 280 277 275 274 280 284 290 289 288 287 292 291 290 291 291 291 291 293 292 291 290 289 289 287 283 282 283 283 283 283 283 284 284 284 285 286 285 285 284 284 284 284 281
287 281 279 272 271 270 283 288 293 291 283 293 292 290 290 290 282 291 292 292 291 290 288 286 284 283 282 283 283 283 283 283 283 284 284 285 285 284 284 283 282 282 280 280
280 278 273 270 270 278 285 291 293 283 285 293 293 292 290 288 291 291 291 291 290 288 285 285 284 284 283 284 284 283 283 283 284 285 284 284 284 283 283 282 281 279 279 278
283 278 276 275 270 276 290 291 287 291 290 293 293 292 292 291 290 291 293 288 285 285 285 284 284 284 284 284 283 283 282 284 284 284 283 283 283 283 283 280 278 279 277 276
283 284 281 282 282 289 291 292 293 293 292 293 293 294 295 291 292 294 287 286 284 284 284 284 284 284 284 284 283 282 283 284 283 283 283 283 283 282 282 279 277 277 275 273
288 290 283 286 290 291 292 294 295 296 295 295 295 295 294 293 293 287 284 284 284 284 284 284 283 282 282 283 283 283 283 283 282 283 282 282 281 282 282 280 279 277 273 272
288 291 288 286 291 291 294 295 296 297 297 296 296 296 295 292 287 286 285 285 284 284 284 284 283 282 282 283 283 283 283 282 282 283 283 282 280 281 281 279 279 278 278 276
291 289 285 285 292 291 292 294 296 296 297 296 295 293 289 288 286 286 285 285 285 284 283 283 283 282 283 282 282 282 282 282 281 283 284 282 283 284 281 280 280 283 282 282

GFSCGP_sfc_thetae_003.txt.gz
Theta_e
300 297 294 296 296 294 294 293 293 294 298 299 296 298 300 303 304 305 306 307 308 308 311 315 319 324 324 325 322 321 319 317 317 315 315 316 315 313 308 307 308 308 308 309
298 294 297 299 298 296 295 294 293 296 298 299 299 298 301 302 302 304 306 306 307 308 310 312 318 323 325 324 325 321 319 315 315 316 317 317 315 310 307 306 306 306 307 307
296 297 299 299 297 297 295 294 293 294 298 299 299 296 299 303 304 305 305 306 307 309 309 311 315 319 319 317 317 317 315 314 313 313 312 310 309 309 307 305 305 305 307 307
298 299 298 297 296 297 294 296 297 295 295 291 295 290 296 300 301 303 304 305 306 306 307 308 308 309 311 309 310 311 310 309 307 308 309 308 306 305 305 304 305 306 307 307
296 297 296 296 296 299 296 298 297 294 293 293 293 293 293 299 299 302 303 304 305 305 305 304 304 305 306 307 308 307 307 305 305 306 306 305 304 304 305 305 305 305 306 305
297 300 299 298 298 298 299 298 297 295 294 289 291 291 291 296 300 302 303 304 304 305 305 306 307 307 305 306 306 306 304 302 304 304 303 304 303 302 302 303 303 303 304 305
296 296 298 300 298 299 298 296 290 288 288 287 291 290 294 298 301 304 303 304 305 306 305 305 306 306 305 305 304 302 302 301 302 302 302 302 301 301 300 300 300 300 300 301
291 290 296 299 298 296 295 295 290 282 284 287 291 289 294 297 301 305 306 306 305 305 305 306 305 303 302 301 301 301 301 299 299 299 298 297 296 295 295 295 296 296 297 298
292 291 297 298 299 299 293 292 295 288 285 286 289 292 297 297 298 302 302 303 303 304 304 304 302 302 301 300 300 300 296 295 295 295 295 295 295 295 295 295 296 296 298 299
296 290 295 297 299 298 297 296 290 289 283 281 286 287 291 294 296 300 300 302 303 302 302 301 301 301 302 301 298 296 295 294 294 295 295 294 295 295 296 296 295 296 298 299
295 295 293 296 294 294 294 291 290 290 287 283 281 287 295 296 299 299 302 301 301 301 301 299 299 300 301 298 295 294 293 294 294 294 294 295 295 295 296 295 295 296 297 298
296 294 290 291 296 298 296 292 291 287 283 283 284 287 293 295 296 300 299 298 300 300 298 298 297 296 295 294 294 293 294 294 293 293 293 294 295 295 294 294 294 295 295 295
297 292 288 290 293 295 294 293 290 289 288 284 287 287 294 294 294 297 298 297 297 297 296 295 293 292 292 293 293 294 293 291 292 292 292 293 294 294 294 294 294 294 294 294
299 291 290 287 289 291 290 292 291 291 287 285 288 290 292 294 294 294 295 296 297 296 295 295 292 292 292 293 293 293 292 292 292 291 291 292 293 293 293 293 293 294 294 294
296 291 290 289 290 290 290 290 290 289 290 289 289 288 292 295 296 295 296 295 295 295 294 293 291 291 292 292 293 292 292 292 292 291 291 292 293 294 293 293 293 293 294 294
293 288 288 288 289 289 289 290 290 290 290 289 289 290 296 296 296 295 295 295 294 294 295 294 292 291 291 292 292 291 291 291 291 291 291 292 293 293 293 292 292 293 293 294
290 287 286 283 285 285 284 288 290 290 291 293 289 295 295 294 294 295 295 295 295 296 296 294 292 291 291 292 291 291 290 290 290 290 290 291 292 292 292 291 291 292 292 293
286 285 283 284 281 281 290 292 292 291 291 293 293 294 296 296 296 297 298 297 296 296 296 294 294 292 291 291 291 290 289 289 288 289 290 290 291 291 291 291 290 292 292 291
290 286 281 284 282 284 288 289 291 291 292 295 294 295 294 294 296 297 298 298 299 298 297 296 295 293 290 290 290 289 288 288 288 289 289 290 291 290 290 290 291 291 289 289
289 286 287 281 282 280 288 291 297 296 289 296 297 295 293 296 294 298 299 299 298 298 296 294 292 288 288 288 288 288 288 289 289 289 290 290 290 290 290 290 290 289 288 285
286 283 284 277 284 285 290 294 296 287 290 296 297 296 294 295 300 298 297 296 298 295 289 288 288 288 289 289 289 289 288 288 289 289 290 290 290 290 290 290 289 287 286 285
287 285 282 279 280 282 292 295 292 298 297 297 297 297 297 299 295 296 295 292 291 288 288 288 288 289 289 290 289 288 288 289 289 289 289 289 290 289 288 288 288 285 285 283
287 289 288 287 288 294 295 297 299 298 297 298 298 299 298 296 295 295 291 289 288 288 288 289 289 289 288 288 288 287 289 289 288 288 288 289 289 289 288 287 286 284 283 283
291 291 289 290 293 292 294 297 298 299 299 299 300 301 298 298 296 292 288 287 287 287 288 288 288 286 286 288 287 288 288 288 287 287 287 288 287 287 287 286 285 284 283 283
292 292 290 290 293 295 296 298 300 301 300 300 300 300 299 298 294 289 288 286 285 287 287 287 286 286 286 287 287 288 287 287 286 286 286 286 286 287 287 286 285 284 284 285
293 292 291 291 297 297 297 298 299 300 301 302 300 297 295 294 290 288 286 288 290 289 286 286 286 286 286 286 286 287 286 286 286 285 286 286 286 286 286 286 285 283 284 282

GFSCGP_sfc_thetae_006.txt.gz
Theta_e
305 300 298 301 301 301 300 298 297 300 304 304 303 303 305 310 313 314 315 315 316 317 321 324 327 329 330 332 331 330 328 329 329 326 323 321 320 318 315 315 314 313 313 313
301 298 301 303 302 301 300 298 298 300 303 304 304 303 306 307 309 313 314 316 316 317 320 323 326 328 329 329 329 328 328 328 325 323 322 323 324 318 314 314 313 312 311 311
300 301 304 303 302 300 301 299 299 298 302 304 304 301 304 307 309 310 313 315 317 318 320 322 325 327 329 329 329 328 326 322 320 319 319 317 317 316 316 314 313 312 312 311
302 303 302 302 300 301 298 301 301 300 299 295 302 294 302 306 307 309 311 314 316 319 322 324 325 327 328 329 328 323 319 317 315 315 315 314 312 311 310 311 312 311 312 311
299 301 301 301 300 302 300 304 302 301 300 299 299 296 301 306 304 307 311 314 316 319 320 319 320 321 319 318 318 317 314 313 313 313 314 312 310 310 310 310 309 309 310 310
302 305 304 303 303 303 304 303 302 302 300 293 297 296 297 302 305 308 310 311 313 314 314 314 315 314 313 315 314 314 312 311 311 311 311 310 308 306 304 302 301 301 301 301
301 301 304 305 302 304 304 301 293 290 291 290 297 295 298 304 307 310 310 310 312 312 310 310 310 310 311 312 312 311 310 308 310 309 307 305 302 301 299 299 298 298 298 299
295 293 300 303 302 300 302 300 293 284 288 291 296 292 299 304 308 312 312 311 311 310 311 311 311 312 311 311 310 310 309 307 306 303 301 301 301 300 300 300 299 299 298 300
296 294 302 302 303 303 298 297 301 294 293 292 295 298 303 303 304 309 309 309 309 310 311 312 312 311 310 309 309 309 306 302 301 301 300 301 301 300 300 300 300 299 300 300
301 294 299 300 303 303 301 302 295 297 287 285 292 294 296 300 302 306 307 308 309 310 311 312 310 309 309 309 308 306 304 302 299 299 301 300 300 300 300 300 299 299 299 300
302 300 297 300 299 299 298 297 296 297 294 288 286 291 302 302 305 305 307 309 310 310 311 310 309 309 309 307 304 303 301 300 298 300 300 300 301 300 300 299 298 298 299 299
302 301 296 297 300 302 301 298 297 292 289 292 292 291 301 303 305 307 308 309 311 311 311 310 308 308 307 304 302 301 301 300 300 299 299 299 300 299 298 298 297 298 298 298
303 299 293 294 298 300 298 299 297 296 296 290 291 291 300 302 302 305 307 309 309 309 309 307 306 305 303 301 300 300 301 299 298 297 298 299 299 298 297 297 297 297 297 298
302 300 297 293 294 298 295 297 298 297 292 291 293 294 298 301 302 304 305 308 307 307 305 305 303 302 301 300 300 301 299 299 298 297 297 297 297 297 297 297 297 297 297 297
304 297 296 295 295 295 295 296 296 295 296 292 294 294 297 300 303 305 305 306 305 304 303 302 301 301 300 300 301 300 299 298 298 296 296 296 297 298 297 297 296 296 297 297
300 297 295 293 294 294 293 296 297 297 297 296 296 296 303 304 304 304 303 303 302 302 302 302 302 301 300 299 300 299 298 297 297 296 296 296 296 296 296 296 296 296 296 296
299 296 293 290 291 292 290 294 296 297 299 298 294 299 302 301 302 303 303 303 302 303 303 303 303 302 300 299 300 298 297 297 296 295 295 295 295 295 295 295 295 294 294 295
294 294 292 292 287 286 294 297 297 297 298 300 299 300 301 302 304 304 306 305 303 304 304 304 304 302 298 299 299 299 296 295 294 294 294 294 294 294 294 294 294 294 295 294
298 296 290 291 289 292 293 293 294 295 295 300 299 301 301 301 303 304 305 306 307 306 306 306 306 303 301 298 298 296 294 294 293 293 293 293 293 293 293 293 294 295 294 293
295 295 296 289 290 287 293 295 301 300 292 300 301 301 301 301 299 301 307 307 306 307 307 306 304 301 299 297 295 294 293 294 293 293 292 293 293 293 293 294 294 295 294 292
293 293 291 290 291 292 296 298 301 289 293 302 303 303 303 302 305 306 306 307 307 307 306 304 299 297 296 295 294 292 293 293 292 293 293 293 293 293 294 294 295 294 293 291
293 292 291 288 288 287 297 299 295 301 305 304 304 305 305 306 306 304 303 303 304 304 301 299 296 294 292 294 294 293 292 292 293 293 292 293 293 293 293 293 293 293 291 290
293 297 297 295 296 299 301 304 305 304 304 305 305 306 306 305 305 304 301 300 300 299 296 293 291 292 293 293 292 290 291 292 292 292 292 292 292 292 292 292 292 291 290 289
298 298 297 295 298 300 301 303 304 305 304 306 306 306 306 305 306 304 301 297 296 295 293 292 290 289 288 290 290 291 292 292 291 290 291 291 290 289 291 292 291 290 290 289
300 298 297 297 300 301 302 304 304 305 307 307 307 307 307 306 305 303 298 295 293 290 291 291 290 290 290 290 290 291 291 291 289 290 289 289 290 288 287 289 291 290 290 289
299 299 297 297 301 302 302 304 305 305 306 307 306 306 304 303 302 299 294 292 295 293 288 288 289 288 288 289 289 290 290 289 289 288 289 290 290 289 287 287 288 286 285 284

GFSCGP_sfc_thetae_009.txt.gz
Theta_e
306 302 299 301 302 302 301 298 297 301 303 302 302 303 306 311 312 313 315 318 319 320 325 326 326 328 329 332 332 332 330 330 330 327 324 322 321 320 318 317 317 317 316 315
303 299 303 305 304 301 300 298 299 302 304 305 303 304 307 310 311 314 314 315 317 320 322 324 326 328 330 331 332 331 330 330 327 324 323 324 323 319 317 317 316 316 315 315
301 302 305 303 301 300 300 298 299 299 304 306 304 303 305 309 312 314 316 317 318 320 321 324 326 328 330 330 330 329 329 326 324 323 321 319 319 318 316 315 315 314 314 314
302 306 304 302 300 302 297 304 303 300 300 295 304 292 302 307 308 310 313 316 318 320 323 325 326 326 327 329 330 327 325 322 320 318 318 317 315 313 313 313 313 312 312 311
301 303 302 301 302 304 301 306 304 303 301 300 300 296 296 307 305 308 312 314 318 321 323 324 326 328 328 328 327 324 321 317 317 317 318 315 313 312 312 309 306 305 305 304
303 308 306 305 305 305 307 304 303 303 300 293 298 297 297 303 306 309 313 315 319 322 323 324 325 325 323 323 321 319 316 315 315 315 315 313 309 305 304 302 301 301 301 301
302 303 306 307 303 306 305 301 293 291 292 291 299 297 299 304 309 311 312 315 318 320 319 318 318 316 316 316 316 316 314 312 314 313 309 306 305 303 302 301 300 300 300 300
296 295 303 306 304 301 302 300 293 286 288 291 299 293 299 307 309 312 315 315 317 316 315 314 314 314 314 315 315 314 313 312 310 306 305 304 303 302 302 301 301 300 299 300
296 295 305 305 306 305 301 298 303 296 297 293 295 299 304 306 307 310 313 314 314 313 312 312 313 314 314 314 314 314 313 309 306 305 305 303 303 303 302 301 301 300 300 299
302 295 302 303 306 306 303 305 295 296 287 286 293 294 295 303 304 308 311 312 312 313 312 313 313 314 315 314 314 314 311 306 305 305 303 303 303 303 303 302 300 299 300 300
304 300 299 302 300 299 300 298 299 299 298 290 287 293 303 301 305 307 311 312 313 312 312 313 314 315 314 314 313 310 307 306 304 303 303 302 302 302 302 301 299 299 299 299
304 302 298 299 304 305 304 301 301 294 292 295 294 292 304 305 307 308 310 312 314 313 313 314 314 313 312 312 310 307 306 305 304 303 302 302 302 301 300 299 299 299 298 298
306 300 294 296 300 303 299 301 301 299 298 292 291 293 304 305 305 308 309 311 312 313 314 314 314 311 311 310 308 306 305 304 303 301 301 301 301 301 299 299 299 298 298 297
304 301 298 294 297 301 298 299 300 299 294 294 294 296 300 302 303 305 308 311 312 313 313 313 312 311 311 309 306 305 304 304 301 300 300 300 300 300 299 299 298 297 297 297
306 299 300 301 300 299 298 298 299 297 297 295 296 295 299 301 303 305 307 308 310 311 312 312 310 310 310 308 305 304 305 302 301 300 299 299 300 300 299 298 298 297 297 297
307 300 300 297 300 299 296 299 298 299 299 298 298 297 303 305 306 305 306 307 307 309 310 310 310 309 307 306 304 304 303 301 301 299 299 299 299 298 298 297 297 296 296 296
304 301 296 292 296 296 291 297 298 299 300 299 296 300 305 303 303 304 305 307 307 308 309 309 308 308 307 306 305 303 301 301 299 298 298 297 297 296 296 297 296 295 295 296
301 300 298 293 289 284 296 301 300 299 301 302 301 302 303 303 306 307 308 308 308 308 308 309 309 308 308 307 304 303 301 299 298 297 296 296 296 295 295 295 295 295 296 295
304 301 294 293 291 294 295 297 296 296 296 302 301 302 303 305 306 306 309 309 309 309 310 310 310 310 309 306 304 301 299 298 296 295 295 296 295 294 294 294 294 295 295 295
299 301 297 292 289 286 296 299 303 302 293 302 302 301 301 303 299 302 309 308 309 309 310 310 311 310 308 305 302 300 297 296 296 295 296 294 294 294 293 294 294 295 295 294
295 296 293 293 292 295 300 300 303 291 295 303 304 303 303 302 304 308 310 309 310 310 310 311 310 309 307 304 300 297 298 295 296 294 294 294 294 294 294 294 294 294 294 294
295 295 293 295 289 287 301 301 296 303 306 305 306 306 306 307 307 308 309 308 308 308 309 308 307 303 302 299 298 295 293 296 294 294 293 293 293 293 293 293 293 293 293 292
296 300 299 297 298 303 304 303 306 306 305 305 305 306 307 306 306 307 307 307 305 306 306 303 298 295 295 296 295 293 291 293 293 293 292 292 292 292 292 292 292 292 292 291
302 302 299 298 300 301 303 305 306 306 306 307 308 308 308 307 308 308 308 306 302 303 299 297 295 293 293 293 293 293 293 293 292 291 291 291 290 290 290 291 292 292 291 290
303 302 299 299 302 302 303 305 306 307 308 309 310 309 309 308 307 307 305 300 298 295 293 294 294 293 291 292 291 291 291 292 290 289 290 290 290 291 291 290 290 291 292 290
303 299 299 298 303 304 304 307 309 307 307 308 307 307 305 304 304 303 298 297 295 293 291 290 291 291 291 291 291 291 292 291 289 288 289 290 291 291 291 290 289 289 288 286

GFSCGP_sfc_thetae_012.txt.gz
Theta_e
307 301 298 301 303 302 300 298 297 300 302 300 301 301 304 308 313 313 314 316 317 319 322 323 323 325 329 329 328 329 329 329 329 326 320 320 318 318 316 315 316 315 314 314
302 298 303 304 303 302 300 298 297 300 302 301 300 300 304 307 309 312 313 315 317 318 320 323 324 324 327 328 328 329 328 329 329 325 323 323 318 316 315 315 314 314 314 313
299 301 305 303 301 300 299 298 298 298 300 302 302 299 302 306 309 311 313 315 317 318 320 322 322 325 329 327 328 329 326 328 324 322 320 318 317 316 314 313 313 313 313 311
301 306 303 301 299 300 296 304 301 300 298 292 302 291 299 304 305 309 312 313 315 317 321 322 324 325 328 326 329 327 327 321 321 321 317 316 312 309 311 311 309 307 306 304
300 302 301 300 301 304 299 304 302 301 299 299 298 294 298 302 303 306 311 314 316 319 320 322 324 325 327 326 328 326 321 318 318 318 317 314 311 311 308 304 303 302 302 302
302 307 305 304 305 305 306 302 302 301 299 292 296 295 294 299 302 306 309 313 316 318 321 323 325 325 324 326 325 320 316 315 316 315 313 310 306 303 302 300 299 299 300 300
300 301 306 307 301 304 303 299 291 289 289 290 298 295 298 303 307 307 308 312 316 319 321 322 322 323 323 321 318 316 313 312 314 312 307 306 304 302 301 300 299 298 297 298
295 293 301 305 302 299 300 297 292 283 284 289 298 292 297 307 310 310 313 315 318 319 321 321 321 319 318 316 315 314 312 311 311 307 304 305 304 302 301 301 299 298 297 297
295 294 304 305 305 304 298 296 302 295 296 292 294 297 301 306 306 308 313 314 315 317 317 317 318 315 314 314 314 313 311 311 306 305 305 304 303 302 301 301 300 298 298 297
300 292 302 304 305 305 302 303 295 297 287 285 290 293 295 301 303 306 310 312 314 315 315 314 314 313 314 314 314 314 312 308 305 305 305 303 303 303 302 300 298 297 297 297
303 300 299 302 299 297 299 297 298 297 297 291 288 291 301 301 304 306 309 313 313 314 313 312 312 313 314 314 313 313 311 306 304 304 303 303 302 302 302 299 298 297 297 297
304 301 298 298 304 305 303 301 299 295 292 297 294 292 304 305 305 308 309 312 314 314 313 312 313 313 314 313 312 311 309 305 304 304 303 302 303 302 300 299 297 297 296 297
304 299 294 295 300 303 299 300 301 301 300 294 291 293 304 304 304 306 308 310 313 314 313 313 313 313 312 312 311 310 308 305 304 303 301 301 301 302 299 298 297 297 296 295
308 301 297 293 295 300 298 298 299 298 295 294 293 294 299 302 303 305 307 308 310 312 313 313 312 313 312 311 311 309 307 306 304 302 300 300 300 301 299 298 297 297 296 295
306 297 299 299 300 300 299 298 298 296 297 292 296 295 299 301 303 305 307 308 307 308 311 312 312 313 311 310 310 308 306 305 304 301 299 300 300 300 299 298 298 297 296 295
307 300 301 299 300 300 297 299 299 298 298 298 297 297 303 305 305 304 304 305 306 306 307 311 313 313 311 311 310 307 305 304 302 300 300 300 299 299 297 297 297 297 296 295
305 303 298 293 296 296 290 297 298 299 300 299 294 300 304 303 303 304 305 306 306 307 308 309 311 312 311 311 309 306 304 303 300 299 299 299 298 296 296 296 296 295 294 294
303 301 299 294 290 285 296 302 301 298 300 301 301 302 302 303 304 304 306 306 306 309 308 310 310 311 311 310 308 306 305 301 299 298 297 297 297 296 296 295 294 294 294 293
306 302 296 290 290 293 295 298 297 296 296 301 300 301 302 303 304 304 308 309 309 308 308 309 310 310 310 309 308 305 303 300 298 296 295 296 296 294 294 293 293 293 293 292
301 304 300 293 290 286 297 300 303 302 292 301 302 301 301 302 299 301 308 309 308 308 308 308 310 310 309 309 306 302 299 297 296 297 296 295 294 293 292 292 292 293 292 292
295 297 291 293 291 295 301 302 302 291 295 304 304 304 304 302 304 307 309 309 309 308 309 310 310 308 306 306 303 299 297 295 295 295 295 295 294 292 293 292 292 292 291 291
295 295 292 296 288 286 302 300 296 304 308 305 305 306 306 306 307 307 307 307 308 306 307 308 299 296 296 298 298 296 294 295 294 294 294 293 293 293 292 291 290 291 290 288
297 301 300 297 297 306 304 304 307 308 307 306 306 306 307 306 306 307 307 308 306 304 301 296 295 293 294 294 295 291 293 294 295 294 292 292 292 291 291 288 288 288 289 287
303 304 301 301 300 302 304 305 307 306 307 307 308 308 308 307 307 306 307 303 295 295 295 294 293 293 293 294 294 293 294 293 291 290 290 290 290 289 289 290 289 287 287 286
304 303 299 299 302 303 303 306 307 307 308 309 309 308 304 305 305 305 299 295 293 294 294 294 292 291 291 291 291 292 292 291 290 289 289 289 288 289 289 290 288 286 287 285
304 301 301 299 304 304 304 307 308 306 304 304 303 301 300 300 298 296 295 294 293 292 292 291 291 291 291 291 291 291 292 291 289 288 288 288 288 288 288 288 288 288 287 287

GFSCGP_sfc_thetae_015.txt.gz
Theta_e
301 294 292 296 298 299 298 295 295 296 300 295 295 296 301 304 306 307 309 314 312 310 312 315 320 322 322 323 326 325 323 321 323 318 315 312 310 308 308 309 309 309 309 309
298 293 300 303 302 299 298 295 294 297 297 294 294 295 299 304 305 306 310 312 314 311 313 314 316 321 322 322 325 324 324 322 324 320 314 313 311 308 308 308 308 309 308 307
296 299 305 303 300 297 297 297 294 294 295 295 296 295 299 303 306 309 311 311 314 313 313 315 316 321 321 321 323 324 323 322 322 318 314 310 309 308 307 306 306 306 302 299
299 303 302 300 298 298 294 301 300 298 295 288 294 285 296 301 301 304 308 310 312 313 316 317 316 318 321 323 325 326 324 318 316 313 310 308 305 304 304 302 299 297 298 298
298 301 300 298 299 301 296 301 299 299 294 295 294 290 293 298 298 302 303 306 307 314 316 315 316 320 322 326 325 324 317 314 312 310 309 307 305 301 298 297 296 295 296 297
299 303 302 300 303 302 303 299 298 297 293 286 294 291 292 295 299 303 306 308 310 313 314 317 319 322 323 324 319 315 312 310 309 308 305 301 299 296 295 294 294 294 295 296
298 298 304 305 299 302 301 295 286 284 284 283 296 294 294 300 303 304 306 306 308 312 315 317 318 318 320 315 311 310 309 308 306 301 299 298 296 295 294 294 293 293 293 294
292 289 298 302 298 296 297 294 287 281 281 287 295 290 294 303 306 308 308 306 308 312 314 317 319 320 315 311 310 307 308 306 303 300 299 297 297 296 295 295 294 294 293 293
292 294 302 304 303 301 297 291 296 291 292 287 291 294 300 303 303 305 305 304 308 312 314 319 319 316 312 311 307 305 307 305 302 299 298 297 297 297 296 295 295 294 294 295
299 292 300 302 304 301 298 299 289 290 281 280 285 288 290 297 299 304 303 305 309 311 312 312 312 311 311 309 308 306 305 302 300 299 298 297 297 297 296 295 294 295 295 293
300 297 296 301 298 294 295 292 293 293 288 281 280 285 294 296 298 301 305 309 310 310 309 308 309 310 310 309 308 306 304 300 298 299 298 297 297 298 297 295 295 295 293 295
301 297 288 295 301 301 298 296 295 283 285 285 283 286 298 297 298 300 302 309 310 311 309 307 307 308 308 308 308 307 302 300 299 299 298 297 298 298 297 297 295 295 293 293
300 292 283 289 296 299 295 296 296 297 289 285 279 285 298 299 297 299 298 302 308 309 307 307 306 307 308 308 307 306 302 300 300 299 298 298 299 299 298 297 295 294 293 292
303 297 290 284 290 296 293 296 296 293 283 284 285 290 294 295 297 299 299 299 303 307 308 306 306 306 308 308 307 307 302 301 300 299 298 298 300 299 298 296 295 294 294 293
300 291 293 295 298 298 296 296 296 292 293 286 290 292 295 295 296 297 300 300 301 301 304 306 305 305 308 308 307 306 304 301 300 298 297 298 299 299 297 296 295 294 295 293
301 291 292 290 297 296 293 295 295 295 295 293 293 292 296 298 298 298 299 300 300 301 302 303 307 307 307 307 306 306 303 301 299 297 297 299 298 297 295 295 295 295 294 294
297 290 287 285 291 290 283 290 294 295 296 294 288 293 297 297 298 297 297 299 300 301 302 304 305 307 306 306 307 303 301 300 297 296 298 297 295 295 294 294 295 294 294 293
294 292 286 283 283 275 291 298 296 295 296 295 296 296 297 296 298 301 301 300 300 302 303 303 303 305 306 305 304 301 300 298 296 296 294 294 294 294 294 294 294 292 292 291
302 290 286 281 281 287 291 295 294 292 291 296 295 296 297 299 297 299 303 303 301 301 301 301 302 304 304 303 303 300 297 295 294 293 294 295 294 293 294 292 291 291 291 290
298 293 285 282 279 275 289 296 299 298 285 298 298 297 297 297 286 294 302 303 303 303 302 300 298 297 301 301 299 297 294 293 293 292 293 293 294 293 292 291 291 291 290 290
284 284 281 278 277 284 298 298 299 284 286 298 299 298 298 295 297 300 302 303 303 298 295 294 294 293 294 297 295 292 292 292 294 295 294 294 294 293 292 291 290 289 288 288
286 284 281 284 282 280 299 297 289 295 298 299 298 298 298 299 301 303 303 301 297 293 292 292 291 291 292 293 293 292 292 293 293 293 293 293 293 292 292 289 288 288 287 285
288 293 287 289 287 297 298 297 301 300 298 298 299 301 302 302 302 301 293 293 292 291 291 293 291 291 292 293 293 291 291 292 293 293 293 292 291 291 290 288 286 285 285 282
297 300 291 291 295 297 298 299 301 302 302 304 302 301 302 300 299 292 291 291 291 291 291 291 290 289 289 291 292 292 293 292 291 289 289 289 288 288 288 288 287 285 281 280
296 297 295 293 296 300 302 303 304 302 303 299 297 296 297 294 293 292 291 290 290 290 290 291 290 289 289 290 290 290 290 289 288 287 287 287 285 286 286 287 286 284 284 283
298 295 288 285 300 298 298 300 301 298 297 298 295 294 294 294 292 291 290 290 290 291 290 289 289 288 289 290 289 289 289 288 286 286 285 283 283 283 285 284 284 286 286 286

GFSCGP_sfc_thetae_018.txt.gz
Theta_e
299 293 290 293 295 297 296 294 293 294 298 295 294 298 303 305 307 306 309 310 310 314 316 321 321 321 319 318 323 322 318 319 320 316 312 308 307 306 306 306 307 307 307 306
295 291 297 299 301 299 296 293 292 295 298 294 292 298 301 303 307 308 309 310 311 310 312 318 319 319 319 321 324 321 319 320 319 316 312 310 308 305 305 306 306 306 305 304
293 296 302 301 298 296 294 294 293 293 293 295 295 292 297 303 306 307 309 312 312 311 310 315 317 317 319 321 323 322 320 319 321 315 311 307 306 305 304 303 304 299 298 297
296 300 299 298 297 297 291 298 298 296 292 287 291 284 293 298 300 306 307 308 306 311 312 313 316 317 319 322 324 323 322 320 321 315 311 308 306 304 303 301 297 295 297 297
295 298 297 297 297 299 295 298 297 297 292 289 291 288 292 296 296 301 305 308 308 311 311 311 317 318 319 322 321 322 321 318 317 312 313 308 303 302 298 295 294 294 295 296
296 301 300 300 302 301 301 297 297 294 291 283 291 288 287 293 298 299 301 308 309 311 312 313 318 319 319 321 322 321 315 313 313 309 306 306 300 297 294 293 292 293 294 295
295 296 301 303 296 300 298 293 285 283 281 281 294 290 291 297 300 301 302 303 309 310 312 314 317 318 320 319 314 312 311 309 309 306 302 299 296 295 294 293 292 293 293 292
289 287 297 302 297 293 295 292 284 280 279 284 293 287 293 301 303 304 303 304 307 310 314 316 318 319 319 315 311 310 310 306 304 302 300 298 296 295 294 294 293 293 293 293
289 291 300 301 302 299 294 290 294 288 288 285 288 294 294 301 301 301 302 303 306 309 313 315 316 317 315 310 306 308 307 303 302 301 299 298 296 296 296 294 294 293 293 294
296 290 300 301 302 300 296 296 288 288 282 280 284 286 288 295 298 301 301 301 303 309 312 314 315 312 311 308 306 306 306 302 303 301 299 299 297 297 296 294 293 295 295 294
298 293 293 299 297 295 294 291 291 291 286 281 279 284 292 295 299 299 302 303 304 309 312 314 312 311 309 307 306 306 305 302 301 302 299 297 295 296 295 294 295 294 293 294
299 294 285 294 300 301 297 294 292 283 284 283 281 285 296 296 297 300 302 304 307 311 312 312 311 310 308 307 306 305 304 302 301 298 297 297 298 298 296 294 294 295 294 294
298 291 283 288 293 297 293 294 295 293 286 283 279 284 296 295 296 297 299 304 307 309 307 308 309 309 308 308 307 305 304 301 299 298 299 297 298 297 296 295 295 293 294 293
301 293 288 283 289 293 290 294 294 292 282 284 284 288 294 294 295 296 297 298 304 306 307 304 306 308 309 309 308 307 303 300 300 298 298 297 298 298 297 295 293 292 292 291
298 290 292 293 295 295 294 293 293 291 290 285 289 289 293 295 294 295 297 298 301 304 304 304 303 302 305 305 306 306 300 300 300 299 298 298 299 299 297 293 292 292 292 292
298 290 290 289 293 293 291 293 293 293 293 291 291 290 293 295 295 296 297 298 298 298 300 302 304 303 305 305 304 305 301 301 299 298 297 299 299 296 294 292 292 292 293 294
294 289 285 284 288 288 283 289 292 293 294 294 287 291 294 295 296 295 295 298 298 299 300 301 304 304 303 304 305 304 302 300 298 296 298 298 296 294 294 293 292 293 293 293
291 288 284 281 282 276 291 295 295 293 292 293 293 293 296 297 297 298 298 297 298 298 299 299 299 304 304 304 305 303 300 297 294 295 295 295 294 293 294 293 292 293 292 290
302 289 284 280 280 286 291 293 291 290 289 294 293 294 296 298 297 297 300 300 299 299 298 295 294 295 300 302 301 297 295 293 293 293 294 294 294 292 292 291 292 291 291 290
295 291 286 281 278 276 287 294 297 295 285 296 296 295 295 294 285 293 300 300 296 293 293 292 293 294 294 294 296 293 293 292 291 292 292 293 292 292 292 292 291 291 289 289
283 283 280 276 276 282 292 297 296 282 284 297 297 296 295 293 294 298 296 292 292 292 292 292 292 291 291 293 293 292 292 291 293 293 294 294 294 293 293 292 291 289 287 286
285 282 279 283 278 279 298 295 288 291 296 297 296 297 297 298 296 293 292 291 290 290 291 291 290 290 291 292 291 291 290 293 293 294 294 294 294 293 292 289 288 287 286 284
286 289 285 287 286 295 296 297 299 298 297 296 299 299 301 297 291 291 289 290 291 290 290 291 291 291 290 291 292 291 290 292 294 293 292 292 291 290 289 286 285 284 284 281
294 298 290 290 294 295 296 300 300 301 300 299 299 300 298 292 291 290 290 290 290 290 289 289 289 288 289 291 291 290 291 291 289 288 287 287 286 286 286 286 286 283 280 279
294 296 293 291 295 299 300 299 299 296 296 294 295 294 292 291 290 290 289 289 288 288 289 288 287 287 287 289 288 289 288 288 286 286 286 285 283 284 284 284 284 283 283 282
296 293 288 286 296 295 295 297 297 295 294 294 292 291 292 291 290 290 289 289 289 288 288 287 287 287 287 287 287 287 288 287 285 285 284 282 281 281 282 283 283 286 286 286

GFSCGP_sfc_thetae_021.txt.gz
Theta_e
297 292 289 292 294 295 294 291 290 293 297 296 297 299 304 305 306 305 306 308 313 316 320 322 324 321 322 316 321 320 317 316 318 312 308 307 306 305 305 305 306 306 306 305
294 290 295 297 297 296 296 292 291 294 296 294 292 296 299 304 305 306 307 308 311 315 315 320 319 319 318 317 321 318 318 317 317 313 309 308 306 304 303 304 304 304 304 303
291 294 299 299 296 295 294 292 291 292 292 293 294 292 298 303 304 305 308 310 311 313 312 317 317 317 316 317 321 319 318 319 317 313 308 305 304 304 302 302 301 298 299 297
294 298 298 296 296 296 291 296 295 294 289 286 291 284 292 298 301 302 306 306 308 310 312 317 317 316 316 317 321 322 319 319 317 312 308 307 306 303 302 301 295 294 296 296
294 296 295 295 296 297 294 297 295 294 290 289 289 286 288 296 299 301 303 306 308 308 309 313 316 317 317 318 321 322 319 319 319 313 311 307 305 304 299 295 293 293 295 295
295 299 298 297 300 299 299 295 294 292 290 283 288 287 286 291 298 303 304 306 307 306 309 310 317 317 317 319 320 320 318 318 317 314 312 308 306 301 295 292 292 292 293 293
293 294 298 301 296 298 296 291 284 282 281 281 291 288 290 295 298 300 299 302 306 307 309 308 314 315 316 317 318 319 317 318 317 312 311 308 305 302 297 293 292 292 292 291
288 286 295 300 296 293 293 291 283 279 279 283 291 286 291 298 300 301 301 301 303 306 309 311 314 315 316 318 318 319 312 311 307 309 306 303 301 299 297 295 294 292 292 291
287 289 297 299 301 298 292 288 292 286 285 283 285 291 294 297 298 298 299 302 304 304 309 311 314 316 317 318 316 315 311 308 304 304 302 300 299 298 296 295 295 292 292 293
294 288 296 299 300 300 294 296 286 286 281 280 283 284 286 294 297 299 298 300 303 306 310 312 315 316 318 318 314 309 308 306 304 301 301 301 301 298 296 295 294 294 294 295
296 291 290 298 294 293 292 290 289 289 285 280 278 283 291 294 297 298 298 301 301 306 310 313 315 316 316 313 308 307 303 301 300 301 301 301 297 296 295 294 295 295 295 295
297 291 284 291 297 298 295 293 290 282 283 281 280 283 295 294 295 296 299 301 302 305 310 313 314 311 308 306 305 306 304 302 301 301 299 297 298 296 294 295 296 296 294 295
297 289 282 287 292 295 292 293 293 290 284 283 279 283 294 294 294 295 298 300 302 305 308 310 309 308 308 307 305 306 304 303 301 302 300 297 295 295 295 297 296 294 294 293
299 291 288 285 288 292 288 292 292 290 282 282 282 287 292 294 294 294 295 297 300 304 307 305 306 307 307 307 305 305 304 303 301 300 299 298 296 296 296 295 295 294 294 292
297 290 289 290 292 294 292 292 291 290 289 285 288 288 292 292 293 293 295 296 301 302 304 303 303 304 305 306 306 305 302 300 301 299 298 297 298 297 297 295 294 293 293 292
296 287 289 287 291 291 290 292 292 291 291 290 289 288 292 293 293 294 295 296 296 297 300 301 302 303 303 304 304 303 301 300 300 298 297 298 297 298 296 294 293 293 293 293
292 287 285 283 286 287 282 288 291 291 292 292 287 291 293 293 294 294 295 296 296 297 298 298 300 303 302 302 303 302 300 300 298 297 297 298 298 295 293 293 293 293 293 294
289 286 283 280 282 275 289 294 293 291 290 291 291 293 294 294 294 295 295 296 296 297 296 295 294 296 299 302 301 301 298 296 294 295 294 295 294 292 292 293 292 292 292 291
296 286 282 281 280 285 290 291 291 289 288 292 292 294 295 296 295 295 299 297 295 293 292 292 292 292 293 297 296 294 292 292 292 292 292 293 293 292 293 292 292 292 292 291
292 289 287 280 280 277 288 292 295 294 284 293 293 294 294 292 284 291 296 293 291 291 291 290 291 291 291 291 292 291 291 291 290 291 292 293 294 293 293 292 292 292 291 289
283 282 282 277 277 282 290 295 294 283 285 295 295 295 293 292 292 292 291 290 290 290 290 291 290 290 290 292 292 290 290 290 292 294 294 294 295 294 293 293 292 291 288 286
286 282 279 278 276 279 294 293 287 290 293 296 295 295 295 294 292 290 290 290 290 289 290 290 289 289 290 291 291 290 290 292 294 294 294 295 294 294 293 291 289 287 285 283
285 288 285 287 285 293 295 293 295 296 296 295 296 297 296 291 289 289 289 289 289 289 289 289 289 289 289 290 290 289 290 292 292 292 293 292 292 290 289 286 285 284 283 281
291 295 289 289 292 294 294 297 298 297 297 298 299 299 293 289 289 289 289 289 288 287 286 287 288 287 287 288 289 289 289 290 288 287 286 286 285 285 285 285 285 283 281 280
292 295 291 289 294 296 296 296 294 294 294 293 292 291 290 290 289 289 288 287 287 287 287 287 287 286 286 287 286 286 286 286 285 285 284 284 282 283 283 283 283 283 283 283
294 292 288 286 296 294 295 295 295 293 292 292 291 290 290 290 288 288 287 288 287 286 286 286 285 285 285 285 284 285 286 285 284 283 283 281 281 281 282 282 283 286 286 286

GFSCGP_sfc_thetae_024.txt.gz
Theta_e
296 291 288 290 293 293 292 289 288 292 296 297 296 298 301 305 306 306 307 311 314 316 318 318 319 322 321 319 318 319 317 315 317 313 309 309 308 307 305 306 306 308 306 305
293 289 294 295 295 294 293 290 289 293 294 293 293 295 299 302 305 306 308 310 313 315 315 317 318 318 319 318 319 318 317 316 316 315 308 308 306 304 303 304 304 305 303 302
291 293 297 297 294 293 292 291 290 291 291 292 293 292 298 302 303 305 307 310 312 313 314 317 318 317 318 317 318 319 317 317 316 312 306 304 304 303 302 301 300 299 299 297
293 296 296 294 293 294 291 296 293 292 288 284 289 282 290 298 300 302 305 306 309 310 314 316 318 316 316 317 319 320 318 317 316 310 307 306 305 302 301 300 296 294 296 295
292 294 294 292 294 296 293 296 293 292 289 288 287 285 287 293 297 301 303 305 308 310 311 313 317 318 317 317 318 319 317 317 316 311 309 306 304 302 300 296 292 294 294 295
294 296 296 295 297 297 297 295 293 291 288 282 286 286 286 290 298 303 304 304 307 307 308 312 316 316 316 315 316 318 316 317 316 313 310 307 306 301 298 294 293 292 292 293
291 293 297 298 293 296 294 290 283 282 281 280 290 287 289 294 296 300 302 304 305 308 306 307 312 314 314 314 316 318 317 315 316 314 311 308 306 304 301 296 296 293 292 292
287 285 293 298 294 292 291 290 283 279 278 282 289 284 289 296 297 299 299 300 301 304 307 308 311 315 315 315 317 318 318 317 316 317 313 309 307 305 303 299 296 295 294 293
286 287 295 298 298 295 291 287 290 285 284 282 284 289 292 294 296 298 297 298 298 302 304 307 309 313 315 316 317 318 319 318 314 313 309 306 307 304 300 301 298 295 294 295
292 286 294 296 299 297 293 294 286 285 280 279 282 282 285 291 295 298 298 298 300 303 304 307 309 312 314 316 317 317 318 316 311 309 306 305 303 303 301 298 295 295 296 296
293 289 288 295 292 292 291 289 288 288 284 280 277 282 291 292 294 294 295 299 299 302 305 308 310 312 314 315 315 314 313 309 304 304 304 304 302 301 299 298 296 296 296 296
295 290 283 290 294 296 293 291 289 282 282 281 279 282 292 293 293 293 295 297 299 301 306 309 310 311 312 314 310 308 305 303 306 303 302 302 299 298 296 296 295 295 296 295
295 287 281 285 289 292 290 291 291 288 284 282 278 283 293 293 293 294 294 295 299 301 303 308 309 309 309 306 305 306 305 303 301 301 302 300 300 297 296 295 296 296 295 294
298 289 286 283 285 290 287 290 290 289 281 282 282 286 291 292 292 293 294 293 296 301 304 306 306 306 306 306 306 305 304 302 301 301 300 300 300 298 297 296 294 293 294 293
295 287 287 288 290 291 291 291 290 288 288 285 287 286 291 292 293 292 293 295 300 301 303 303 304 304 305 306 305 305 302 302 301 300 300 299 298 298 296 293 294 294 294 293
294 287 287 286 290 290 288 290 290 289 288 288 288 288 292 291 291 292 293 295 296 297 298 299 301 301 302 304 304 303 301 299 300 299 298 299 297 295 294 293 293 291 292 292
290 287 285 284 285 286 283 287 290 290 290 291 286 291 292 291 292 292 294 295 294 294 294 294 294 296 298 300 301 301 299 298 297 297 296 296 294 293 293 293 292 292 293 294
287 286 283 279 281 275 289 292 292 290 290 290 290 290 292 293 292 294 294 294 294 293 292 291 291 292 294 298 298 297 297 295 294 293 293 293 292 293 293 293 293 293 294 294
293 286 282 281 280 284 288 290 290 289 288 291 290 292 293 294 294 293 293 292 291 290 290 289 289 290 290 291 291 292 291 291 292 291 291 292 293 293 293 293 293 293 293 293
291 288 286 279 278 277 287 293 293 292 284 292 293 293 293 292 284 290 291 290 289 289 289 289 290 290 290 290 291 290 289 289 289 290 291 294 294 294 293 293 293 293 292 291
283 281 281 275 277 283 291 293 293 283 286 293 295 294 293 290 290 290 290 289 289 289 289 289 289 288 289 290 291 289 290 289 292 293 293 295 295 294 294 293 293 291 290 289
288 283 279 278 276 281 293 292 288 291 291 293 294 294 293 290 289 289 289 288 288 288 288 289 288 288 289 290 290 289 289 291 292 292 293 293 294 294 293 291 290 287 284 283
286 289 286 287 287 293 293 292 294 294 294 294 294 295 294 289 288 289 287 287 287 287 287 288 288 288 288 289 290 288 288 290 290 289 288 288 288 287 286 284 283 282 282 279
290 292 288 288 291 292 293 295 295 295 294 295 296 295 293 289 289 287 287 287 286 285 286 287 287 286 285 286 286 286 286 286 285 284 284 284 283 283 283 283 283 282 280 279
290 293 290 288 292 294 295 295 294 293 293 292 291 290 289 289 288 287 286 286 285 285 286 286 285 284 283 284 285 285 284 284 284 283 283 282 281 281 282 282 282 282 282 282
293 291 288 288 294 293 293 294 294 292 291 291 290 289 289 289 287 287 286 286 286 285 285 284 283 283 283 284 283 284 284 283 282 281 281 280 279 279 280 281 280 284 285 285

GFSCGP_sfc_thetae_027.txt.gz
Theta_e
300 298 295 297 297 297 296 294 293 297 299 302 301 303 306 312 313 313 314 316 316 315 319 321 323 324 324 326 326 326 326 328 327 323 322 323 324 322 322 322 321 319 316 314
297 295 298 297 297 297 296 294 294 297 297 300 298 300 305 308 311 313 314 315 317 318 319 321 321 323 324 326 327 327 327 327 326 326 324 324 322 318 319 316 317 317 314 313
295 298 298 297 296 296 296 294 294 294 295 297 298 296 302 306 310 311 312 316 318 319 319 320 321 322 324 325 326 327 327 326 326 325 318 314 315 313 312 312 312 312 312 311
297 299 297 296 296 297 293 298 296 295 293 291 295 288 295 303 305 306 310 312 315 317 320 322 321 322 323 325 327 327 326 325 324 321 319 317 319 315 314 312 311 309 308 306
296 297 297 296 297 298 296 299 297 296 293 293 292 291 294 298 302 305 308 310 313 316 318 320 322 323 324 325 326 327 326 325 324 320 320 319 317 318 313 308 303 303 304 304
297 300 300 299 299 299 300 297 296 294 293 288 291 291 293 296 302 306 310 310 312 314 316 319 323 324 325 325 326 327 325 324 324 320 318 318 315 312 309 306 304 302 302 302
295 297 300 302 297 299 298 296 289 287 286 286 292 291 295 300 300 303 307 310 312 314 316 316 318 321 323 322 324 325 325 323 322 320 318 316 314 311 310 306 302 301 301 301
290 289 297 301 299 297 296 296 289 282 283 286 292 289 294 301 302 303 303 304 308 311 314 315 317 320 322 322 323 324 324 324 322 320 319 315 313 312 312 309 305 301 302 302
290 290 298 301 301 300 294 293 296 289 288 287 289 292 297 298 301 303 304 305 305 305 310 313 315 318 321 321 322 323 323 323 322 322 322 318 316 314 312 309 306 305 302 301
296 290 297 299 302 300 297 298 291 290 284 282 287 288 291 297 298 300 303 305 307 308 307 310 313 315 319 321 322 323 324 324 324 323 323 320 316 313 312 308 304 304 302 300
296 295 293 298 297 295 295 293 292 293 290 286 284 288 297 298 299 301 302 302 306 307 311 311 313 315 318 320 321 322 323 323 323 322 319 317 314 313 310 307 305 302 299 298
298 295 289 293 298 299 298 295 294 290 287 287 287 288 298 300 299 300 301 301 304 308 309 314 315 315 317 318 320 321 322 322 318 314 316 315 313 311 308 306 302 300 298 299
298 292 288 290 293 297 295 295 294 292 290 287 288 290 297 298 299 300 300 301 301 305 308 312 315 316 316 317 316 317 317 316 313 313 311 310 309 307 307 305 302 300 298 297
300 293 291 287 290 294 292 293 293 294 289 290 289 292 297 299 298 301 300 300 301 306 307 310 313 314 314 314 315 315 314 311 309 309 309 308 307 306 305 304 301 298 298 296
300 292 291 292 292 294 294 293 292 292 293 291 293 291 296 299 299 299 298 301 304 305 306 308 310 312 313 313 313 312 312 309 308 307 307 307 306 305 303 299 297 296 296 295
297 292 291 290 292 292 292 294 293 293 292 292 292 292 298 298 297 297 298 301 300 300 301 302 304 305 305 307 310 310 309 308 306 305 305 305 304 301 299 297 296 295 295 294
295 291 290 287 289 291 287 291 293 294 294 296 291 297 297 296 297 297 299 299 297 297 297 297 298 300 303 304 306 307 306 304 304 303 303 302 300 298 296 296 295 293 294 295
292 291 289 286 286 283 294 296 296 295 295 296 295 296 297 297 297 298 299 299 296 295 295 295 296 297 298 299 300 301 302 301 300 299 298 298 298 297 295 295 294 295 296 296
296 291 286 286 286 289 291 293 294 293 294 297 296 296 296 297 298 295 295 296 295 294 294 294 295 295 296 296 297 297 296 297 296 296 296 296 297 296 296 296 295 295 295 295
292 292 293 284 285 283 293 296 297 297 289 297 296 296 296 297 295 297 294 294 293 293 294 294 294 295 295 295 296 295 294 294 294 295 296 297 297 297 296 297 296 297 297 296
289 288 288 283 287 289 295 296 297 289 293 298 298 298 299 296 298 297 293 292 293 293 292 293 294 293 294 295 295 294 294 294 296 297 298 298 298 298 298 296 294 293 292 291
291 289 288 286 286 286 296 294 293 299 297 299 300 300 299 294 292 293 292 291 291 291 292 293 292 292 294 295 295 294 293 296 297 297 295 294 294 293 292 292 292 292 291 290
291 294 292 293 294 300 297 300 300 299 299 298 301 299 296 293 292 292 290 290 291 291 291 292 292 291 291 292 293 291 290 292 291 290 289 289 289 289 289 289 289 289 289 288
293 294 294 295 297 296 298 299 300 299 300 299 302 300 296 293 292 290 290 290 290 290 290 290 289 288 287 288 289 289 289 290 289 288 287 287 287 287 287 287 287 286 286 285
294 295 293 293 295 298 299 300 300 298 299 297 297 297 295 293 291 290 289 289 290 289 289 289 287 287 286 287 286 287 287 287 285 285 284 283 284 283 283 283 283 283 284 284
295 294 292 293 299 300 299 301 298 297 296 296 294 292 293 293 290 290 289 289 289 287 287 287 286 285 284 284 283 283 284 284 283 282 282 281 281 281 281 280 280 281 280 281

GFSCGP_sfc_thetae_030.txt.gz
Theta_e
308 302 299 301 302 302 301 299 297 301 305 305 304 305 310 316 317 316 317 317 317 317 320 323 326 328 328 329 328 328 328 331 333 331 326 325 328 332 333 334 332 329 327 324
302 299 302 303 302 301 301 299 298 301 303 302 303 303 309 315 316 317 318 319 319 319 320 322 324 325 325 327 329 329 330 331 332 330 327 327 329 331 333 332 331 329 326 324
301 301 304 302 301 300 301 299 298 298 300 302 302 300 305 311 316 317 319 320 321 320 320 322 323 324 326 326 327 328 330 331 332 331 328 330 331 329 328 326 327 327 325 323
303 304 301 301 300 301 297 303 300 299 298 294 300 292 300 306 310 314 316 318 320 321 322 323 325 326 326 328 329 330 330 331 332 333 329 327 326 325 327 326 327 325 323 321
299 301 300 300 300 303 299 303 301 301 299 297 296 294 299 304 305 309 314 317 320 322 322 323 325 327 329 330 329 332 332 331 332 332 330 328 328 329 330 325 324 321 319 317
302 305 304 303 304 304 304 302 301 301 300 291 296 295 296 300 303 305 311 315 318 320 322 324 326 328 329 331 331 332 332 331 331 332 331 330 329 329 325 321 317 315 310 311
300 301 304 305 301 303 303 299 292 290 291 289 297 295 297 303 305 307 308 311 317 320 321 323 324 326 328 329 331 331 331 330 331 331 331 331 330 328 323 319 315 312 311 307
294 292 300 305 302 300 301 299 292 285 287 290 296 292 298 305 307 309 310 311 312 316 321 322 324 326 327 330 331 331 330 330 331 331 330 329 328 326 322 319 315 311 309 306
295 294 302 304 305 304 299 296 301 294 295 292 294 297 302 304 304 308 310 310 312 313 315 318 322 325 327 329 331 332 330 329 331 331 330 330 328 325 322 318 315 313 310 308
300 293 300 303 305 304 302 304 295 296 287 285 291 292 295 299 301 304 305 308 311 314 314 315 318 321 324 328 330 332 332 329 330 331 331 330 329 325 320 318 313 309 309 310
302 298 298 302 300 299 299 298 298 298 296 289 287 292 302 301 303 304 306 307 310 313 315 317 317 319 321 325 328 328 329 328 329 331 331 330 328 322 318 316 315 314 314 310
303 299 294 296 302 304 303 300 300 294 292 295 293 292 304 305 306 306 307 306 309 313 314 318 319 320 321 323 325 326 327 328 329 330 330 329 325 321 320 319 317 314 313 304
303 297 292 293 297 301 299 301 301 300 298 293 292 293 304 305 306 307 307 308 308 309 314 317 320 321 322 323 324 324 326 326 327 326 324 324 323 320 317 314 312 308 303 300
303 299 295 290 293 298 296 298 300 299 294 294 294 296 300 303 305 307 308 308 308 311 312 316 319 321 322 323 323 324 324 325 323 322 322 321 319 319 318 315 311 309 307 302
304 295 297 297 298 298 297 297 298 296 297 294 296 297 301 303 306 307 306 306 308 310 313 315 318 320 321 321 321 321 321 319 319 317 317 317 317 316 314 313 312 310 306 302
304 296 298 295 298 297 295 297 298 298 298 297 299 298 305 307 307 305 304 306 307 309 310 311 312 312 312 314 316 316 316 315 315 314 313 312 312 310 309 306 303 300 298 297
300 298 295 291 296 295 290 296 297 298 300 299 296 302 306 304 304 305 306 307 306 305 306 306 308 309 310 311 313 312 312 312 311 310 309 308 307 306 305 303 300 297 295 296
299 298 297 292 291 286 297 302 302 300 301 303 303 304 305 305 305 305 308 306 304 303 303 305 306 306 307 309 309 309 309 308 307 306 305 305 305 303 301 300 298 295 297 297
304 300 294 292 291 295 296 298 299 299 299 305 303 304 304 304 304 301 305 306 304 304 304 304 305 305 305 305 306 305 304 304 303 302 302 302 302 302 301 300 299 300 300 300
299 300 299 291 289 288 298 303 305 304 295 305 305 304 303 303 299 303 302 302 301 302 302 302 303 303 303 303 304 303 302 302 301 301 301 302 302 301 300 301 300 300 299 298
293 295 294 293 293 296 302 303 304 294 298 306 307 306 305 302 305 305 302 301 301 301 300 302 302 301 302 303 303 301 301 299 300 301 301 300 300 299 299 298 296 293 293 292
294 294 293 295 292 290 304 300 299 306 308 307 307 308 306 305 303 301 300 299 298 298 299 300 300 300 301 302 301 299 298 299 300 299 298 297 296 294 295 295 295 295 294 293
293 299 298 299 299 307 305 307 309 309 308 306 308 308 308 302 300 300 299 299 298 298 299 299 298 298 299 300 299 297 297 297 296 294 293 293 293 293 293 293 293 293 293 292
299 301 300 299 304 305 306 308 306 306 307 307 308 308 305 302 301 299 298 298 298 298 298 297 296 294 293 295 295 294 294 294 293 292 291 291 290 290 290 290 289 288 288 286
301 299 301 301 304 301 305 307 308 306 306 305 308 307 305 302 300 299 297 297 297 297 296 296 294 293 292 292 292 292 292 292 290 289 288 288 287 286 286 286 285 284 285 283
301 301 299 300 306 306 308 310 309 306 304 306 306 304 304 303 300 299 297 297 296 295 294 293 292 291 290 289 289 289 289 289 288 286 285 284 285 285 284 284 285 280 280 279

GFSCGP_sfc_thetae_033.txt.gz
Theta_e
309 303 300 302 304 303 303 300 300 303 307 305 305 305 310 316 316 315 315 315 315 316 320 323 325 324 325 325 325 325 325 327 329 328 326 323 321 326 331 334 334 334 332 330
306 300 305 306 304 302 302 300 300 303 305 303 303 304 307 314 315 316 316 316 317 316 318 321 324 325 325 325 326 326 326 328 329 327 327 324 324 326 330 336 334 334 332 329
302 304 306 303 302 301 301 300 299 299 303 304 303 301 304 310 315 317 318 318 318 318 318 319 321 324 326 326 326 327 328 329 330 330 328 324 325 328 328 330 331 332 332 329
303 307 303 302 301 302 297 303 302 300 299 294 303 293 301 305 309 313 316 317 317 318 320 320 321 322 324 326 329 329 329 329 330 331 327 324 323 323 327 329 331 330 331 329
301 303 302 300 301 304 300 305 302 302 300 299 298 294 298 303 303 308 313 317 318 319 319 320 322 323 324 327 327 329 329 329 330 331 330 327 326 327 328 329 330 329 330 328
304 308 305 304 305 305 306 303 302 302 300 293 296 296 295 300 303 306 311 315 318 318 320 321 323 326 326 328 330 331 329 328 330 331 331 332 329 328 327 330 327 327 326 323
301 302 306 306 302 305 304 300 292 290 291 291 299 296 298 303 306 307 307 311 316 319 320 320 321 323 325 328 330 330 329 328 330 331 331 332 331 331 330 328 327 323 321 316
295 293 302 305 303 301 301 300 293 284 287 292 298 292 298 306 309 309 309 311 313 317 320 321 321 322 324 327 330 331 330 329 330 332 332 333 330 330 332 330 327 323 316 310
296 296 304 305 306 305 301 298 302 295 297 293 296 298 303 306 305 307 309 310 312 314 317 320 322 324 325 327 330 334 331 330 331 332 331 333 332 331 332 330 328 320 314 313
300 295 302 303 306 306 303 305 296 297 288 286 292 295 296 300 302 305 305 308 311 314 316 317 320 323 326 328 330 335 333 332 332 333 332 332 333 332 331 329 322 316 315 314
302 300 299 303 300 299 300 299 300 299 297 290 288 293 303 302 304 305 307 308 309 312 316 318 319 321 324 327 329 331 333 333 333 333 334 334 332 330 329 325 320 318 315 313
303 301 295 298 304 305 303 301 301 295 293 297 296 295 305 305 307 307 307 308 311 313 315 319 321 321 321 324 326 329 331 331 333 333 332 331 328 323 322 320 319 318 317 317
304 298 293 295 299 303 300 303 303 301 301 293 293 294 306 306 306 307 308 309 311 311 314 318 321 322 322 324 326 327 329 329 330 331 331 330 325 322 320 319 319 317 315 311
305 299 296 292 295 299 297 299 301 300 297 296 296 297 302 304 305 307 308 310 311 311 312 316 321 323 323 324 325 326 327 329 329 328 327 326 325 321 320 319 316 312 307 303
304 297 298 298 300 299 298 298 299 298 299 295 298 298 302 304 306 307 310 310 309 310 313 316 319 322 324 324 325 326 326 325 325 324 323 322 321 321 318 317 315 312 309 306
305 297 298 296 299 298 296 298 299 299 300 300 300 299 306 307 308 307 308 308 309 311 314 317 320 321 321 322 322 321 320 319 320 318 317 317 317 315 314 313 310 308 307 304
300 299 296 292 297 297 293 297 298 299 301 300 296 301 305 305 306 307 308 309 310 311 313 314 314 314 315 316 316 315 315 316 315 313 313 312 311 309 308 307 304 303 301 300
300 299 298 294 295 287 297 304 303 301 302 303 302 303 305 307 308 309 310 311 310 310 311 311 311 311 312 313 313 313 312 311 310 309 309 309 308 306 305 304 302 300 299 298
304 301 296 293 291 295 297 301 301 300 299 305 304 305 307 308 308 307 310 312 310 309 310 310 311 310 310 310 310 309 308 308 307 306 306 306 306 304 303 302 302 302 301 301
302 304 299 295 290 287 298 304 307 306 296 306 306 306 306 307 301 305 309 310 309 309 308 308 308 309 308 308 309 307 306 305 304 304 304 305 305 304 302 300 300 300 300 299
295 296 294 295 293 296 303 306 308 295 298 307 308 308 307 305 307 310 309 307 308 307 307 307 307 307 307 308 307 305 304 303 304 304 304 303 302 301 300 300 299 298 298 298
294 294 294 296 293 290 306 305 300 305 310 310 310 309 308 309 309 307 306 305 305 305 305 306 305 305 306 306 305 303 302 303 302 302 300 300 299 298 298 298 297 296 295 295
291 300 298 299 299 308 309 308 311 311 311 312 311 310 310 310 307 306 305 304 304 304 305 305 304 303 304 305 304 301 301 301 300 298 296 295 295 295 295 295 294 294 293 292
300 303 300 301 305 306 309 311 312 313 312 313 312 311 311 309 307 305 304 304 304 304 304 304 302 301 300 301 301 300 299 298 297 295 294 293 293 292 292 292 290 289 289 287
300 303 300 301 304 307 309 310 312 311 311 310 310 311 311 309 306 305 304 303 304 303 303 302 300 298 297 298 297 297 296 296 293 292 291 290 290 289 288 287 286 286 284 282
302 300 299 300 305 308 308 311 313 311 310 309 309 309 310 309 306 306 304 304 303 302 301 299 298 297 296 295 294 294 294 293 291 289 288 288 288 287 287 286 285 280 281 280

GFSCGP_sfc_thetae_036.txt.gz
Theta_e
305 300 296 300 303 302 301 300 299 302 306 304 304 305 308 311 313 312 312 312 313 315 319 320 320 321 318 318 317 318 319 320 321 321 320 323 318 321 322 329 331 331 331 329
302 298 303 305 304 302 300 298 298 303 306 304 301 304 308 310 313 312 313 313 312 314 317 318 319 321 320 319 320 322 323 324 323 324 325 325 321 321 323 330 331 330 329 327
300 303 307 304 302 300 299 298 298 299 302 304 301 299 304 310 313 314 314 316 316 313 315 318 319 320 322 321 322 323 325 325 326 326 327 326 323 322 321 328 329 329 330 329
302 306 304 302 300 300 296 302 301 301 299 293 302 291 300 306 307 311 313 314 315 316 316 318 319 321 321 323 324 324 324 324 325 326 323 323 318 316 321 327 329 329 330 328
300 302 301 300 300 302 299 304 302 301 298 298 298 294 298 303 302 307 312 314 316 316 317 316 318 321 324 325 325 325 326 325 327 327 327 324 320 320 322 326 327 327 328 328
302 307 305 303 304 304 305 302 302 301 298 291 297 295 295 299 302 305 311 314 316 316 317 319 320 321 323 325 326 327 326 326 327 327 327 326 322 322 323 324 325 325 325 327
300 301 305 306 300 304 303 299 291 289 289 290 299 295 298 303 305 306 309 309 312 317 317 317 319 319 321 322 324 326 326 325 327 328 328 327 327 325 324 325 326 324 323 320
294 292 300 304 301 299 300 298 292 285 287 291 298 293 297 306 308 309 309 312 312 316 318 318 318 321 322 322 324 325 325 325 326 327 328 329 327 327 327 326 325 324 321 317
294 294 303 304 304 303 300 296 301 295 297 291 292 299 303 305 306 306 307 309 312 312 317 318 320 320 323 325 326 326 326 326 326 327 327 327 330 327 325 326 326 323 318 313
300 294 301 303 305 304 301 303 295 296 287 285 292 294 295 300 302 304 305 308 311 314 316 318 320 321 322 324 327 329 329 327 328 328 329 329 327 327 327 326 326 320 315 313
302 299 298 302 299 297 299 297 299 300 296 289 288 292 303 302 304 305 306 309 310 312 316 317 318 319 323 324 324 328 329 329 329 329 329 329 325 323 322 327 324 317 315 314
302 299 293 296 303 304 302 300 299 293 292 296 296 293 306 306 306 308 308 309 310 313 315 318 319 320 320 322 325 328 329 330 331 330 328 328 328 329 325 322 320 318 316 314
302 296 291 294 298 302 299 300 301 301 300 295 291 293 306 307 306 307 308 308 310 311 313 317 319 320 320 321 323 325 329 330 331 331 328 327 325 322 321 319 317 316 314 312
305 299 294 290 294 299 297 298 300 300 295 295 295 297 301 304 304 306 307 309 309 311 311 314 318 320 322 323 324 326 327 328 328 327 324 324 322 321 319 317 314 307 304 302
304 295 297 298 299 299 298 297 298 297 299 295 297 298 302 305 304 306 309 310 309 310 311 313 318 320 322 323 324 325 326 326 326 324 323 320 320 320 318 315 312 308 305 302
305 295 297 295 299 298 296 298 299 298 298 298 299 299 306 308 307 306 306 308 308 309 311 314 317 321 322 323 323 323 322 322 322 320 318 319 319 317 315 312 310 308 305 304
300 298 295 291 297 295 290 296 298 299 300 300 295 301 306 305 305 306 308 308 308 311 313 316 319 320 321 321 320 317 317 317 315 314 314 313 312 309 308 306 304 302 301 300
297 299 297 292 292 284 296 303 301 299 300 302 302 303 304 305 306 310 310 310 310 312 313 315 315 315 316 316 314 314 314 312 311 310 310 309 308 306 304 302 299 298 297 296
298 297 294 290 290 294 296 300 299 299 298 303 302 304 305 306 307 308 311 313 312 312 313 313 313 312 312 311 311 310 309 308 307 306 306 306 305 303 301 300 299 299 298 298
296 300 296 294 288 285 297 302 305 304 293 305 305 305 305 307 301 305 310 313 311 312 311 310 310 310 309 308 308 306 305 305 304 304 304 305 304 303 301 300 299 299 299 298
287 292 292 291 290 295 302 304 305 293 296 308 308 307 308 307 309 311 311 310 310 310 309 309 308 307 307 308 307 304 304 302 304 304 304 303 301 300 299 299 299 297 296 296
289 289 292 294 289 287 306 303 298 304 311 311 310 311 313 311 310 309 309 308 308 307 307 307 306 306 306 307 305 303 301 303 302 302 301 300 300 299 298 297 297 296 294 292
289 294 294 294 296 306 306 305 310 313 312 312 312 312 312 311 309 308 307 306 306 306 305 307 305 304 305 305 304 301 301 301 301 299 298 297 296 296 295 293 292 291 291 288
298 300 294 294 301 303 308 310 311 312 312 311 313 313 312 310 309 307 306 306 305 305 305 305 304 303 302 303 303 302 301 300 297 295 294 293 292 291 291 290 289 288 284 283
298 299 297 297 299 299 303 307 310 312 313 313 312 312 311 311 308 307 305 305 304 304 304 304 302 301 301 301 299 299 298 297 294 293 291 290 289 288 286 283 283 282 280 280
300 298 296 294 303 304 305 308 311 310 308 311 310 309 311 312 308 307 305 305 304 304 303 302 301 299 298 297 296 296 296 294 291 289 288 286 286 285 286 283 281 282 280 280

GFSCGP_sfc_thetae_039.txt.gz
Theta_e
300 293 290 293 296 298 297 295 293 297 304 303 302 300 300 305 309 310 308 310 313 311 315 314 313 314 312 310 311 313 312 311 313 310 311 311 311 316 318 320 327 327 326 327
297 293 298 301 300 299 299 295 292 297 304 301 301 299 301 304 308 308 308 309 312 312 313 314 314 312 311 309 310 310 311 311 314 313 312 312 317 315 318 318 325 327 327 326
294 297 302 300 299 298 298 294 293 295 299 302 298 298 302 307 308 311 309 309 311 312 312 313 314 312 311 310 310 310 311 317 315 316 315 318 318 314 315 317 322 326 323 320
297 302 301 300 299 299 293 299 298 297 294 289 297 286 300 303 306 309 308 308 308 312 314 314 315 313 312 313 315 316 317 320 319 319 319 319 319 316 315 316 323 323 324 323
296 298 298 298 299 300 296 301 300 298 293 291 293 289 293 303 302 305 307 310 310 312 313 314 314 316 316 315 316 318 320 321 320 320 321 320 318 317 316 319 323 324 324 325
299 304 301 299 303 301 301 300 299 297 293 284 291 291 290 298 302 306 309 311 311 310 313 315 316 317 318 318 318 319 320 321 321 322 322 321 319 314 313 314 322 323 324 324
296 297 301 303 298 300 298 294 286 283 283 282 296 293 293 298 302 304 308 310 311 313 312 314 315 317 317 318 318 319 319 318 320 321 322 322 320 316 316 317 319 321 320 318
290 288 297 302 299 296 296 295 286 280 280 286 295 289 294 303 304 305 311 312 311 311 313 313 315 316 318 319 320 320 320 320 321 321 322 322 322 320 319 319 319 320 322 322
290 291 300 301 302 300 295 291 297 290 293 286 290 296 301 303 302 303 303 306 305 307 310 312 315 316 317 319 320 321 322 322 322 322 322 323 323 322 321 322 323 323 323 316
295 290 298 301 302 301 297 300 291 291 283 281 288 291 293 298 299 301 300 303 305 308 311 313 314 316 317 318 320 321 322 322 323 323 323 324 324 323 323 322 318 319 315 315
297 293 293 299 296 295 295 293 295 296 292 284 281 286 298 300 301 299 299 301 303 306 307 309 312 313 317 319 319 320 321 322 324 323 323 323 324 325 325 323 321 318 314 313
298 295 289 292 300 301 298 296 295 288 288 291 288 288 301 301 301 303 302 302 303 307 309 309 310 311 312 315 320 320 322 323 319 320 324 324 322 322 319 320 317 315 312 313
298 293 286 289 295 298 296 297 298 296 293 289 284 288 300 301 302 302 301 302 304 305 308 310 311 312 312 313 316 321 324 324 322 321 323 323 323 324 320 318 317 314 313 313
302 295 290 286 290 295 293 296 297 295 287 288 288 292 298 302 301 301 301 301 301 303 307 310 311 312 313 315 317 320 321 323 324 324 322 319 318 317 316 315 313 310 309 308
301 292 293 294 296 297 296 296 296 294 295 291 294 295 298 302 303 304 304 305 306 306 305 309 311 312 315 317 318 319 319 320 323 321 319 316 316 316 313 311 308 305 305 303
301 292 293 291 295 296 294 296 297 296 295 297 297 296 303 305 303 303 303 304 303 304 305 307 314 315 317 317 317 317 317 317 318 316 316 317 316 315 313 310 307 304 302 301
295 292 291 286 293 292 286 293 295 296 298 297 292 298 303 302 303 303 303 305 303 304 306 309 315 316 317 317 316 314 313 312 312 312 311 309 308 306 304 305 305 303 300 296
290 289 291 284 289 282 293 299 298 296 297 298 297 298 299 300 302 303 306 304 303 307 309 313 313 312 313 313 312 310 310 309 308 307 306 306 304 302 299 297 295 294 294 293
296 290 286 285 286 291 294 296 296 294 294 299 298 298 299 300 300 300 304 305 306 308 309 308 308 309 308 309 308 308 306 306 305 304 304 303 301 298 297 295 294 293 293 293
294 291 286 286 284 281 292 299 301 300 288 300 301 300 299 299 291 296 303 307 307 308 308 307 307 306 306 304 305 304 302 302 302 302 301 301 300 298 297 295 294 294 294 294
284 284 283 283 282 287 298 301 303 289 289 302 302 302 302 298 299 302 305 305 307 306 306 305 305 303 302 302 302 300 299 299 301 302 300 299 298 297 296 296 294 293 292 292
285 284 285 287 283 282 299 300 294 296 301 304 303 302 302 303 304 305 305 304 304 303 304 303 302 301 301 301 301 298 298 299 299 299 298 297 297 297 296 294 293 294 292 289
285 289 287 291 289 298 300 301 303 305 304 305 302 305 305 304 303 304 303 303 303 303 302 302 301 300 300 300 300 297 297 299 298 297 296 296 296 296 295 292 289 288 287 283
294 298 291 291 294 297 299 303 305 307 307 308 307 307 306 304 303 302 302 301 301 301 300 301 301 299 298 299 299 298 298 298 296 294 291 290 288 287 286 287 285 282 280 280
295 296 294 293 296 299 301 304 306 307 308 308 308 307 305 305 303 303 301 301 300 301 300 301 299 298 296 298 297 297 296 294 291 289 288 286 284 282 281 281 280 278 279 280
295 293 290 289 298 299 300 305 306 304 308 308 308 306 305 305 303 302 300 300 300 299 299 298 297 295 294 294 293 293 293 291 288 286 285 282 281 281 280 279 279 281 281 281

GFSCGP_sfc_thetae_042.txt.gz
Theta_e
298 292 290 292 293 295 294 292 290 294 301 301 299 298 300 306 310 307 305 305 307 311 312 312 311 311 312 311 311 312 313 314 314 314 315 313 311 309 311 312 316 321 321 324
295 291 296 298 297 295 295 292 292 295 300 299 298 298 298 304 307 310 307 307 309 311 311 311 310 309 309 309 311 311 312 312 313 314 314 312 312 310 312 314 317 323 324 324
292 295 300 298 296 294 294 293 293 292 297 296 298 295 298 303 307 309 312 309 312 311 310 310 310 309 308 308 309 311 312 311 312 313 311 308 310 312 312 314 316 320 324 324
294 299 297 296 295 296 292 299 296 294 292 287 294 284 297 300 302 305 308 308 311 311 312 311 310 309 308 308 310 311 312 311 312 312 310 309 310 309 313 316 317 319 323 323
294 296 295 294 296 299 295 300 296 296 292 289 290 286 290 300 300 302 306 307 309 310 311 311 311 310 310 309 308 309 311 311 312 313 311 310 309 312 316 312 314 318 320 322
297 300 298 298 301 300 301 297 296 295 291 284 289 288 287 295 300 303 307 307 309 311 312 313 314 313 310 310 309 309 309 310 315 313 314 313 313 315 317 313 314 317 320 321
295 297 300 300 295 299 296 291 285 283 283 282 293 290 291 296 302 305 307 307 308 312 312 312 313 312 311 310 310 311 312 312 316 317 315 315 317 318 317 315 315 316 318 317
287 285 295 299 296 294 294 292 284 280 279 284 293 287 292 301 302 306 310 310 311 309 312 312 313 314 314 312 312 313 314 315 316 317 317 317 318 319 319 318 315 320 321 321
287 288 297 299 300 298 294 289 295 288 289 284 288 293 297 301 301 301 303 309 310 310 310 312 314 314 315 316 314 314 315 317 318 318 318 318 319 320 320 318 317 319 322 322
293 287 296 298 299 299 296 298 288 288 281 280 286 288 289 296 299 299 298 305 307 308 311 311 313 315 316 317 318 318 317 317 318 319 320 320 320 321 322 319 319 319 315 316
294 292 291 295 293 292 293 291 293 292 289 282 281 285 296 298 300 300 301 302 306 306 307 310 312 315 317 318 318 318 318 319 319 320 321 320 321 321 321 319 319 317 317 316
297 291 287 290 297 299 296 294 294 287 286 287 284 288 299 299 300 301 300 301 302 304 305 309 310 312 314 315 317 319 319 320 321 322 322 321 320 319 320 320 319 318 318 318
298 291 283 287 292 295 292 294 296 294 291 287 283 287 301 299 298 301 298 301 301 305 306 307 307 309 312 313 315 316 319 320 321 321 322 322 322 321 322 322 320 321 320 318
302 295 290 284 288 292 290 294 295 294 285 286 287 291 296 298 298 299 299 300 300 303 306 307 307 309 310 312 315 316 317 320 320 319 319 320 320 322 323 323 319 317 314 312
300 291 292 293 295 294 293 294 294 292 292 288 290 292 297 298 300 301 302 301 303 302 302 307 308 309 311 314 316 318 318 320 321 319 319 318 320 322 319 315 313 311 311 309
297 290 289 287 294 294 291 293 295 295 294 293 293 293 301 303 303 302 302 303 303 302 302 307 309 310 314 316 315 316 317 317 320 321 321 318 317 316 313 310 307 305 305 304
293 289 286 282 290 291 286 291 294 295 296 296 291 296 301 300 301 301 302 303 303 302 302 303 310 312 315 316 315 314 314 315 315 316 316 315 313 311 309 307 305 303 300 299
290 288 287 282 286 280 292 296 297 295 296 296 295 296 299 302 304 302 303 304 303 302 302 307 311 312 314 312 311 311 312 311 309 309 308 308 307 306 305 302 299 295 296 295
295 289 284 282 282 288 291 295 293 292 293 297 296 298 298 299 296 298 303 305 305 302 305 310 313 311 311 310 309 309 307 306 306 305 304 304 302 300 298 295 294 293 293 292
292 292 286 283 279 280 289 297 301 299 287 297 300 299 298 298 289 293 301 303 303 306 308 308 308 309 307 305 306 305 303 303 302 301 299 299 298 296 294 293 292 292 291 292
284 284 283 282 281 286 296 297 301 289 289 300 301 300 299 295 297 299 303 304 306 307 306 306 307 307 304 304 304 302 301 299 300 299 298 297 296 295 294 293 293 292 291 290
284 282 281 284 282 281 299 298 292 296 301 304 304 300 299 300 301 302 303 303 304 303 303 304 303 301 301 302 302 299 298 298 298 298 297 296 295 296 295 293 293 292 291 286
284 288 285 287 286 298 301 300 302 304 303 303 302 304 302 301 301 302 302 303 303 303 302 303 301 299 298 300 301 297 296 297 297 296 295 295 295 295 294 292 290 289 287 284
291 295 291 291 294 296 299 301 303 303 304 305 305 305 305 302 303 301 302 301 301 300 300 300 299 298 296 297 298 297 297 297 296 294 293 290 286 285 285 284 285 283 281 281
291 295 293 292 295 297 299 302 303 302 305 306 305 306 304 303 303 302 301 301 300 299 299 300 298 296 295 296 296 296 295 294 290 288 285 283 282 282 279 278 279 280 280 281
294 292 289 288 295 294 296 301 303 302 304 305 304 305 306 306 304 302 300 299 299 298 298 296 295 294 293 293 292 292 291 289 286 284 282 280 280 280 279 278 278 282 282 282

GFSCGP_sfc_thetae_045.txt.gz
Theta_e
296 291 288 290 292 292 292 289 288 291 295 297 297 297 298 304 308 305 305 304 307 309 310 311 313 313 313 313 314 314 315 315 316 315 315 314 312 312 312 313 316 316 318 320
293 290 294 295 295 293 292 289 289 293 296 296 295 295 298 303 308 308 305 305 304 309 308 309 309 310 309 311 312 313 314 315 315 316 315 315 311 311 311 312 312 317 319 319
291 294 298 296 293 292 292 290 290 291 294 295 295 292 296 300 305 309 310 308 307 308 309 309 309 308 307 307 309 311 313 314 315 315 311 309 311 311 309 309 310 313 318 320
293 298 296 294 293 293 288 295 295 293 290 286 294 284 290 298 300 305 307 308 307 309 311 310 309 308 306 307 309 311 312 313 313 311 309 309 309 308 309 308 310 312 317 320
293 293 293 293 294 296 292 297 295 294 289 288 288 285 288 298 297 301 304 307 308 310 311 310 309 310 308 308 308 310 311 311 312 311 310 308 307 309 309 310 311 312 315 319
296 298 296 295 297 297 299 295 294 292 289 283 288 286 285 292 297 300 304 306 307 310 311 313 312 311 309 308 308 309 310 311 311 311 310 309 308 307 309 311 312 313 313 316
293 295 297 299 294 297 294 289 282 281 281 282 290 288 289 294 299 302 303 305 307 310 310 311 310 310 309 307 307 308 309 309 311 311 311 310 309 308 309 312 313 313 313 313
286 284 294 298 296 292 292 290 283 279 279 282 291 286 290 298 300 301 305 306 307 308 310 311 312 311 310 309 307 308 308 308 310 311 311 312 312 311 311 312 314 314 314 316
285 286 295 297 298 297 292 288 293 286 286 282 286 290 295 299 299 299 301 305 305 307 310 311 312 313 312 310 309 307 308 308 309 309 313 312 313 312 313 314 315 315 316 318
291 285 294 296 297 296 294 295 286 286 280 279 284 286 287 292 296 298 298 300 304 308 309 311 312 313 314 313 311 311 309 309 310 310 312 314 314 315 315 316 316 315 315 316
292 289 289 294 291 290 291 289 290 290 286 282 280 283 294 295 297 298 298 300 304 305 308 310 312 314 315 315 313 311 311 311 311 313 314 315 316 316 317 318 319 316 315 316
297 289 284 289 295 296 293 291 291 286 284 285 282 287 297 297 298 299 299 301 299 304 306 310 310 313 314 314 315 314 313 313 314 316 317 317 318 319 319 319 319 318 318 318
298 291 283 285 290 292 290 291 292 292 289 286 283 286 299 298 298 299 298 298 299 300 303 305 307 309 312 314 315 316 317 316 317 317 317 318 319 319 319 320 320 319 320 319
300 293 290 285 287 291 289 292 293 292 285 284 287 289 294 297 297 298 298 298 298 300 303 303 305 308 311 313 314 315 317 318 318 318 318 318 319 320 320 320 320 320 320 319
297 287 290 290 291 292 291 292 293 290 291 287 289 290 294 297 298 299 301 299 300 299 301 303 304 305 307 309 312 313 315 317 318 318 318 319 320 321 320 320 320 320 319 318
297 287 289 285 292 290 288 291 292 293 292 290 291 290 297 300 299 299 300 300 300 300 301 303 305 306 308 311 313 314 313 313 317 317 318 319 316 317 317 316 313 311 309 308
291 288 286 281 286 288 282 288 291 293 294 294 290 294 298 298 299 299 301 301 301 301 301 301 304 308 310 314 315 314 313 315 316 316 316 316 315 315 312 310 308 306 304 302
288 286 285 281 283 276 287 293 293 293 295 296 296 297 299 299 300 301 303 303 302 302 301 301 302 307 311 312 311 311 313 314 316 316 315 314 312 308 306 305 303 300 300 299
292 286 282 278 279 284 286 291 292 289 290 297 296 297 298 299 297 295 300 302 303 304 304 304 303 308 311 311 310 310 308 310 311 309 309 308 307 305 303 300 298 296 296 295
292 290 281 283 276 274 285 293 298 298 288 297 300 296 297 298 291 294 299 301 301 302 301 305 307 309 310 308 309 307 305 305 306 306 304 305 304 302 299 295 294 291 292 291
285 285 283 283 281 282 292 296 300 286 287 299 302 300 299 293 298 300 299 299 301 302 305 307 308 308 308 307 307 304 303 302 301 300 299 299 299 297 294 292 292 290 290 289
283 282 281 284 281 279 296 298 291 295 299 301 303 301 299 300 299 300 300 301 303 303 304 306 305 302 304 305 304 301 298 298 298 297 295 295 295 294 293 291 291 290 289 286
281 285 282 285 284 294 300 299 301 301 301 302 302 303 302 300 299 300 300 301 302 302 302 303 301 298 299 300 302 297 296 297 296 295 294 293 293 292 292 290 289 287 286 285
288 291 287 288 292 294 297 300 301 303 303 304 304 303 303 301 300 299 299 299 299 299 299 299 299 297 296 297 297 297 297 296 295 293 290 289 286 284 285 285 286 284 284 284
287 291 289 289 293 296 298 299 301 303 304 303 305 303 304 303 301 299 299 299 299 298 298 298 297 295 294 295 295 295 295 294 289 286 285 283 281 281 281 281 282 281 281 283
291 289 286 285 294 294 296 299 301 301 301 304 303 303 303 304 304 301 299 299 298 297 297 294 294 293 292 292 290 290 291 289 285 283 282 280 280 279 279 278 279 282 282 282

GFSCGP_sfc_thetae_048.txt.gz
Theta_e
296 291 288 289 291 290 289 287 286 288 292 292 291 292 296 305 308 306 306 305 306 307 310 313 313 314 314 314 315 316 316 318 318 317 315 315 315 312 311 313 317 320 320 320
291 290 293 295 293 292 290 287 287 291 294 292 290 293 295 301 305 308 307 305 305 307 309 311 311 312 312 313 314 314 315 316 317 318 318 315 316 312 311 312 315 318 319 320
291 292 296 294 292 290 289 287 288 289 291 292 292 291 294 299 302 308 308 307 306 306 306 309 310 309 311 311 313 313 315 315 317 318 316 311 312 311 310 310 312 314 317 318
293 297 294 292 291 292 287 293 292 291 288 284 291 283 290 293 298 302 306 307 306 305 309 309 309 309 309 310 312 313 314 315 315 316 314 313 313 313 313 310 310 312 315 315
291 293 293 291 292 294 291 294 292 292 288 285 287 284 288 296 295 298 301 306 308 307 308 309 308 309 309 309 309 309 312 314 315 313 313 311 310 312 310 307 308 309 311 314
294 297 295 295 296 296 297 293 292 290 287 281 287 285 285 289 295 297 301 303 306 308 308 310 311 310 307 307 307 308 309 310 312 311 310 310 310 309 308 307 308 309 310 311
291 294 297 297 293 294 293 288 282 280 280 280 288 284 288 293 295 299 299 301 304 308 308 309 308 308 307 305 306 307 309 309 311 310 310 309 310 309 309 309 309 309 309 310
285 282 293 297 295 292 290 289 282 279 278 281 288 284 290 297 298 299 301 302 303 304 308 310 309 309 308 307 307 307 308 309 310 310 310 310 309 309 309 308 309 309 310 310
285 286 294 296 297 297 291 286 292 285 284 281 284 288 294 297 297 298 299 300 301 303 307 309 311 310 309 308 307 307 308 308 309 310 310 310 310 309 309 309 308 310 311 313
290 285 293 295 296 295 293 294 286 284 280 279 282 284 286 291 295 297 296 298 301 303 306 309 310 311 311 310 309 308 309 308 309 310 310 310 310 310 310 309 310 312 313 313
291 288 288 293 290 289 289 288 288 288 284 280 278 282 292 294 295 296 298 298 298 303 304 308 310 312 313 312 310 308 308 309 308 309 310 310 311 311 311 312 314 315 315 315
295 288 282 287 293 294 291 289 290 283 283 284 280 284 295 296 296 297 298 300 300 302 305 307 310 311 311 313 312 310 309 308 309 309 309 311 312 314 313 313 315 315 314 316
296 290 282 284 289 293 290 290 292 289 286 282 279 283 297 296 296 298 297 299 299 298 301 305 306 310 311 312 313 312 311 310 310 310 310 311 312 313 314 314 315 315 315 317
299 292 287 283 287 290 287 289 291 290 282 282 285 286 292 295 296 297 298 298 299 298 299 301 304 307 310 312 313 314 313 313 312 311 312 311 312 313 314 315 315 316 317 317
295 286 289 292 292 291 290 288 289 287 288 284 287 288 291 294 296 298 299 299 298 299 298 301 301 304 307 309 311 313 314 315 315 313 312 313 314 315 315 316 316 318 318 318
294 284 288 285 291 290 287 289 289 290 290 289 290 289 294 298 297 296 298 299 299 299 300 300 303 303 304 307 309 312 313 314 315 315 314 315 315 316 316 316 317 318 318 318
289 287 284 280 286 286 281 285 289 289 290 290 286 291 296 296 297 297 298 299 299 300 300 300 301 305 305 306 308 309 311 310 314 315 315 315 316 315 316 318 318 317 315 311
287 285 283 280 282 276 284 291 291 289 291 293 292 293 296 298 299 299 300 300 300 301 301 300 300 301 305 307 309 309 311 311 311 312 312 313 314 315 315 312 310 305 305 306
291 284 279 276 278 282 285 287 288 289 287 293 291 295 299 299 296 296 298 300 301 302 302 303 304 302 304 309 309 311 312 311 311 312 313 314 313 308 307 305 303 301 301 300
289 287 284 282 275 271 282 291 297 295 283 295 297 297 298 299 289 295 299 299 299 300 300 300 300 304 307 308 310 309 311 314 311 310 309 308 307 305 303 299 297 296 295 293
284 285 283 282 280 281 289 293 297 282 283 296 296 296 297 295 297 300 303 302 300 300 299 304 306 306 306 307 309 306 308 308 305 304 304 303 302 299 296 294 294 293 290 288
282 279 281 283 280 276 292 295 288 292 297 296 297 299 298 300 301 302 300 299 299 300 301 302 304 302 303 306 306 302 299 299 300 299 298 296 296 295 294 293 292 290 287 285
281 284 281 283 283 290 296 297 300 299 296 298 298 300 300 300 300 301 299 299 299 299 300 301 299 298 299 301 301 296 295 297 298 297 294 293 292 292 292 290 289 287 286 284
286 289 285 286 289 291 293 295 297 300 300 302 301 301 302 301 301 301 298 298 297 297 297 298 298 296 296 298 297 297 298 296 295 291 289 288 287 286 286 286 287 286 285 283
286 288 287 287 290 292 294 296 298 299 301 302 302 302 301 302 302 301 299 297 296 295 296 296 294 294 293 295 295 296 295 292 288 286 285 284 283 283 281 281 282 283 284 285
288 287 284 282 290 291 292 296 294 296 296 298 301 301 302 299 298 300 296 296 296 294 293 291 290 289 289 289 289 289 290 288 286 283 283 282 282 281 281 281 280 283 283 283

GFSCGP_sfc_thetae_051.txt.gz
Theta_e
300 295 291 294 297 295 294 291 291 293 297 296 296 297 300 304 311 312 313 313 313 312 315 315 316 318 317 319 318 319 319 319 319 318 318 317 316 318 320 324 325 324 323 323
295 292 297 297 296 295 294 292 292 294 296 296 297 297 301 303 309 311 313 313 313 313 313 313 313 316 316 317 318 317 318 318 319 318 319 319 318 316 319 320 323 325 324 323
294 295 298 296 294 292 293 292 292 292 294 297 297 296 298 302 305 309 313 315 315 313 312 312 312 313 315 315 317 317 317 318 319 320 317 315 314 314 314 316 318 321 324 323
295 298 295 294 293 294 290 295 294 293 292 288 297 288 296 299 300 304 308 312 314 313 314 313 313 313 315 316 318 318 319 318 318 319 316 314 315 314 314 315 315 315 320 323
293 294 294 292 294 296 293 296 295 294 292 291 292 290 294 297 298 302 306 308 313 314 314 313 314 314 314 316 316 317 319 319 319 318 318 315 317 317 317 315 313 314 318 320
295 299 298 297 297 297 298 296 295 294 292 286 291 291 292 296 299 302 305 307 310 314 313 315 316 316 314 314 313 315 317 318 319 319 318 317 317 317 316 314 313 315 316 318
294 295 298 299 295 297 296 293 286 285 285 285 291 289 294 299 300 302 305 306 308 313 313 314 313 313 313 310 309 312 314 315 318 318 317 318 318 317 317 317 316 316 316 316
287 285 295 299 296 293 293 293 287 281 283 286 290 287 293 301 303 303 304 306 307 310 313 314 314 314 312 311 310 311 313 315 316 317 316 317 318 317 317 318 317 318 317 318
287 287 296 298 299 299 293 290 295 289 288 287 289 292 298 301 302 303 304 305 307 308 311 314 315 315 314 313 312 313 314 315 316 317 318 318 317 317 316 317 317 318 318 318
292 287 294 296 298 298 296 297 289 289 282 281 286 288 291 296 299 303 303 305 306 307 310 313 315 315 316 315 315 314 315 315 316 316 317 317 317 317 318 317 316 316 318 318
294 291 290 295 293 292 293 292 292 292 289 284 283 287 298 299 301 302 303 305 307 308 309 313 315 316 316 316 315 314 314 314 315 316 317 317 317 317 317 316 316 316 316 316
297 290 286 289 295 296 294 293 293 288 286 287 286 288 299 300 302 302 304 306 306 307 309 312 315 316 316 315 315 314 314 314 315 316 316 316 317 316 316 315 317 318 317 315
298 291 285 287 291 295 292 294 293 292 289 286 285 287 299 300 301 303 303 306 306 306 306 309 312 314 315 316 316 315 314 314 316 315 315 316 316 316 314 315 317 318 318 318
300 293 288 284 287 292 289 291 292 291 287 287 288 290 295 298 299 301 303 305 306 306 305 305 309 313 315 316 317 316 315 316 315 314 314 314 315 315 316 317 317 318 318 318
296 288 291 291 292 292 291 290 290 289 290 286 290 291 295 298 300 302 304 304 304 305 305 304 306 310 313 315 317 318 318 317 316 314 314 314 315 316 317 318 319 319 319 319
293 287 290 287 292 291 288 290 290 290 291 291 292 291 299 301 301 300 301 303 303 304 306 306 305 307 309 312 315 317 318 318 317 316 314 315 316 316 316 317 318 319 319 319
287 289 286 282 287 287 283 288 289 290 292 292 288 293 298 298 299 302 302 303 303 305 306 306 306 306 308 310 313 315 317 319 318 317 317 317 317 317 318 318 317 318 319 320
287 288 285 282 284 276 287 292 292 291 292 294 294 296 297 298 302 304 305 303 303 305 306 307 307 308 309 311 312 314 316 317 317 317 318 318 318 317 318 318 318 319 319 317
291 289 284 281 281 284 287 289 289 288 288 294 295 299 300 301 302 303 304 303 304 305 306 307 309 309 309 309 312 312 313 314 315 316 317 318 319 318 318 317 310 306 304 301
291 291 287 283 279 276 285 294 299 297 285 298 299 298 298 300 294 300 306 306 306 308 308 306 306 307 307 309 313 313 313 313 313 314 316 317 317 312 309 304 301 298 297 294
284 285 283 283 281 284 291 294 298 285 288 297 299 300 299 298 300 303 305 306 307 305 305 305 306 306 309 311 313 313 315 315 312 311 310 310 309 305 300 296 296 293 290 288
283 283 283 284 281 278 294 297 290 295 300 300 300 301 301 302 302 303 305 305 304 303 304 307 308 308 308 311 312 311 307 305 304 302 300 299 298 298 296 293 291 290 288 285
284 288 286 287 287 294 296 298 302 300 300 301 301 302 303 301 301 303 304 304 302 302 302 303 304 304 305 307 305 300 299 301 299 297 296 296 296 293 293 290 288 287 287 285
289 291 288 287 292 294 296 297 298 298 299 300 302 303 303 302 302 302 303 302 300 300 300 301 301 299 298 300 302 301 300 299 296 292 290 290 288 288 288 289 288 286 285 284
290 291 289 289 292 294 296 297 295 295 296 296 297 300 295 295 296 298 299 295 296 296 296 296 295 293 293 294 294 296 296 294 290 288 287 287 286 284 283 283 285 285 286 288
291 289 288 287 290 290 292 296 294 292 291 292 291 292 290 289 289 292 288 288 287 288 290 289 288 289 288 289 289 289 291 291 290 288 287 286 286 285 284 282 281 283 283 282

GFSCGP_sfc_thetae_054.txt.gz
Theta_e
304 298 295 298 300 300 299 297 296 299 301 300 300 301 305 308 311 313 316 318 318 318 321 321 322 319 321 322 321 320 319 320 321 319 320 320 318 318 320 321 325 327 323 324
300 295 301 302 301 298 297 295 296 299 300 299 299 300 305 307 310 314 315 317 318 319 319 320 321 321 319 322 321 321 320 321 320 320 320 320 319 318 319 320 323 326 327 324
296 297 302 300 298 296 297 295 296 296 298 301 300 298 302 306 310 312 315 317 319 320 319 319 320 321 322 322 320 320 320 320 320 320 321 320 319 318 317 318 322 325 328 325
296 299 298 298 297 298 294 299 298 297 295 291 300 291 300 304 305 308 311 316 318 320 321 320 320 321 321 323 324 322 321 320 320 320 319 317 314 314 317 318 322 324 327 326
295 294 296 296 297 299 296 300 298 298 296 295 295 293 297 302 301 304 307 312 318 320 321 320 321 322 323 323 323 322 321 321 320 320 319 317 316 316 317 317 319 323 326 326
298 301 299 299 300 300 300 298 298 298 296 289 294 294 294 299 302 304 307 310 315 318 321 322 323 323 323 323 323 321 320 320 320 319 319 317 317 317 318 316 315 316 319 324
296 295 300 301 296 300 299 295 289 288 288 287 296 294 296 302 305 306 307 309 313 318 320 321 321 322 322 322 322 322 320 318 321 320 320 321 320 321 321 318 317 317 316 317
287 286 295 300 298 296 296 296 290 283 286 289 296 291 297 305 307 309 309 310 312 316 320 320 322 323 322 322 322 320 321 321 321 321 321 324 323 324 322 322 321 320 320 321
287 288 298 300 301 299 296 293 298 292 293 291 294 297 302 305 305 307 308 310 311 314 318 319 321 323 324 323 322 319 320 321 322 323 324 324 325 325 324 324 325 323 324 323
294 288 296 298 301 302 299 301 292 293 285 284 290 293 295 299 302 305 306 308 310 313 314 317 320 322 324 324 323 321 321 321 322 323 324 324 325 326 326 326 325 325 326 326
296 294 293 297 296 295 296 295 296 296 294 287 286 292 302 302 304 305 307 308 311 313 315 317 320 322 324 324 324 322 321 321 321 323 324 324 325 325 326 326 326 325 326 325
296 294 290 292 297 300 300 297 297 291 290 293 292 293 304 303 304 305 307 308 311 313 314 316 320 322 322 323 323 323 323 322 322 322 323 324 324 324 324 325 325 327 326 325
299 293 286 289 293 297 296 297 297 296 295 291 289 293 302 304 303 306 307 309 310 312 313 313 317 320 322 322 322 323 323 323 323 323 322 323 323 324 324 324 324 323 323 323
300 295 290 286 289 295 292 294 295 295 291 292 292 294 298 301 301 304 306 309 310 311 311 313 313 318 321 322 323 323 323 324 324 323 322 322 323 324 324 324 323 324 323 321
298 289 292 292 292 292 292 293 293 292 293 290 293 293 297 299 300 304 307 307 308 309 310 312 313 314 317 321 323 323 324 324 324 322 321 322 324 323 322 322 322 322 322 322
296 289 291 288 291 292 290 292 293 293 293 293 294 294 301 302 303 302 303 304 306 308 309 311 313 313 313 316 320 322 323 323 323 321 321 322 322 322 322 321 322 321 322 321
291 292 288 284 290 289 285 290 292 294 296 294 290 295 299 298 299 301 302 305 306 308 309 310 311 313 314 315 317 319 322 325 323 322 321 321 321 321 321 321 321 320 321 322
289 292 291 286 287 279 290 295 294 293 294 296 295 296 299 301 304 306 308 307 307 308 310 312 313 313 314 316 316 318 320 322 323 321 321 321 321 320 321 320 320 320 321 322
293 291 287 284 284 287 289 292 292 291 290 296 297 298 300 302 304 304 309 308 309 310 311 312 314 315 316 314 315 314 317 320 322 321 321 322 322 320 321 320 321 322 321 320
292 293 289 286 280 278 289 295 299 298 288 299 299 300 300 302 296 301 307 309 310 311 311 310 311 313 313 313 314 314 314 316 318 320 321 323 322 322 321 322 321 311 306 296
285 287 285 285 284 287 294 296 298 288 291 300 301 301 301 300 303 306 308 309 310 310 309 310 311 312 314 314 314 313 314 314 317 318 319 321 322 321 317 309 302 296 292 289
284 284 285 286 282 280 297 296 291 299 302 301 302 302 303 305 306 306 307 307 308 307 307 308 309 310 313 314 316 315 315 315 316 314 310 307 305 302 300 296 294 293 290 287
286 290 288 289 289 297 300 300 302 303 301 302 303 304 306 305 305 304 305 306 305 305 304 304 304 304 303 306 312 312 306 306 304 301 298 296 295 294 294 295 292 289 288 286
292 296 292 292 295 297 298 301 301 301 301 301 302 303 304 304 305 303 304 301 300 296 298 296 295 294 293 294 296 300 300 299 296 293 292 291 291 291 291 290 289 287 286 284
293 295 292 292 295 297 298 300 300 299 300 299 300 298 298 297 299 297 298 294 293 288 288 290 289 288 289 291 291 293 293 293 290 289 288 287 286 284 283 283 285 284 286 286
295 292 291 289 296 296 296 299 297 297 296 296 295 295 295 294 293 293 291 290 287 285 285 285 285 284 284 284 287 289 292 291 288 286 286 285 284 283 282 281 280 283 283 282

GFSCGP_sfc_thetae_057.txt.gz
Theta_e
300 296 294 298 302 302 301 301 300 303 305 302 302 302 306 309 310 310 314 316 319 320 323 323 324 324 326 325 324 323 322 322 322 320 319 319 318 320 321 323 323 324 323 323
295 294 298 300 302 300 299 299 299 302 303 301 301 301 305 307 309 310 313 316 318 320 321 322 324 323 325 323 324 322 321 321 322 322 322 321 319 319 320 321 325 326 327 323
295 297 301 299 300 299 299 298 298 298 302 303 300 298 302 306 309 310 313 315 317 320 320 322 322 323 323 324 323 321 320 321 322 322 324 322 322 319 317 317 319 323 327 323
297 300 299 299 298 301 296 302 300 299 298 294 302 291 300 304 306 308 310 312 315 318 322 322 322 324 323 324 325 323 321 321 323 322 320 319 317 315 316 316 317 321 326 325
296 297 296 295 299 302 298 303 301 299 298 297 297 294 299 304 303 306 309 311 315 318 321 322 323 324 325 326 325 325 321 321 321 322 320 319 319 319 317 316 316 322 325 323
298 303 301 297 300 302 303 300 300 300 298 291 296 295 296 300 303 306 309 310 313 317 320 323 325 325 325 326 326 324 323 320 320 322 321 320 318 317 316 315 315 321 323 326
294 296 301 301 296 301 300 297 290 289 290 288 298 295 297 304 306 307 307 309 313 316 318 322 323 323 325 325 325 324 321 321 320 320 319 321 322 318 319 319 317 315 319 321
288 287 296 301 297 295 297 297 291 284 287 291 298 292 297 306 308 309 310 311 312 315 319 321 323 324 324 325 325 324 322 321 321 320 320 322 323 321 322 321 321 321 318 321
288 289 298 300 301 299 297 294 299 293 295 292 295 299 304 306 306 307 308 309 311 314 318 320 322 325 326 326 325 325 323 323 323 321 321 320 321 321 322 324 325 323 323 323
294 287 295 298 301 301 298 301 292 294 286 284 292 295 296 301 303 306 307 309 310 313 315 318 321 324 326 327 327 326 325 323 323 324 323 322 322 322 325 325 326 326 325 325
296 294 292 296 295 294 295 294 297 297 294 288 287 292 304 303 304 305 308 310 312 313 314 316 319 322 325 327 327 326 325 323 323 325 326 325 326 325 325 326 328 328 328 326
297 294 290 293 298 301 299 297 297 292 291 294 294 293 306 306 305 306 307 309 311 313 314 315 318 322 324 325 327 326 325 324 323 325 327 328 329 329 327 327 329 330 329 329
298 292 287 290 295 299 296 298 299 299 298 291 291 293 305 306 304 305 306 309 311 312 313 315 316 320 323 324 325 326 326 325 325 324 326 328 329 328 328 329 329 330 329 329
299 295 290 286 291 296 294 296 298 297 292 293 294 296 301 302 303 304 306 309 310 311 312 313 314 316 321 324 325 326 326 328 326 325 325 325 327 328 328 329 329 329 329 328
296 291 294 294 295 295 295 296 296 295 296 292 295 296 300 302 303 304 305 305 305 308 311 312 313 315 316 320 324 325 326 328 328 326 325 325 327 328 328 328 328 328 328 327
297 289 292 291 293 293 292 295 296 296 295 295 296 295 302 304 305 303 303 303 303 305 309 311 313 314 314 316 318 323 325 327 328 327 327 327 327 326 327 327 327 327 327 327
292 290 288 284 291 291 287 292 294 295 297 297 293 298 301 300 300 301 303 305 305 308 309 311 313 314 315 316 318 318 322 326 326 327 327 327 328 326 327 327 326 325 326 326
291 291 291 286 288 279 292 297 296 296 297 299 297 298 299 301 303 304 306 308 308 309 310 312 313 314 315 316 317 319 318 321 324 325 325 326 326 326 326 326 325 325 325 325
295 292 288 285 285 289 291 293 293 292 292 297 296 299 301 303 304 304 308 309 309 311 311 312 313 313 314 315 317 317 316 317 319 322 325 325 326 325 325 324 324 325 325 325
294 294 289 288 282 280 290 296 300 298 288 300 300 300 300 302 297 301 308 309 310 310 311 310 311 312 313 315 316 317 315 315 316 320 324 326 325 324 323 324 324 325 324 318
288 288 285 286 284 288 295 298 298 288 291 301 301 301 301 299 301 306 308 309 310 310 309 309 308 308 307 307 308 311 316 316 316 318 320 324 325 324 325 325 324 311 301 294
286 285 285 286 283 281 298 297 291 299 302 302 302 303 303 305 306 306 308 308 308 307 306 306 304 302 300 298 298 302 310 316 319 320 319 314 314 311 308 303 299 296 292 288
286 291 288 289 289 298 301 302 303 303 302 302 302 303 304 303 304 306 307 307 305 304 302 301 300 297 293 290 292 293 298 304 306 307 302 299 297 297 296 294 292 290 289 287
294 296 292 292 296 297 299 303 303 303 302 303 303 302 302 302 303 303 302 302 300 299 297 296 294 292 287 286 287 289 294 295 294 292 292 291 290 289 289 290 290 289 287 286
294 295 293 293 296 298 299 302 302 301 302 301 301 301 300 299 299 299 299 296 293 292 291 291 288 288 284 285 285 286 290 291 288 287 286 285 284 283 282 283 284 284 285 285
296 293 292 291 298 298 299 300 301 298 298 298 297 297 297 297 295 295 293 289 286 286 284 284 283 284 282 282 283 284 286 287 286 284 284 283 282 282 281 280 280 283 283 283

GFSCGP_sfc_thetae_060.txt.gz
Theta_e
298 291 289 295 298 298 298 297 297 302 306 303 302 301 303 307 308 309 311 312 314 318 322 323 323 324 325 324 324 322 322 322 321 320 319 319 318 320 320 322 323 323 321 321
297 290 294 297 299 298 297 296 297 301 304 302 301 300 303 305 307 308 309 312 314 317 320 321 322 322 324 323 322 323 322 322 321 320 320 320 319 320 320 321 321 320 320 320
294 295 298 296 295 294 296 296 297 297 301 303 300 297 300 304 307 308 311 312 315 316 318 320 321 321 323 323 322 321 321 321 321 321 321 320 319 319 317 317 319 320 320 320
296 300 297 296 294 296 293 300 299 298 297 292 301 290 299 302 303 306 309 311 313 315 320 321 321 322 321 323 323 321 321 321 321 322 320 317 316 314 315 317 319 320 323 320
294 296 296 295 296 299 296 302 300 299 297 296 296 293 297 303 301 304 308 310 312 314 318 320 321 323 323 323 323 321 320 320 321 322 321 319 317 316 315 316 316 318 322 324
296 301 299 298 299 300 301 300 299 299 297 289 294 293 294 298 302 305 308 310 312 314 317 321 323 324 324 323 323 321 320 320 321 321 321 320 317 316 314 315 313 315 317 323
292 293 297 301 297 299 297 294 288 286 287 287 296 293 296 302 305 307 307 309 313 315 317 320 321 322 323 323 323 322 319 319 321 320 320 320 320 318 316 315 314 313 314 318
287 284 292 299 297 294 294 294 289 282 285 288 297 291 296 305 307 309 309 312 314 314 317 318 321 323 323 323 324 322 320 318 319 320 320 320 320 319 318 316 316 315 315 318
287 288 297 299 300 298 294 290 297 292 293 289 294 298 302 306 305 306 307 309 311 312 315 318 321 323 323 324 323 323 321 321 319 318 321 320 321 319 318 318 318 317 317 318
292 286 294 297 300 300 297 299 290 291 283 283 291 294 294 301 303 305 306 308 311 313 315 317 319 324 324 325 325 325 322 321 322 320 320 320 320 321 320 320 319 319 318 318
295 291 290 295 293 293 294 293 295 294 292 287 286 291 302 302 304 306 308 310 311 312 314 315 319 321 325 326 326 325 324 322 321 321 321 319 319 320 321 320 321 320 320 319
298 293 287 291 298 299 296 295 294 289 289 292 292 292 306 306 305 306 306 309 311 313 314 315 317 321 322 325 325 325 324 323 322 323 322 320 320 320 320 320 321 322 321 322
295 291 286 288 294 298 293 295 296 296 295 289 289 291 306 305 305 306 305 307 309 311 312 313 314 319 321 323 324 325 325 324 324 323 323 322 321 321 321 320 322 322 322 323
296 293 289 285 289 293 290 295 296 296 289 291 291 295 299 302 303 304 305 305 305 307 310 312 313 314 315 322 324 325 326 326 325 324 323 323 323 322 322 323 323 323 324 322
295 289 292 293 295 294 294 294 295 294 294 290 294 295 299 301 303 304 305 304 303 305 308 310 311 313 314 315 316 322 325 327 326 324 323 322 324 325 325 324 324 324 324 325
296 287 290 289 294 294 291 295 295 295 296 295 296 294 303 304 304 303 303 303 304 306 308 310 311 313 313 314 314 316 318 325 328 325 324 324 323 324 324 324 324 325 324 324
291 289 287 285 291 291 287 291 294 294 296 296 291 297 301 300 300 301 303 304 306 307 308 309 310 311 312 313 315 314 316 317 322 325 325 325 325 323 323 324 324 323 323 324
290 289 288 284 287 279 291 297 297 295 296 298 298 299 299 300 302 303 307 306 306 306 308 308 309 309 312 314 314 315 316 318 316 319 324 326 325 325 324 323 323 322 323 322
294 290 285 283 283 288 291 293 293 292 292 298 296 298 300 302 302 304 307 308 307 307 308 307 308 308 309 308 307 307 310 313 316 317 316 323 325 324 324 323 322 323 322 321
293 294 287 286 281 279 290 296 299 297 288 299 300 300 299 300 296 299 306 307 308 308 307 305 305 306 304 301 301 301 304 307 311 313 318 319 321 324 323 323 322 322 322 320
287 288 284 284 283 287 294 297 298 286 290 300 301 301 300 298 301 304 307 307 308 307 305 303 302 301 299 295 295 296 297 299 300 305 312 310 311 320 322 322 321 320 306 294
286 284 284 285 282 280 297 297 291 298 301 301 301 302 302 302 303 303 305 305 304 302 301 299 297 297 295 292 291 291 291 294 296 300 305 302 301 303 304 303 298 297 293 289
284 290 287 288 287 298 301 301 302 303 300 300 300 301 301 301 301 302 301 301 299 297 295 294 293 292 291 290 289 287 289 292 293 293 293 292 292 293 294 294 292 290 289 287
292 296 291 291 294 296 300 302 302 302 300 300 300 300 300 298 299 298 298 294 292 291 288 288 287 286 285 286 286 286 288 290 288 286 286 285 284 284 286 289 290 288 286 284
292 292 292 293 295 296 297 300 299 299 299 297 298 297 296 296 295 294 291 289 287 286 285 284 283 283 282 283 283 285 286 287 285 284 284 283 282 282 281 282 282 282 283 284
295 291 290 290 295 296 294 297 298 296 295 295 294 293 294 293 291 290 286 284 283 282 282 281 280 280 280 282 282 284 285 285 284 282 282 281 281 281 281 280 280 283 283 283

GFSCGP_sfc_thetae_063.txt.gz
Theta_e
297 288 284 288 294 295 295 293 292 294 301 301 299 297 299 301 300 303 303 304 308 313 316 316 318 322 320 319 321 321 321 322 321 320 320 320 319 320 320 321 321 323 322 322
295 288 293 294 294 295 295 292 291 296 301 300 298 296 297 299 298 301 304 304 305 313 315 315 319 320 319 318 319 321 320 320 320 320 320 320 320 320 320 320 321 322 320 320
292 294 298 295 292 290 293 291 292 293 298 299 297 292 295 300 301 302 303 307 308 313 314 314 316 317 318 317 318 320 320 320 320 320 320 320 320 319 318 319 319 320 319 319
295 298 295 295 294 294 288 295 295 295 293 288 295 284 293 298 299 301 301 302 308 313 315 316 315 315 317 317 319 321 320 319 320 320 318 317 316 314 316 317 318 317 318 318
293 295 295 293 294 298 294 298 296 296 294 291 292 286 290 297 296 299 299 303 304 313 315 315 316 316 318 319 318 318 319 320 319 319 319 317 315 316 317 317 316 317 317 317
295 300 298 297 299 299 300 296 296 295 293 286 291 288 287 293 297 300 303 304 305 307 315 316 318 317 317 318 317 317 318 319 320 319 318 316 316 313 313 312 314 315 318 318
290 293 297 299 294 297 297 292 284 284 283 282 293 290 291 297 301 302 303 303 305 306 315 315 316 316 316 317 316 316 317 318 319 319 318 316 316 315 312 313 315 315 314 318
284 284 292 296 293 293 294 291 285 280 280 285 293 287 291 301 304 304 304 304 306 307 316 316 317 317 317 317 317 316 316 318 319 319 318 318 317 316 314 314 315 315 315 316
286 287 296 296 298 297 293 289 294 288 289 286 289 293 298 300 301 301 301 304 306 308 313 316 317 318 318 318 317 317 316 317 319 319 318 318 319 318 315 314 314 315 315 316
290 284 293 295 298 298 295 297 287 288 281 280 287 289 290 297 299 301 300 301 304 306 308 316 318 318 319 319 319 318 317 316 317 319 319 319 319 320 319 316 314 314 314 315
294 289 288 293 292 291 293 291 292 292 289 282 282 288 299 297 300 300 302 304 303 304 306 310 317 319 320 320 320 318 318 317 316 317 318 319 319 319 319 317 316 315 315 314
294 291 284 287 294 297 296 293 293 287 286 289 287 289 303 302 301 301 302 303 304 307 308 310 310 313 317 319 320 319 318 318 318 317 317 317 319 319 319 319 318 318 316 316
291 288 283 286 291 296 292 294 294 294 293 288 285 288 304 304 303 302 299 300 303 307 307 308 310 310 312 315 319 320 320 319 319 319 317 317 317 317 318 319 320 319 319 317
294 290 287 283 287 292 289 293 294 292 287 288 290 293 298 301 301 303 299 300 304 305 307 308 308 309 310 312 313 318 320 321 320 320 318 317 317 316 317 318 319 319 319 318
293 286 290 290 291 293 291 291 293 291 292 289 293 294 298 300 301 303 300 303 305 306 306 307 307 307 309 310 311 312 313 316 322 320 319 319 318 319 318 317 318 320 319 319
293 285 288 286 292 292 291 292 294 294 295 295 295 294 303 303 304 303 302 304 304 304 305 306 306 307 308 309 308 309 310 311 315 321 320 320 321 320 319 319 319 319 319 319
290 287 285 282 288 289 284 290 293 293 295 295 290 297 302 301 301 301 301 302 303 303 303 304 305 306 305 302 302 301 304 308 311 313 317 321 321 320 321 321 320 320 320 321
288 286 286 281 284 278 290 296 297 294 295 297 297 298 299 300 302 302 303 302 302 301 302 302 303 303 300 298 298 299 301 303 306 305 306 310 314 317 320 321 321 321 321 321
291 286 280 280 281 286 289 293 292 292 292 297 296 297 299 301 300 300 304 305 301 300 300 300 300 299 296 293 294 296 297 298 299 298 300 303 309 308 308 317 319 321 320 320
290 289 282 280 278 277 288 295 298 297 287 298 298 297 297 298 291 295 303 302 300 298 298 297 297 295 292 291 292 292 292 293 293 295 296 300 304 302 302 304 309 320 320 319
283 283 280 280 278 284 294 296 298 285 288 298 299 298 297 294 297 300 299 297 296 293 293 294 293 290 289 289 290 289 290 289 291 293 296 296 296 295 297 298 298 313 310 295
283 281 280 280 277 277 296 295 290 294 298 298 297 297 297 298 299 297 294 291 289 287 288 288 288 287 286 286 286 286 286 288 291 291 290 289 288 289 290 293 294 295 294 292
283 287 283 284 283 294 300 298 300 299 297 297 297 297 298 296 294 292 289 288 286 285 285 286 285 284 284 284 284 284 285 287 288 287 285 284 285 284 285 285 288 290 290 288
291 294 288 288 292 294 296 298 299 297 296 296 296 296 296 293 292 289 287 285 284 283 283 283 282 281 281 282 283 284 285 286 285 283 283 283 282 282 282 283 283 283 285 285
291 290 289 289 293 294 294 294 295 294 296 294 294 293 292 291 287 286 284 283 282 281 281 280 280 280 280 282 282 283 284 285 283 282 281 281 281 281 280 281 281 281 282 283
292 285 286 286 291 292 292 294 294 292 292 291 290 287 287 288 285 283 281 280 280 278 279 279 279 279 280 281 281 282 283 283 282 280 280 280 279 280 279 279 279 282 283 283

GFSCGP_sfc_thetae_066.txt.gz
Theta_e
295 288 286 285 289 293 293 291 289 293 297 295 295 296 299 302 298 297 300 303 310 312 313 317 321 320 318 318 319 320 322 322 323 322 322 322 321 322 321 322 323 324 323 324
293 287 292 292 292 291 292 291 290 294 297 296 295 294 298 300 299 300 302 301 309 310 311 316 318 318 318 318 317 318 321 322 322 322 322 321 322 321 322 321 322 323 322 322
290 294 298 294 292 290 289 288 291 291 295 297 295 292 295 298 299 299 302 304 306 311 311 314 317 316 316 317 317 317 319 320 320 320 320 318 320 319 318 319 319 322 321 320
293 298 296 294 292 293 289 293 292 292 291 285 296 284 293 296 297 299 299 300 302 311 313 314 316 316 315 316 317 317 318 319 319 320 319 318 316 315 317 318 320 321 320 319
290 293 294 291 293 296 292 299 295 294 289 287 291 286 291 294 294 297 298 298 303 312 313 313 316 316 317 317 317 317 318 319 319 319 319 318 316 317 318 318 318 319 319 318
292 299 297 295 298 298 299 296 295 293 290 282 290 288 287 290 295 298 300 299 303 311 313 313 316 317 316 317 317 316 316 317 318 319 319 317 316 316 315 316 315 316 316 316
286 291 296 300 294 297 296 291 284 283 281 281 292 289 291 296 298 300 301 301 302 312 313 313 312 314 315 316 316 316 315 316 318 318 318 317 315 314 314 314 315 315 315 315
280 280 290 298 294 292 292 291 284 279 280 283 292 285 290 299 302 302 302 301 303 311 313 313 313 314 315 316 315 315 315 316 317 318 317 317 316 314 313 314 315 314 316 316
282 285 292 296 297 295 290 288 294 286 288 283 288 292 298 299 299 300 300 302 305 311 312 314 315 314 315 315 315 315 315 316 317 317 318 316 315 314 313 312 314 314 313 317
287 283 291 294 297 297 294 297 287 289 281 279 286 288 290 295 297 299 299 299 304 311 313 314 315 315 316 316 316 316 316 316 317 317 318 318 317 316 315 312 312 314 315 313
292 287 286 292 290 290 291 290 290 291 289 282 281 288 299 298 298 299 301 303 304 305 308 312 314 316 316 317 317 316 315 315 316 317 317 318 318 319 318 316 313 313 314 312
292 289 284 287 293 296 295 292 292 286 285 288 286 287 302 302 301 299 302 303 305 306 307 309 312 315 316 317 316 315 315 315 316 317 317 317 318 319 319 318 317 315 313 313
289 286 281 284 289 293 291 293 294 294 291 287 284 288 303 304 303 303 301 303 305 306 306 307 309 309 310 312 318 318 317 316 316 316 316 316 317 317 317 318 318 317 316 314
293 287 285 282 287 291 289 292 293 292 286 286 286 292 298 300 300 302 300 303 305 304 305 305 307 308 309 309 309 311 315 317 318 317 316 315 315 317 317 317 318 319 319 317
290 282 288 289 290 290 291 291 291 290 290 287 290 292 298 301 299 302 303 303 303 302 304 305 305 304 303 302 303 304 305 308 311 318 317 316 317 317 317 317 317 318 318 318
291 283 286 285 289 289 287 292 292 291 293 292 293 293 302 303 303 302 303 302 301 301 302 303 302 300 298 298 298 300 302 304 307 307 306 316 319 319 317 317 316 316 317 317
288 286 282 280 287 286 283 289 292 293 296 295 290 296 301 299 300 300 300 300 299 299 300 300 298 296 294 294 295 296 298 300 300 300 301 303 305 310 317 319 318 316 316 317
286 284 283 279 283 275 289 293 294 294 295 297 297 298 301 300 301 303 301 298 297 298 298 296 294 292 291 292 292 294 295 295 295 295 296 299 301 304 304 306 310 318 318 317
290 285 279 277 278 283 286 292 292 292 290 297 295 299 302 301 298 295 298 297 295 295 295 293 291 290 289 289 290 291 291 290 291 292 293 295 297 297 298 299 301 303 304 316
288 286 280 278 277 274 287 294 297 296 287 297 299 298 299 298 288 290 294 292 291 291 292 290 289 287 286 287 288 289 288 288 288 290 291 291 291 291 292 294 295 298 299 301
280 280 279 278 276 281 292 296 298 284 287 297 297 298 297 293 293 291 291 289 289 288 288 289 286 284 284 284 286 286 286 286 289 289 289 287 287 287 289 289 292 295 295 295
281 279 277 279 277 276 294 295 289 294 298 297 296 296 293 292 291 289 287 286 285 284 285 285 284 282 283 284 285 284 284 287 287 286 285 284 284 284 285 286 286 289 290 289
283 286 282 282 281 292 293 293 297 299 296 296 296 295 293 290 288 287 285 284 283 282 282 282 281 281 281 283 283 283 284 285 284 283 282 282 282 282 283 283 283 284 286 285
290 293 288 288 291 291 292 293 294 294 292 292 294 293 291 288 287 285 284 282 280 280 279 281 280 279 279 281 281 283 283 283 281 281 280 280 280 280 281 282 282 282 282 282
290 290 288 289 291 292 292 292 293 292 291 289 288 289 287 285 283 282 280 279 279 278 279 279 279 279 279 280 280 281 282 283 281 280 279 279 279 279 279 279 281 281 282 282
289 284 283 284 291 288 290 292 293 289 286 286 285 283 284 283 281 280 279 278 277 277 277 277 277 278 278 278 279 279 281 280 279 278 277 276 276 276 277 277 277 280 281 283

GFSCGP_sfc_thetae_069.txt.gz
Theta_e
295 288 284 285 287 290 291 289 287 289 297 292 291 292 295 299 297 296 296 295 306 310 313 315 319 318 318 317 317 321 321 324 324 323 322 322 320 320 321 320 323 324 326 324
292 286 291 292 290 288 287 287 288 293 297 293 291 291 295 298 298 298 299 296 300 309 309 316 318 318 319 318 318 319 319 322 324 324 323 323 323 322 322 321 321 324 324 326
288 292 297 293 290 288 288 285 288 289 293 293 291 289 292 298 297 298 298 299 303 309 309 315 317 317 318 317 317 318 319 320 322 323 320 320 320 320 320 320 320 323 322 323
292 296 295 293 291 291 285 292 293 289 287 282 290 281 290 295 296 296 298 298 300 308 311 314 315 316 316 317 316 316 320 319 320 321 320 319 318 316 319 320 320 322 321 322
288 292 292 290 292 295 290 297 295 293 288 285 287 283 288 292 293 295 297 298 299 308 311 313 315 316 317 318 317 318 318 317 319 319 319 318 316 317 318 318 318 320 320 319
291 297 295 293 296 296 297 295 294 293 288 280 286 286 286 291 294 296 299 300 298 305 310 313 316 316 316 317 317 316 316 315 317 318 317 315 316 316 316 317 317 318 319 318
285 288 294 298 292 296 295 290 282 281 279 279 289 287 289 296 298 298 299 301 299 304 310 311 313 314 315 316 316 316 316 315 315 318 316 315 313 315 316 316 317 316 317 316
279 278 289 296 292 290 291 291 284 277 279 281 290 284 290 300 301 302 302 302 302 301 310 311 314 314 314 315 316 315 314 315 315 317 318 318 315 316 315 316 317 317 317 317
280 282 290 296 296 295 291 287 293 286 288 282 286 291 297 299 298 300 298 299 299 304 310 310 313 315 314 316 315 315 315 315 316 316 317 317 316 312 312 314 315 316 318 317
286 281 289 292 295 296 293 296 286 288 280 278 285 289 289 294 294 299 299 299 303 307 309 311 312 314 315 315 316 315 316 315 315 316 315 315 316 316 312 311 311 312 312 314
290 287 284 291 289 289 291 290 289 290 288 281 280 287 298 298 298 297 299 301 302 305 309 311 312 313 314 315 315 315 315 316 316 316 317 316 315 314 313 311 311 312 312 312
292 290 283 287 292 295 294 292 291 285 284 287 286 287 302 301 299 299 300 302 304 307 309 311 312 314 314 315 315 315 315 315 317 317 317 316 315 316 315 314 314 312 312 312
289 286 281 282 287 293 291 293 293 292 291 286 283 286 302 302 300 300 300 301 303 304 306 306 306 306 308 314 316 316 316 315 316 316 317 316 315 315 315 316 317 316 314 313
293 287 283 279 284 290 287 289 293 292 286 286 286 292 297 298 299 299 301 301 302 303 302 301 301 301 303 304 306 307 307 309 310 316 316 315 315 315 316 316 316 316 316 315
288 282 286 287 288 288 289 288 291 290 290 287 288 290 296 298 300 300 303 301 301 300 299 297 296 296 297 298 300 302 302 303 304 310 310 313 316 317 318 317 316 317 316 316
290 282 284 282 288 286 284 288 291 292 292 292 292 291 301 301 301 301 302 300 299 299 297 295 294 293 292 293 295 296 297 298 298 299 300 303 305 311 314 317 317 317 317 317
287 284 282 279 284 283 280 287 288 292 293 292 289 294 301 300 299 301 299 299 298 296 295 293 292 291 290 290 292 292 293 294 295 295 296 298 299 301 302 303 305 313 316 317
285 283 282 278 281 273 284 290 293 291 294 296 296 298 300 300 301 299 300 298 296 294 292 290 290 289 289 289 291 291 290 290 292 292 293 293 293 294 295 297 299 299 302 303
289 284 278 275 276 281 284 291 290 289 290 296 295 298 300 298 294 291 294 294 293 292 290 288 287 287 286 287 289 288 288 289 289 289 289 289 289 289 291 292 292 294 297 299
288 285 280 278 275 272 283 292 297 295 285 296 297 298 296 297 290 287 291 290 290 289 288 286 285 285 284 285 287 286 286 287 286 286 286 285 285 286 287 288 288 290 293 295
280 280 279 278 276 279 288 293 296 282 286 295 297 301 297 294 292 289 289 287 287 287 286 286 284 282 283 285 286 285 285 284 285 285 284 283 283 285 285 285 286 287 289 290
280 278 277 279 277 274 291 293 287 292 296 295 293 291 289 289 288 287 286 285 284 283 283 283 282 282 283 284 284 283 282 284 284 283 282 281 281 283 283 283 284 285 286 285
276 285 281 282 281 290 291 290 294 297 295 295 293 292 291 288 286 285 283 282 280 280 281 281 280 281 281 282 283 282 281 282 282 281 280 280 280 281 282 282 282 282 283 282
290 292 286 287 289 289 290 291 291 290 290 292 293 292 290 286 285 282 281 280 279 279 279 280 280 279 279 280 281 281 282 281 281 279 279 279 279 279 279 280 280 280 280 280
288 289 285 288 290 291 292 291 289 288 287 286 287 286 285 284 281 280 279 278 278 278 278 279 278 278 278 279 279 281 280 280 279 278 278 277 277 277 278 278 278 278 280 280
287 283 282 283 288 288 288 289 290 286 284 285 283 281 282 281 279 279 277 277 276 275 275 275 276 276 277 277 278 278 280 280 278 277 276 276 276 276 276 276 276 279 279 280

GFSCGP_sfc_thetae_072.txt.gz
Theta_e
294 288 285 286 286 288 288 286 286 287 293 292 291 290 293 295 295 294 296 294 298 307 314 314 317 318 316 315 317 321 323 324 325 323 321 320 320 320 321 323 326 326 325 322
291 287 291 292 290 287 286 283 283 288 293 292 290 289 293 295 295 296 297 297 297 302 308 314 316 317 317 317 318 319 321 324 324 324 322 323 321 321 321 322 324 326 324 321
287 290 296 293 290 288 287 285 285 285 290 292 289 288 292 295 296 297 297 298 297 301 307 312 315 317 318 317 318 318 320 323 324 324 322 321 320 321 319 319 321 323 325 322
291 295 294 292 291 290 284 291 289 288 286 280 288 280 288 291 294 296 297 297 297 301 307 313 314 316 318 318 319 318 319 320 322 322 321 319 318 316 319 319 321 322 324 324
288 291 291 290 291 293 289 294 293 292 287 284 285 284 286 291 291 294 297 298 298 304 307 312 314 316 318 319 317 316 318 319 320 321 321 320 319 318 319 319 319 321 321 323
291 295 294 292 294 295 295 293 293 291 287 280 285 284 283 287 292 296 298 299 300 299 306 311 314 316 317 318 316 317 317 316 318 319 320 319 316 316 316 317 317 319 319 320
284 286 292 296 289 293 292 290 281 279 279 279 287 283 287 292 295 298 298 299 300 301 304 310 313 315 316 315 316 316 315 314 315 316 317 317 316 316 316 316 317 317 318 317
278 278 287 294 290 287 289 289 280 277 277 280 288 281 287 297 298 301 301 301 299 299 304 310 313 314 315 315 315 316 315 314 313 312 314 315 312 314 317 317 318 318 318 318
279 281 288 294 294 292 289 287 293 286 287 282 284 288 295 300 298 299 300 301 301 300 301 308 312 313 315 315 314 315 315 315 315 313 313 312 312 313 315 317 317 318 319 319
285 280 287 292 295 295 292 295 286 286 279 277 284 287 288 293 294 297 298 299 302 308 308 311 312 314 315 316 316 316 315 315 315 316 312 313 312 311 311 314 314 316 317 317
287 285 284 291 288 287 289 288 289 289 286 282 281 285 297 295 296 296 298 301 304 308 309 310 312 314 315 315 315 314 314 315 315 315 316 312 312 311 310 310 311 314 314 315
292 289 282 285 291 293 293 290 290 285 284 287 286 286 301 300 299 300 300 301 303 303 305 311 312 313 313 314 315 314 315 315 315 316 316 316 315 312 310 310 310 311 313 312
290 286 281 282 286 292 289 292 292 290 288 285 282 285 302 302 300 301 299 300 299 299 299 301 303 304 308 312 314 314 315 316 316 317 316 315 315 314 312 312 312 311 311 311
292 286 282 279 281 288 285 288 290 288 285 284 285 290 296 298 298 300 299 298 297 296 297 297 297 299 301 303 304 305 305 306 307 315 316 315 315 316 316 316 315 314 313 312
287 282 285 285 286 287 287 287 288 287 288 285 288 290 294 297 299 300 299 299 296 293 293 294 294 295 297 297 298 297 298 299 302 304 304 305 309 317 317 317 317 317 316 315
290 282 283 282 286 284 283 283 285 287 291 290 290 290 298 302 302 301 299 297 295 293 292 291 291 291 291 292 292 293 294 295 297 296 297 298 300 303 303 304 306 314 317 317
286 283 281 279 282 282 278 283 284 287 293 292 286 292 299 299 299 299 298 296 294 292 291 289 288 288 288 290 290 289 291 293 292 292 292 292 294 295 296 299 300 299 301 303
284 283 281 278 280 271 281 288 290 290 292 295 295 298 298 297 300 300 300 296 292 290 289 287 287 286 287 289 289 289 290 290 289 288 288 288 289 290 292 292 292 293 296 299
287 283 278 275 275 279 282 289 288 288 287 294 295 297 294 292 293 289 293 293 290 288 287 286 285 285 286 286 287 288 287 286 285 284 284 284 286 287 288 288 289 291 292 295
285 284 280 278 274 270 281 289 293 293 282 293 294 295 292 296 288 287 290 290 288 287 286 284 284 285 285 285 287 286 284 283 283 283 282 283 285 285 285 286 287 289 291 291
280 280 278 277 274 279 286 290 293 280 282 291 292 297 295 293 292 289 287 285 285 285 284 284 283 282 283 285 285 283 282 281 282 282 282 282 283 284 284 285 286 287 287 286
279 277 277 280 277 274 289 290 284 289 292 290 290 291 287 287 286 285 284 283 282 281 281 282 281 281 282 283 283 280 280 282 282 281 280 280 281 282 282 282 283 283 284 283
276 282 281 282 280 289 289 288 290 295 293 291 289 288 287 285 284 283 281 280 280 280 280 281 281 280 281 281 282 280 280 281 280 280 280 279 279 280 280 280 280 281 281 280
287 291 285 285 288 288 289 289 288 288 287 290 289 288 286 283 282 280 279 279 279 279 279 280 279 278 278 280 280 279 280 280 279 278 278 279 278 278 279 279 280 279 279 278
287 287 284 286 289 290 290 289 288 286 285 285 285 284 283 281 280 279 278 277 277 277 278 278 278 277 277 278 278 280 279 279 278 277 277 277 277 278 277 278 278 278 279 279
286 283 281 282 286 287 284 286 286 283 283 283 281 280 281 280 278 277 276 276 275 274 275 275 275 275 275 276 276 276 278 279 278 276 275 274 275 275 275 276 275 278 279 279

GFSCGP_sfc_thetae_075.txt.gz
Theta_e
296 290 287 289 290 291 289 288 287 290 294 293 292 294 297 300 300 301 302 303 304 305 310 316 321 324 325 327 325 325 325 325 325 324 324 323 322 324 324 327 328 327 326 328
293 288 293 293 291 289 289 287 287 290 292 292 291 292 297 299 300 301 303 304 304 305 307 314 320 323 324 323 324 325 325 325 326 326 324 324 323 324 324 327 327 329 326 325
289 291 296 293 293 290 290 288 289 288 292 294 291 289 292 297 301 301 302 304 305 304 305 310 318 321 324 322 323 323 324 325 327 327 326 323 323 323 321 321 323 324 323 322
292 295 294 293 292 293 287 293 291 290 288 284 292 283 291 295 297 300 302 304 305 306 305 308 317 319 322 323 325 324 323 324 326 326 323 321 320 319 321 321 322 324 324 322
289 293 293 291 291 295 290 295 293 293 290 289 289 286 290 295 294 298 301 303 305 306 306 310 316 320 322 324 323 322 322 323 324 325 323 321 321 323 322 322 321 322 324 322
293 297 296 294 296 296 297 293 293 293 290 283 288 287 288 291 294 298 302 304 306 307 307 311 317 320 322 323 321 319 320 320 323 324 324 322 321 320 320 320 321 322 322 322
286 288 295 297 291 295 293 289 283 281 281 281 290 287 290 295 298 301 302 304 306 307 308 313 316 318 320 320 318 318 319 318 320 322 322 322 320 320 320 320 320 320 319 319
281 281 288 295 291 288 290 289 284 277 279 283 289 284 290 300 302 303 304 305 307 309 306 312 317 318 319 319 316 318 317 316 317 319 320 321 320 319 319 320 320 320 320 320
281 282 290 294 295 293 290 287 293 287 287 283 287 291 298 300 300 302 303 305 308 310 311 309 316 318 319 317 316 317 317 315 315 317 319 320 318 318 319 320 321 321 321 320
287 282 289 294 297 296 293 295 286 287 278 278 285 288 290 294 297 299 301 302 306 311 311 312 316 316 318 317 316 317 318 319 317 316 320 321 321 320 319 320 319 319 320 321
289 287 286 293 291 289 290 289 289 288 287 281 281 286 296 296 298 298 299 299 300 304 311 313 314 316 316 316 316 316 317 318 318 317 318 320 320 320 320 318 318 319 319 318
293 289 283 286 292 296 294 291 291 284 283 287 286 286 300 299 298 298 297 298 299 300 302 310 313 314 314 314 315 315 316 316 318 317 317 317 319 319 318 319 320 321 319 319
292 287 282 284 289 293 289 292 292 290 288 284 283 287 301 300 298 297 295 295 295 297 298 299 301 303 307 310 311 310 311 314 317 317 317 317 317 317 317 318 318 319 320 320
293 287 284 280 283 288 286 288 290 289 282 283 286 290 296 295 297 296 295 294 293 293 294 294 295 296 298 299 300 301 304 306 313 316 315 313 316 316 316 318 319 318 318 319
290 283 286 287 288 288 286 286 287 285 288 284 288 288 293 297 298 299 297 294 292 291 291 291 291 292 294 295 298 299 299 300 302 302 302 302 304 306 308 312 315 318 318 318
291 284 286 283 287 285 283 285 286 287 287 289 291 290 298 300 303 299 296 294 291 290 289 289 289 289 290 291 292 295 294 294 295 293 293 295 297 299 300 302 303 304 304 305
286 285 284 279 284 283 279 284 285 287 291 292 288 293 300 299 300 298 296 294 291 290 289 288 287 288 289 290 291 291 291 292 291 290 291 291 293 294 294 296 297 297 299 301
286 285 284 280 282 273 283 289 290 291 293 294 294 297 297 294 293 296 296 293 290 288 287 286 287 288 288 289 289 289 289 288 288 288 288 289 291 291 292 294 295 295 298 297
289 286 282 278 278 281 283 288 287 288 288 294 294 296 295 294 293 289 290 290 287 286 286 286 286 286 287 288 288 287 287 287 285 285 286 288 289 289 290 290 291 293 294 292
287 287 284 280 276 273 283 290 293 293 282 293 292 294 295 295 290 287 288 286 285 284 285 285 285 285 285 286 286 285 284 284 283 283 284 286 286 287 287 287 289 289 289 287
283 283 281 280 278 281 287 290 293 280 283 291 291 294 297 293 289 285 285 283 283 283 284 284 284 283 284 284 284 283 283 282 282 283 283 284 284 285 286 286 287 287 286 285
281 280 279 280 278 275 289 291 284 288 291 289 289 288 286 284 283 282 282 281 281 281 282 283 282 281 283 284 283 281 280 282 283 282 282 282 282 283 283 284 284 285 285 284
281 284 283 283 283 289 290 288 288 293 291 289 288 287 285 283 281 280 280 279 280 280 281 282 281 281 281 282 282 280 280 281 282 281 281 281 281 281 282 282 282 281 281 281
287 290 286 285 288 288 288 287 287 287 287 287 287 285 283 279 279 278 278 278 278 279 279 280 280 279 279 280 280 281 281 281 281 280 280 280 279 280 280 281 281 280 280 280
286 288 283 285 287 287 286 286 286 285 285 284 284 283 282 281 279 278 277 277 277 276 277 278 278 277 277 278 278 279 281 281 279 279 279 279 279 278 278 279 279 279 280 280
285 283 282 280 285 283 282 283 284 283 282 282 281 280 280 279 277 277 275 276 275 275 276 276 276 276 276 276 277 278 279 280 279 278 278 277 278 278 278 277 276 278 279 279

GFSCGP_sfc_thetae_078.txt.gz
Theta_e
297 292 289 290 293 294 292 289 289 292 295 294 294 296 300 303 305 305 307 308 308 310 313 315 320 328 331 334 335 334 330 331 330 329 326 326 327 328 327 329 329 329 328 329
295 290 294 295 294 292 291 289 289 293 296 296 296 296 300 301 302 304 306 307 309 310 311 313 319 327 330 332 334 333 331 330 330 329 326 326 326 327 329 329 329 330 332 329
292 293 297 295 293 291 292 291 292 292 296 298 297 295 298 302 303 304 306 308 309 310 310 312 317 325 329 331 333 332 332 332 331 331 329 331 327 327 326 326 327 328 332 327
293 296 294 294 293 295 289 295 294 293 292 289 296 287 296 299 300 302 304 307 309 310 311 313 315 322 326 330 333 333 332 330 331 332 329 328 324 320 325 326 324 328 327 324
290 293 294 291 292 296 291 296 294 294 293 293 293 290 295 298 297 300 304 307 310 312 312 314 315 319 325 330 331 333 332 329 331 330 329 327 324 323 326 325 323 325 324 322
294 298 297 296 298 297 297 294 293 294 293 286 292 291 294 296 298 301 305 307 309 312 314 314 317 321 325 330 331 330 329 327 329 329 329 326 323 323 325 323 323 322 322 322
291 292 297 298 293 296 295 289 283 284 283 284 292 290 294 299 303 304 305 309 312 314 315 315 317 320 324 327 325 325 328 324 326 328 327 327 327 325 323 324 322 322 321 321
286 284 290 296 294 289 291 290 285 279 282 286 293 288 295 303 305 307 308 311 314 316 317 314 319 321 323 326 321 322 325 322 324 326 326 326 326 323 323 324 326 326 323 324
287 286 293 296 296 295 292 289 295 288 290 285 289 294 300 303 304 306 307 308 309 314 318 315 318 322 324 325 318 321 322 321 322 323 325 327 326 326 324 324 324 322 324 323
291 285 292 295 298 297 296 298 287 289 281 281 288 290 292 298 300 304 304 304 304 307 315 315 319 321 324 321 319 322 322 321 321 322 322 323 325 325 323 323 322 325 324 324
293 290 289 295 292 291 292 291 292 290 290 284 284 288 296 295 298 299 301 300 300 302 304 315 318 320 319 318 319 319 321 321 320 319 321 322 322 323 322 322 321 322 323 323
294 291 286 289 295 297 296 293 293 287 285 289 287 290 300 298 296 297 296 296 298 299 300 302 312 315 316 317 317 318 321 321 322 319 320 321 321 323 323 322 321 322 321 322
291 289 284 286 291 295 292 294 292 289 289 286 284 289 298 299 296 296 295 294 294 295 296 297 299 300 301 307 312 314 317 318 318 318 319 318 318 318 319 321 323 323 322 320
291 289 288 283 284 291 289 291 293 291 286 287 286 289 294 297 296 297 294 293 292 292 292 293 293 295 297 299 300 303 305 312 315 316 313 311 315 317 318 319 321 321 322 321
288 286 288 288 287 289 288 288 289 289 289 286 287 289 294 298 299 299 297 293 291 289 289 290 290 291 292 294 295 297 298 301 302 301 301 301 302 304 306 307 308 314 318 320
288 286 289 286 287 289 287 289 288 289 290 290 291 291 299 303 304 298 296 293 291 289 288 288 289 289 290 291 293 294 294 295 297 295 295 297 299 298 299 300 301 303 304 305
285 285 286 281 287 286 282 287 288 289 291 293 289 294 301 300 299 297 295 294 291 287 287 287 287 288 289 289 290 291 292 293 293 293 294 296 297 296 296 298 299 300 299 297
285 284 285 282 284 275 287 292 292 291 293 296 295 298 299 295 293 293 294 292 290 289 287 287 287 288 288 288 289 290 290 291 291 293 292 293 293 295 298 298 298 297 295 292
291 288 283 281 281 283 285 290 290 290 290 296 295 297 296 292 290 286 288 287 285 285 286 287 289 288 288 288 289 288 288 289 288 287 288 290 292 292 294 294 294 295 293 291
288 290 285 283 277 274 288 292 295 294 286 295 295 295 295 295 290 284 286 285 284 284 285 285 286 288 287 287 288 287 286 285 285 287 288 289 289 290 290 291 291 291 291 289
284 285 282 283 281 284 291 294 296 282 285 294 293 290 292 292 285 282 282 282 284 284 284 285 285 285 286 287 288 285 285 285 285 286 286 286 288 288 288 289 290 290 289 289
283 282 283 283 280 277 293 294 288 290 293 292 289 287 283 282 282 281 282 281 282 283 284 285 285 284 286 287 287 285 283 284 285 286 285 285 285 287 287 287 287 288 287 287
283 287 285 287 286 291 291 290 290 291 290 290 288 287 285 282 280 280 280 280 281 282 284 286 284 283 284 285 286 283 284 285 285 284 284 284 285 284 285 286 286 287 287 287
289 290 286 287 285 286 287 288 287 287 286 286 286 284 283 280 280 279 279 279 280 281 282 284 283 282 281 283 284 284 284 285 285 283 283 283 283 283 283 284 284 284 284 284
286 289 285 284 285 285 285 286 287 286 285 284 285 285 283 282 281 281 279 278 278 279 280 281 281 281 281 282 282 284 284 285 283 283 283 283 282 281 280 280 281 280 281 282
285 282 282 283 285 284 282 285 286 285 284 285 284 283 283 281 279 279 278 279 279 278 279 279 280 280 280 280 281 282 283 284 284 282 282 282 283 283 282 280 277 278 278 279

GFSCGP_sfc_thetae_081.txt.gz
Theta_e
299 294 292 294 296 295 294 292 291 294 297 295 294 296 298 301 303 304 307 308 310 311 314 315 318 322 328 334 336 339 338 338 336 333 331 330 330 331 331 332 331 331 332 334
297 292 297 297 296 294 292 291 290 294 297 297 297 297 301 302 302 304 305 307 310 312 313 314 317 321 329 332 336 337 336 336 335 333 332 331 330 332 332 333 332 331 330 332
294 297 298 296 295 292 292 291 291 292 297 299 296 295 298 302 304 305 307 308 309 311 312 313 314 320 329 331 335 336 335 335 334 333 332 331 328 330 328 330 331 330 332 332
296 299 296 294 293 294 290 296 295 294 293 288 298 288 296 299 301 304 306 307 308 311 312 313 314 318 326 330 335 336 336 334 334 334 330 328 326 323 328 328 330 330 331 331
292 294 294 293 293 296 293 297 296 295 291 291 292 290 294 300 299 303 306 307 308 311 313 313 314 316 325 330 333 336 335 334 334 333 332 329 327 327 329 328 328 327 328 326
295 300 297 296 298 298 298 295 295 294 291 285 291 291 292 298 300 303 307 309 310 311 313 314 315 316 322 329 334 334 334 333 333 333 332 329 328 327 327 326 325 324 324 323
295 295 299 299 294 297 296 292 284 283 285 284 294 291 294 300 304 305 306 309 313 315 316 315 315 316 320 327 332 333 333 330 332 332 330 329 328 328 325 326 325 323 320 320
287 286 294 298 295 293 293 291 284 279 281 285 294 289 295 305 307 308 310 311 312 315 320 319 317 318 322 326 330 331 331 327 331 331 330 329 329 327 328 328 326 325 323 323
288 287 296 297 298 297 293 289 294 288 290 285 288 293 302 305 304 306 307 310 310 311 315 320 318 322 324 328 328 328 329 325 328 330 329 328 327 326 326 327 327 327 327 326
292 286 294 297 298 298 295 298 288 290 281 281 288 290 292 297 300 303 303 303 305 305 306 314 319 322 325 328 324 324 326 323 325 329 328 326 326 326 327 327 326 324 325 325
297 291 290 294 293 292 294 292 293 292 290 283 283 288 298 296 298 298 299 301 299 298 299 305 311 323 325 322 321 323 322 323 323 324 326 324 324 325 326 325 325 324 325 324
295 293 287 289 296 298 296 294 293 287 286 290 289 289 298 299 298 297 299 297 296 296 296 298 302 306 317 318 319 320 322 320 321 323 323 323 323 323 324 323 324 325 323 323
289 289 284 286 291 296 293 294 295 294 292 287 285 288 298 300 301 300 297 296 294 293 293 294 295 297 300 303 309 312 319 320 321 321 321 321 322 323 322 322 322 323 322 321
292 286 286 283 286 291 290 292 295 293 287 287 289 291 296 300 300 301 298 296 292 290 290 291 292 293 295 297 298 300 303 309 315 315 313 313 316 321 321 322 323 323 323 320
291 284 286 289 291 291 289 289 292 291 291 287 289 290 294 299 302 301 298 295 291 289 288 288 289 290 292 293 294 295 297 299 302 303 302 302 303 304 305 306 311 315 311 310
290 283 287 283 291 291 287 291 291 291 290 290 291 291 300 303 305 301 296 294 290 289 287 287 288 289 289 290 291 292 293 294 297 297 297 298 299 300 300 301 303 300 299 299
286 285 283 279 290 288 282 288 290 290 292 292 289 295 301 299 301 298 294 292 290 288 287 287 288 287 287 288 289 290 292 295 294 294 295 297 298 298 299 299 297 295 293 293
286 285 284 279 287 277 288 293 293 290 293 296 296 297 298 293 290 290 292 290 287 288 287 286 286 286 287 288 289 290 290 290 292 292 293 295 297 297 298 297 294 293 291 290
290 285 281 280 283 284 287 291 291 290 291 296 294 296 296 292 290 285 287 287 286 285 286 285 287 287 287 287 288 287 287 289 288 288 289 293 294 295 295 294 293 293 292 290
289 289 282 282 279 277 288 294 296 295 287 294 295 295 295 294 289 283 285 285 284 285 285 286 285 286 286 287 288 286 286 285 285 287 289 290 291 292 291 292 292 292 292 290
283 284 281 282 282 286 293 295 297 283 285 294 294 291 288 286 283 282 283 283 284 285 285 285 286 286 286 287 286 284 285 284 285 287 288 288 289 289 290 291 292 291 291 290
284 282 283 284 281 277 294 295 289 289 294 293 291 287 283 282 282 282 282 283 284 285 286 287 285 286 288 289 288 286 285 285 285 286 286 286 287 288 289 290 290 289 290 289
283 286 285 286 285 289 290 289 289 292 290 290 288 286 284 282 281 282 282 282 283 285 286 287 286 286 287 288 288 286 286 287 287 287 286 285 285 286 286 286 287 287 288 287
290 292 287 288 284 285 287 288 288 288 286 286 287 286 285 282 282 281 281 281 281 282 284 286 285 284 283 286 287 287 288 288 286 285 284 285 285 285 285 284 283 282 284 284
288 290 286 284 285 287 286 288 288 287 286 286 287 286 284 283 282 282 281 280 280 282 283 284 283 283 283 284 285 286 287 287 285 285 284 283 282 281 279 279 280 280 280 280
286 282 282 282 286 285 283 286 287 286 286 287 285 284 283 282 280 281 280 281 280 280 281 280 280 280 280 281 281 282 285 286 285 283 284 284 284 283 281 279 277 278 279 279

GFSCGP_sfc_thetae_084.txt.gz
Theta_e
299 293 290 293 295 295 294 292 290 293 297 294 294 295 297 300 301 301 302 304 307 308 312 313 314 314 319 327 335 339 337 336 337 331 329 328 326 329 330 331 331 332 332 332
295 291 296 298 297 295 293 290 290 293 295 295 294 294 299 301 302 303 302 303 305 308 310 313 314 317 324 330 334 338 336 336 336 332 330 330 329 329 329 330 330 331 332 332
293 296 299 297 295 293 293 290 290 290 294 296 295 292 296 300 301 303 304 305 305 306 309 311 313 315 325 330 334 337 335 336 335 333 331 329 330 329 326 327 329 330 330 330
295 299 296 295 294 294 289 295 294 293 291 286 295 284 293 297 299 302 304 305 305 306 308 312 313 314 325 328 335 336 336 334 334 333 329 326 324 323 325 325 328 329 330 329
292 294 293 292 293 295 291 296 295 294 292 291 290 286 291 297 296 300 303 306 307 308 309 311 313 314 325 328 334 336 335 333 333 332 330 326 324 325 325 326 326 326 327 329
294 299 296 294 297 297 298 295 294 293 291 284 289 287 288 292 298 302 306 309 312 310 309 311 314 315 322 327 333 335 333 332 331 331 329 328 325 324 324 324 323 325 323 323
294 295 298 299 293 297 295 291 283 281 282 281 292 289 292 300 303 304 305 309 312 313 315 317 317 313 315 326 331 334 332 330 331 330 330 328 328 325 325 324 324 322 321 320
286 284 294 298 295 292 292 291 284 277 279 282 290 286 293 303 306 307 307 307 309 309 309 312 315 313 318 327 331 332 331 329 330 330 329 328 327 325 325 326 325 323 321 321
287 287 296 297 298 296 292 288 293 287 288 283 287 291 300 301 302 303 303 303 303 304 305 307 311 313 321 326 330 330 330 328 330 330 328 327 326 325 324 325 325 325 323 322
293 286 293 295 298 298 294 296 288 287 279 278 285 288 289 293 296 299 299 300 301 301 300 302 304 308 325 328 328 328 327 327 328 328 328 326 325 325 325 325 325 325 325 323
293 290 290 294 292 291 292 291 291 291 288 281 280 285 293 294 297 297 299 299 297 296 296 297 299 303 310 323 324 323 324 323 325 325 325 325 324 324 325 325 325 323 325 323
291 288 285 289 295 298 295 292 293 286 284 288 287 287 299 299 300 299 298 298 296 294 294 294 295 298 301 304 313 321 321 322 322 324 323 323 323 323 323 323 323 323 322 323
290 286 280 284 290 294 291 293 294 294 292 285 282 286 299 300 301 300 298 297 294 293 292 292 292 293 295 297 300 303 311 320 320 321 321 321 321 321 321 322 322 323 321 321
291 285 282 279 284 288 287 291 293 292 287 287 287 289 294 298 300 301 297 294 292 290 290 290 289 290 291 294 295 296 300 306 314 314 310 309 311 314 314 317 320 321 321 319
289 281 284 286 288 288 287 288 289 288 290 287 289 289 295 299 301 298 297 294 291 289 288 288 288 288 289 290 292 294 296 298 302 304 303 304 305 306 308 306 306 305 305 303
289 282 284 282 286 287 286 289 290 290 290 290 291 290 299 300 301 298 295 293 290 288 288 287 287 287 287 287 290 291 294 295 297 298 298 300 301 301 299 299 297 297 296 295
285 282 281 278 285 285 283 288 289 290 292 292 288 294 297 293 292 292 291 290 288 287 287 287 286 286 286 287 288 288 290 293 294 295 297 298 299 297 295 294 293 292 292 291
285 283 283 279 282 274 287 294 293 291 294 294 294 295 294 290 287 287 288 287 286 286 285 286 287 286 286 287 287 288 289 289 290 292 294 296 296 295 294 293 291 290 290 290
290 285 280 278 278 282 288 291 291 290 288 293 292 294 294 290 288 284 285 285 284 285 286 284 286 287 286 286 287 286 286 287 288 287 289 292 294 294 292 291 291 290 289 288
288 289 282 279 275 276 286 292 296 294 285 292 293 291 289 293 287 281 284 284 284 284 285 286 285 285 285 285 286 286 285 285 285 286 287 290 291 291 291 291 291 290 289 287
283 283 279 279 277 283 287 292 296 283 283 291 290 287 284 282 281 282 284 283 284 285 285 286 287 285 285 285 285 284 284 284 286 286 287 287 288 289 289 289 290 289 288 287
281 281 281 281 280 277 289 290 285 287 290 290 287 285 282 281 282 282 283 283 284 285 286 287 286 286 287 287 287 285 283 285 285 285 285 285 286 288 287 288 288 288 287 286
282 285 283 282 281 287 288 287 288 289 287 287 286 285 284 282 281 281 281 282 282 285 286 286 285 285 286 287 287 285 285 286 286 285 285 284 284 284 284 282 285 285 286 285
287 291 285 285 284 284 286 287 287 286 286 287 286 285 284 281 281 280 281 281 282 283 284 285 284 283 284 286 286 286 287 286 285 283 282 281 279 280 281 281 280 279 281 281
285 287 284 283 285 286 285 287 287 287 287 286 286 285 284 283 282 281 280 280 281 281 282 283 281 281 280 281 282 285 286 286 285 283 282 280 279 278 277 278 278 278 278 280
285 282 280 280 284 284 283 286 286 285 286 287 285 283 283 282 280 280 279 279 279 279 280 279 279 279 279 280 281 282 284 286 284 283 283 283 281 280 278 276 275 279 279 279

GFSCGP_sfc_thetae_087.txt.gz
Theta_e
294 286 283 286 289 290 290 288 287 289 293 291 290 290 292 296 297 297 297 299 300 301 304 308 309 310 308 307 333 335 333 334 331 329 326 325 324 329 326 326 328 328 328 329
291 286 292 294 293 292 290 287 286 289 292 292 290 289 292 296 297 298 299 300 300 301 303 308 308 307 307 315 334 334 333 333 330 329 327 323 323 327 323 324 326 330 327 327
288 292 296 294 293 291 290 287 287 287 291 292 289 288 291 296 298 300 301 302 303 301 301 305 307 307 309 326 333 332 332 332 329 328 327 325 323 322 321 323 324 328 329 328
290 296 294 293 292 292 287 293 292 290 288 283 290 281 290 294 295 298 303 303 301 302 303 305 307 307 317 331 333 332 332 331 328 327 325 324 322 320 320 322 325 325 326 328
289 291 290 290 291 294 289 294 291 290 287 286 287 284 287 293 292 295 303 307 303 302 301 303 304 307 318 329 332 331 331 331 329 327 325 322 319 319 319 321 322 323 325 326
291 295 292 291 294 294 295 293 291 290 286 280 286 285 286 290 293 301 305 306 305 306 307 309 311 313 313 327 331 331 330 330 328 326 324 323 320 319 319 319 320 320 322 324
290 291 294 295 289 293 291 287 279 277 277 277 289 286 289 298 301 302 302 303 303 304 303 304 305 307 310 314 328 329 328 327 327 325 324 323 322 319 319 320 320 321 319 318
281 280 289 295 291 289 288 287 280 275 276 280 288 283 290 296 302 303 303 303 302 300 301 301 302 303 306 313 326 328 326 326 326 325 324 325 322 321 321 322 322 320 320 319
284 284 294 296 296 294 289 285 291 284 285 280 284 287 297 299 299 300 300 299 297 297 297 298 301 301 305 319 325 327 326 326 326 326 326 324 322 321 320 321 321 321 321 321
287 282 292 294 296 294 291 293 281 284 278 277 283 286 287 292 294 298 297 296 295 295 294 296 297 299 303 308 318 321 325 325 326 327 325 323 322 321 323 324 323 320 321 321
287 286 285 290 289 288 288 287 288 288 286 279 278 283 292 293 296 297 296 295 293 292 293 293 294 296 300 303 306 309 321 322 325 325 324 322 322 323 324 324 323 323 322 320
289 286 279 282 289 292 291 290 289 282 282 284 284 284 297 298 299 297 295 294 292 292 292 292 292 293 294 297 299 303 308 320 321 322 322 321 322 323 323 322 321 323 322 322
286 281 276 278 285 290 287 290 289 290 289 284 281 284 298 299 299 296 292 291 290 290 290 290 290 290 291 294 295 297 300 312 320 321 320 320 320 321 320 321 321 322 321 320
290 283 279 274 279 284 282 286 288 287 283 284 284 287 294 297 296 294 291 290 289 289 289 289 288 289 289 290 291 294 296 300 309 311 311 310 313 313 312 313 315 317 317 311
286 278 281 282 283 284 283 284 286 285 286 284 288 288 294 295 294 293 292 291 289 288 287 287 287 287 288 288 290 291 294 296 301 304 305 305 307 306 304 303 302 301 301 300
285 277 281 278 282 283 282 284 286 287 289 290 289 288 296 297 296 292 291 289 287 286 286 286 287 286 286 287 288 289 290 293 297 298 299 300 299 298 298 296 296 295 294 293
280 277 279 275 282 282 278 284 286 289 291 290 285 291 294 289 288 288 288 287 285 285 285 285 285 286 286 286 287 287 289 291 292 295 296 296 296 294 293 293 293 291 290 289
280 279 279 275 279 270 282 291 291 290 290 291 292 290 289 286 285 285 286 285 284 284 284 285 285 286 286 287 287 287 288 289 289 290 293 294 294 292 292 291 289 289 288 287
286 282 278 275 273 280 285 287 286 287 286 290 288 289 289 286 284 282 284 284 283 285 285 284 286 286 285 285 287 287 286 287 287 286 288 291 292 291 290 289 288 288 287 285
286 284 278 279 274 271 283 287 289 289 282 288 287 285 284 289 285 279 283 284 284 284 285 285 285 285 285 284 285 285 285 285 285 285 286 288 289 290 289 288 287 286 285 284
279 280 278 278 274 280 285 286 290 280 280 287 285 283 281 279 280 282 284 284 284 285 285 286 287 285 285 285 285 283 283 283 285 285 285 286 286 286 287 288 287 286 284 283
280 279 279 280 276 275 286 286 281 286 287 286 284 282 280 281 281 281 281 281 284 284 286 286 285 286 288 287 286 283 282 284 285 285 284 284 284 284 285 285 285 285 284 283
280 284 280 280 279 285 286 284 286 287 286 285 284 283 282 280 279 280 280 280 281 284 284 285 284 284 285 286 286 283 284 285 283 281 280 280 281 281 281 281 282 284 284 282
284 287 283 283 282 282 285 286 286 287 285 284 284 283 280 277 278 277 278 279 278 281 282 282 281 280 280 283 284 285 285 284 282 280 279 279 279 279 279 279 279 279 280 279
282 284 281 282 283 283 284 286 287 286 285 284 284 283 282 280 279 279 278 278 278 279 279 280 279 279 279 280 281 283 285 285 282 280 279 278 278 277 277 278 277 278 279 278
283 280 278 277 283 282 283 285 285 284 285 284 282 281 281 280 278 278 277 277 277 277 278 277 277 277 278 279 280 281 282 283 283 282 281 279 278 277 276 275 275 279 279 280

GFSCGP_sfc_thetae_090.txt.gz
Theta_e
292 286 282 284 286 288 287 286 284 287 290 288 288 288 291 294 292 293 295 297 298 299 302 301 305 305 307 307 325 334 335 334 333 331 328 327 327 328 326 328 327 329 330 329
288 284 290 291 290 289 287 285 284 288 291 289 289 288 292 292 292 295 297 297 298 300 303 303 302 304 304 305 323 333 333 332 333 331 330 327 326 326 329 324 324 326 325 326
286 290 294 292 290 288 288 285 285 287 290 289 286 287 290 293 295 297 299 300 305 304 304 303 304 302 304 306 327 332 332 331 332 330 325 323 321 321 323 325 321 323 325 325
289 294 292 291 289 290 285 292 290 288 285 281 288 280 287 291 293 296 297 303 303 303 305 304 305 307 305 308 327 332 333 331 329 327 325 323 322 320 322 325 320 321 324 324
288 289 289 288 289 292 288 293 290 288 284 283 285 281 284 293 295 298 302 303 303 302 303 304 305 307 309 320 329 332 332 329 328 328 325 323 320 318 321 320 319 319 320 323
289 292 290 290 292 292 293 290 289 288 285 279 284 282 282 291 293 296 300 302 302 301 301 302 305 306 305 310 328 331 330 328 327 326 324 322 320 318 319 319 319 321 322 323
288 289 292 293 288 290 289 285 278 276 276 276 286 283 286 293 296 297 299 300 300 299 298 300 301 303 304 308 312 329 328 325 326 324 323 322 321 320 319 319 319 321 321 322
280 279 287 293 288 286 286 286 279 275 275 278 286 280 288 297 299 300 302 300 298 296 297 298 300 300 303 307 315 328 327 323 323 323 322 322 321 320 320 320 321 320 320 321
280 282 290 293 293 290 287 283 289 282 283 279 282 287 294 298 298 300 300 298 295 294 295 296 297 297 300 303 310 321 326 325 323 323 322 321 321 319 319 320 321 319 321 319
284 277 289 289 292 292 291 292 280 280 275 275 280 284 286 292 294 298 297 294 292 292 293 293 294 295 298 301 305 314 321 324 323 323 323 322 321 321 322 320 319 320 320 320
285 283 282 286 286 282 283 283 286 285 283 277 275 278 293 293 295 297 294 293 289 290 291 291 292 294 296 299 301 305 310 322 322 322 322 320 321 322 323 321 320 320 320 320
287 283 278 280 287 289 288 287 289 282 280 282 280 281 297 296 297 294 291 291 289 289 289 290 290 291 293 293 297 299 302 307 320 321 321 321 322 323 322 322 322 321 320 320
284 280 274 275 280 287 284 286 286 286 286 280 279 281 297 298 293 292 290 288 288 288 288 288 288 289 290 291 292 295 299 301 313 320 320 320 320 321 321 321 322 322 321 320
288 280 278 273 276 281 279 282 284 284 280 281 282 286 292 294 292 291 289 288 288 288 287 287 287 287 288 290 290 292 296 300 303 312 315 313 312 312 312 313 312 313 311 309
284 277 280 281 282 282 281 281 282 281 283 280 285 286 291 293 292 291 290 289 287 286 286 286 285 286 287 288 289 290 292 295 300 303 304 305 304 304 304 303 301 300 299 299
283 276 279 276 280 281 279 282 283 283 284 286 286 288 290 291 292 289 288 287 285 285 285 285 285 285 285 286 287 289 290 291 296 296 297 299 300 298 296 296 295 294 293 293
279 275 275 272 279 279 276 281 283 284 288 289 285 290 290 286 285 284 285 285 284 284 284 284 284 284 285 285 287 287 289 291 291 294 295 294 294 293 293 292 291 290 289 289
277 277 277 274 277 269 282 289 289 287 288 289 288 289 287 284 283 283 284 283 283 283 284 284 284 284 285 286 286 288 289 289 289 289 291 292 291 290 290 289 288 287 287 287
283 280 276 272 274 279 282 287 284 281 283 286 286 288 286 283 283 281 284 284 283 284 285 284 285 285 285 285 285 286 286 287 286 286 287 289 288 287 287 285 285 286 285 285
284 283 277 277 273 268 280 284 288 287 279 286 285 283 285 285 283 278 283 284 284 284 285 285 285 284 283 284 285 284 284 284 284 285 285 286 287 286 285 285 284 284 284 283
278 279 276 275 274 278 282 285 287 279 278 283 282 281 282 279 280 282 284 283 284 285 285 286 286 284 285 285 284 283 283 282 283 284 284 284 285 285 285 285 285 284 283 282
280 278 278 279 275 273 284 284 279 284 285 283 282 281 279 280 281 281 281 283 283 283 283 284 282 282 285 286 285 283 281 282 282 281 281 281 282 282 283 284 284 284 283 281
277 280 278 279 277 284 285 284 286 286 284 283 282 282 280 279 277 277 277 277 279 282 281 282 281 281 281 283 285 282 283 283 281 280 279 279 279 280 280 280 281 281 281 280
282 285 281 280 281 282 284 286 285 285 282 282 281 280 278 275 276 275 275 275 276 278 279 280 279 279 279 282 283 283 282 282 280 279 278 279 278 278 279 279 280 279 278 278
281 283 280 279 282 282 282 284 285 283 283 282 282 281 279 278 276 276 275 275 275 276 277 277 277 277 278 280 281 282 285 283 280 279 278 278 278 278 278 278 278 278 278 278
283 279 278 274 281 280 281 283 284 284 282 281 280 279 279 277 275 273 274 275 276 275 275 275 275 276 276 277 278 280 282 283 282 280 278 277 276 276 276 276 276 280 280 280

GFSCGP_sfc_thetae_093.txt.gz
Theta_e
290 284 282 284 286 286 286 284 282 284 288 286 287 288 290 292 290 290 293 294 295 296 302 306 302 302 303 301 302 319 333 335 335 332 331 330 329 329 330 330 331 330 331 330
287 284 289 290 288 286 285 283 282 286 289 287 285 287 291 291 291 291 293 295 301 303 304 306 307 308 301 303 305 317 331 334 334 333 332 330 332 330 330 330 330 331 328 328
285 289 293 290 288 286 285 283 284 284 288 288 286 285 288 291 293 302 302 303 303 302 301 303 305 306 307 305 306 323 329 333 334 333 327 323 324 325 325 326 328 327 326 326
288 293 291 289 288 288 283 290 289 287 284 280 286 278 287 288 296 299 300 300 300 301 302 302 303 304 305 306 309 323 330 332 333 331 327 324 325 324 326 328 328 324 324 324
286 288 287 287 288 290 287 291 289 288 284 283 283 279 283 292 292 295 297 300 299 300 300 299 303 303 304 306 308 322 330 331 332 329 328 325 323 323 321 322 324 321 322 324
288 291 289 289 291 291 292 290 288 286 284 277 282 280 279 288 291 295 298 301 300 299 298 300 301 302 302 305 309 322 328 329 330 328 326 325 321 319 320 320 321 319 321 323
287 288 291 292 287 290 289 284 277 276 276 276 284 281 282 292 296 297 298 300 298 298 297 297 297 297 299 301 305 317 329 328 327 327 324 323 320 320 319 320 319 319 320 321
281 280 288 292 289 286 285 284 278 274 275 277 284 278 284 296 299 301 302 298 297 295 295 295 295 296 297 300 303 310 329 326 326 325 323 322 321 320 320 320 319 320 321 322
279 282 288 291 289 289 286 282 287 282 281 278 280 284 293 297 297 300 297 295 292 292 293 293 293 294 296 297 300 304 323 324 325 324 322 321 321 320 319 319 321 321 321 321
283 277 287 287 291 289 285 289 279 280 276 274 278 280 281 290 293 297 293 291 290 291 291 291 291 292 295 296 299 302 310 323 323 323 322 321 320 320 319 319 318 318 317 318
285 281 280 283 282 280 281 283 284 286 283 277 274 276 290 291 294 292 291 290 289 289 288 289 290 291 293 296 296 299 304 319 322 322 321 320 319 319 319 318 317 317 317 318
285 281 277 278 285 286 284 285 286 279 278 280 280 278 293 292 292 291 289 289 289 288 288 288 289 289 291 292 295 296 298 305 314 322 320 319 320 320 319 318 317 318 317 316
282 278 273 273 279 284 282 283 284 283 283 278 277 279 293 294 292 290 288 288 288 287 287 287 287 287 288 290 292 294 295 299 304 317 320 319 320 320 321 321 320 320 318 318
287 280 277 272 275 280 278 280 282 281 273 276 278 280 288 291 292 290 288 288 287 286 286 286 285 286 287 288 289 291 292 296 300 303 311 315 318 318 317 316 316 315 313 310
283 277 279 279 280 279 278 278 279 278 279 276 279 281 287 289 288 288 288 288 286 285 285 285 284 284 285 286 287 289 291 293 297 298 298 299 305 308 306 304 303 302 301 300
281 276 278 276 278 277 277 280 280 280 281 281 282 281 291 290 289 286 286 285 284 284 284 284 284 284 285 285 286 288 289 291 294 293 293 294 295 296 295 295 295 294 294 294
278 275 274 272 278 278 274 279 282 281 283 284 279 286 289 286 283 282 283 283 283 283 283 283 284 284 285 285 286 286 288 290 290 291 290 290 290 290 290 290 290 290 290 291
277 276 274 272 276 268 279 286 285 285 286 288 289 287 287 283 282 283 283 282 282 283 283 283 283 284 284 285 285 286 286 287 287 287 288 289 288 286 287 287 286 287 287 287
281 278 271 269 271 277 280 283 281 281 281 285 286 285 283 283 283 280 283 283 283 284 284 284 284 284 284 284 285 285 284 284 285 284 285 286 287 286 285 284 284 285 285 285
282 282 277 276 267 267 276 283 286 286 278 283 283 282 285 284 282 278 283 284 284 284 284 284 284 285 284 284 284 283 282 282 281 283 283 285 285 285 285 284 284 284 284 283
278 278 274 274 273 276 280 283 286 277 276 282 281 281 282 279 280 282 284 283 283 283 283 283 282 282 284 284 283 280 279 279 281 282 283 283 283 284 284 284 284 283 283 282
278 276 276 278 275 273 283 283 277 282 283 282 281 280 279 280 280 279 279 280 280 278 280 280 280 281 283 283 282 280 279 280 281 281 280 280 281 282 283 282 282 282 281 281
277 279 277 277 276 283 284 282 284 285 283 282 281 281 279 277 275 275 275 275 276 277 278 279 279 279 281 282 281 279 280 280 279 279 279 279 279 279 280 280 280 280 280 279
282 284 280 280 280 281 283 283 284 283 281 281 281 279 278 274 274 273 273 273 273 275 276 277 277 277 278 280 282 281 281 281 279 278 278 279 279 278 279 279 279 278 278 278
280 282 280 279 281 281 282 283 282 282 282 281 281 280 277 275 274 275 275 274 273 273 274 275 275 275 276 278 279 281 283 281 279 278 278 277 277 277 278 278 278 278 279 279
282 279 277 274 281 280 280 283 284 281 280 280 279 277 277 276 273 272 273 274 274 272 273 273 273 273 274 275 276 278 281 282 280 278 277 277 276 276 276 277 278 281 281 281

GFSCGP_sfc_thetae_096.txt.gz
Theta_e
289 283 281 286 285 286 285 283 282 283 287 285 285 286 288 291 288 288 289 293 300 301 304 305 306 307 307 307 303 300 312 331 335 336 332 331 330 331 333 333 332 332 331 330
285 282 288 288 287 285 284 281 281 284 287 285 285 286 289 289 289 293 297 299 300 301 303 304 304 305 306 305 306 306 305 326 334 335 334 331 332 332 333 332 332 332 331 330
284 288 291 289 286 285 284 282 283 283 286 287 284 282 284 289 295 299 299 299 300 300 300 301 302 303 304 303 304 307 308 320 332 334 334 325 328 326 325 328 328 330 331 329
286 291 289 287 286 286 281 288 287 285 283 279 285 277 282 289 293 296 297 297 298 299 300 299 300 301 302 303 304 306 310 314 331 334 332 329 328 325 327 327 328 328 329 328
285 287 286 285 287 289 285 290 288 286 283 281 282 279 280 290 290 293 295 299 298 298 298 296 298 299 301 302 302 306 309 316 330 333 331 327 327 327 326 327 320 325 326 327
287 289 289 288 291 290 291 288 287 284 282 276 281 279 278 284 291 293 296 300 300 297 297 297 298 298 298 300 301 303 308 320 330 332 330 326 326 320 324 325 324 325 325 325
285 287 290 292 287 289 288 283 277 275 275 275 283 280 282 288 294 296 297 297 296 295 294 294 294 294 295 297 299 301 305 314 329 329 328 326 324 321 323 324 324 323 323 323
280 279 287 291 289 286 286 284 278 273 275 276 283 278 283 294 297 299 298 295 294 292 293 292 293 293 293 295 297 299 302 307 327 327 327 326 320 320 320 321 322 323 323 323
281 282 288 289 288 289 286 281 286 280 281 277 279 283 289 295 295 296 293 292 290 290 290 291 292 292 292 294 296 298 300 305 324 325 324 322 320 319 319 320 321 322 323 321
283 278 285 286 289 288 285 288 280 280 275 274 277 279 280 288 291 291 290 289 289 288 288 289 290 290 291 293 295 297 299 304 323 323 323 322 321 320 320 320 319 320 321 321
284 281 281 284 282 279 280 280 283 283 282 276 274 275 289 288 289 288 289 289 288 287 287 287 288 289 290 292 293 294 298 302 309 321 322 320 319 319 319 319 319 319 318 319
285 282 277 278 284 287 284 285 284 277 276 279 279 277 291 289 289 289 288 288 288 287 287 287 287 288 288 289 291 292 295 299 303 309 319 319 318 319 318 318 318 316 316 316
283 278 273 274 279 282 281 282 283 281 279 274 272 277 290 291 290 289 288 287 287 286 286 286 286 286 287 288 289 290 293 296 300 304 314 319 319 319 318 318 317 316 316 314
287 279 275 271 275 279 278 279 280 278 266 271 275 277 282 287 288 288 287 287 286 286 285 285 285 285 286 287 287 289 290 293 295 297 299 302 303 318 320 319 319 318 318 315
282 276 278 279 279 279 278 277 276 276 277 272 276 277 282 287 288 287 287 286 285 284 284 284 284 284 285 285 286 287 289 290 293 292 292 293 295 296 302 309 305 303 302 302
281 276 277 275 278 277 275 277 278 278 279 279 279 278 287 290 288 285 284 284 283 283 283 283 284 284 284 285 285 286 287 288 290 291 290 291 291 291 291 294 295 295 295 294
278 274 273 271 277 276 272 277 281 281 284 283 277 281 288 284 282 281 282 282 282 282 282 282 283 283 284 284 285 285 285 287 287 287 289 290 289 288 287 287 290 290 290 290
277 275 273 271 274 264 277 285 284 282 284 283 285 288 289 282 282 282 283 282 282 282 282 283 283 283 283 284 284 285 285 285 285 285 285 287 288 287 287 285 285 286 287 287
280 277 270 267 270 275 278 281 279 279 280 283 283 284 282 282 281 280 283 283 283 283 283 283 284 284 284 283 283 283 282 283 283 283 283 284 285 285 285 285 284 284 284 284
280 281 276 274 267 264 274 281 285 285 276 281 281 282 283 283 280 277 282 283 282 282 282 281 282 283 283 283 282 281 280 280 280 281 282 284 284 284 283 283 283 284 284 283
277 277 273 273 270 273 279 282 285 275 274 281 281 280 283 278 279 281 281 280 280 281 281 281 282 281 281 282 281 279 278 278 280 281 281 281 282 282 282 282 282 282 282 282
277 275 275 276 272 269 282 282 275 279 282 282 280 280 278 278 277 277 277 276 277 278 279 280 280 280 282 281 280 278 277 279 279 279 279 279 280 280 281 281 281 281 281 280
272 275 275 276 274 282 282 281 282 282 281 280 280 279 278 276 274 274 274 274 274 276 277 278 278 278 279 281 281 278 279 279 278 278 278 278 278 278 279 278 278 278 279 280
280 283 278 278 280 280 282 282 282 281 280 280 279 277 276 274 273 272 271 271 272 273 274 276 276 276 276 278 280 282 281 280 279 278 277 277 278 278 278 279 279 278 278 278
280 281 279 278 280 281 281 282 282 281 280 279 278 278 276 274 273 274 272 271 271 271 272 274 274 274 274 276 277 278 280 280 279 278 277 277 277 277 278 278 278 279 280 280
282 277 275 272 280 280 280 283 283 280 279 279 277 276 276 275 273 273 272 273 272 271 272 271 272 272 272 274 274 275 278 280 279 278 277 276 276 276 276 277 275 281 282 282

GFSCGP_sfc_thetae_099.txt.gz
Theta_e
292 288 285 288 290 290 289 287 286 289 291 288 289 290 293 296 295 296 296 304 305 306 308 309 310 310 311 312 312 313 313 316 316 336 335 332 330 333 335 336 335 335 334 332
288 286 290 291 289 288 288 286 285 288 290 289 291 290 294 295 295 296 303 303 304 305 306 307 307 308 308 308 310 310 312 314 314 327 335 335 332 333 336 336 334 335 333 331
286 290 292 289 287 286 286 285 286 287 290 292 289 288 290 293 299 303 304 303 304 304 303 304 304 305 306 306 307 307 309 311 314 318 334 335 334 334 331 333 332 333 334 331
290 293 290 289 288 289 285 290 290 288 287 284 290 282 288 292 295 300 301 302 304 303 303 303 302 302 303 304 304 304 306 310 314 319 329 331 327 325 331 333 332 332 330 329
289 289 289 288 289 291 288 292 289 289 286 286 286 284 287 291 293 297 300 303 302 302 301 300 300 300 301 300 300 302 304 306 312 319 326 333 329 332 335 334 330 330 332 329
290 293 292 291 292 292 293 290 290 288 287 281 286 285 284 289 293 296 300 302 300 299 298 298 299 298 297 298 298 299 301 303 308 320 327 332 330 331 331 330 329 331 329 324
287 288 292 293 289 291 291 287 280 279 279 278 285 283 287 291 296 298 299 298 297 296 295 295 295 294 294 295 296 298 299 301 306 311 330 331 330 331 331 330 329 328 326 323
282 280 288 291 290 288 287 287 281 275 277 280 285 281 287 296 301 299 297 296 295 294 293 293 293 293 292 293 294 295 298 299 304 308 330 330 328 328 331 332 328 328 327 327
283 282 290 289 289 290 287 285 289 283 283 280 283 286 292 297 297 296 294 293 292 291 292 292 292 292 291 292 293 294 296 298 303 309 329 329 325 324 325 331 331 330 328 327
284 279 286 287 291 288 289 290 284 285 276 275 280 283 285 290 291 292 292 292 291 291 291 291 291 291 291 292 292 293 295 298 302 308 326 324 324 325 324 325 324 325 325 323
286 283 281 285 283 280 282 283 286 286 284 279 277 281 291 290 291 290 290 291 290 290 290 290 290 290 290 290 291 292 293 296 301 303 320 323 323 321 321 322 324 324 322 322
285 283 278 279 285 287 287 285 285 279 278 281 280 281 293 292 291 291 290 290 290 290 289 289 289 289 288 288 289 289 292 293 298 300 308 320 321 322 322 321 322 323 320 320
285 280 274 276 282 284 281 283 283 282 281 276 277 280 293 291 289 289 288 288 289 288 288 289 288 287 287 287 287 288 290 291 295 297 298 301 302 317 321 321 320 320 319 319
288 281 277 274 277 281 278 280 281 280 277 276 278 280 284 286 288 288 288 288 287 287 286 287 286 286 286 286 287 287 288 289 291 294 294 294 296 298 305 320 321 320 320 320
285 278 280 280 281 281 280 279 279 277 278 275 277 278 282 285 288 288 287 287 285 284 284 285 284 285 285 285 285 286 287 287 289 290 291 292 293 293 293 299 299 316 311 308
283 278 279 277 280 280 277 279 279 279 279 279 281 281 288 290 289 286 284 284 283 283 283 284 284 284 284 284 284 285 285 286 288 287 288 291 291 291 289 290 292 294 297 296
280 278 275 272 278 277 273 278 279 281 284 283 279 284 289 285 284 283 283 283 282 282 283 283 283 283 283 283 284 284 284 285 285 286 286 287 289 289 290 288 288 287 288 290
279 278 277 273 275 267 279 285 285 281 284 283 283 286 289 285 283 283 284 283 282 283 282 283 283 283 283 284 283 284 284 284 283 283 284 285 286 287 288 287 286 285 285 286
283 280 275 272 272 276 279 281 279 279 279 281 280 284 282 281 282 281 283 283 282 282 282 282 283 282 283 283 283 283 282 283 282 282 282 283 284 283 284 285 285 285 284 284
282 282 278 275 270 269 276 281 284 284 276 281 280 280 281 282 280 278 281 282 281 281 282 282 283 282 282 282 282 281 281 280 280 281 282 283 283 282 282 282 283 284 284 283
277 277 275 275 274 276 280 282 284 275 275 281 280 279 283 277 278 279 280 279 280 281 281 282 282 281 282 282 281 279 279 278 280 281 281 282 283 282 282 282 283 282 282 282
278 276 276 276 273 271 282 281 276 279 282 281 279 279 277 277 277 277 276 276 277 278 279 280 280 280 281 283 282 280 279 280 280 280 281 280 281 282 283 281 282 283 283 281
276 278 277 277 276 282 282 281 282 282 280 280 279 278 277 276 274 275 274 275 275 277 278 280 279 280 280 281 281 280 281 281 281 280 279 281 281 281 282 282 282 282 283 282
281 283 279 279 280 281 282 282 282 281 279 279 279 278 277 274 274 273 273 273 274 275 276 278 278 278 277 279 280 280 282 282 281 280 280 280 280 280 282 282 282 282 283 282
281 282 280 278 280 281 281 282 281 280 280 279 279 278 277 275 275 275 274 274 274 274 275 276 276 276 276 278 279 280 281 283 280 280 280 280 280 280 279 280 281 282 283 283
282 279 279 277 281 281 280 282 283 280 279 279 277 276 277 276 274 274 274 274 274 273 273 273 273 273 274 276 276 277 280 282 281 280 279 279 279 279 279 279 279 280 282 282

GFSCGP_sfc_thetae_102.txt.gz
Theta_e
295 289 290 294 295 294 293 293 293 295 297 294 294 294 297 301 302 302 303 304 307 310 312 314 315 316 317 318 317 317 319 321 322 322 319 330 333 338 339 341 342 342 342 341
292 288 295 297 295 292 292 291 291 294 296 293 294 295 299 301 301 302 302 306 307 309 310 312 313 314 315 315 316 315 316 317 318 320 321 325 332 334 336 340 343 341 340 341
288 292 294 293 291 289 290 290 290 289 294 296 295 293 296 298 300 304 306 307 308 308 308 309 310 311 312 312 312 312 313 314 316 318 320 322 331 334 336 336 339 340 340 339
288 291 289 291 290 292 287 293 291 291 291 288 295 287 293 296 298 302 305 306 307 307 308 308 308 308 308 309 309 308 308 310 311 315 317 321 322 328 332 334 336 337 336 335
290 290 289 287 291 293 290 294 292 293 291 291 291 288 292 295 294 300 304 306 306 306 306 305 305 306 306 306 305 302 303 305 306 308 310 318 321 332 333 334 333 333 333 333
292 296 293 291 293 294 295 292 293 293 291 284 289 289 290 292 295 299 304 305 304 304 305 304 305 305 305 305 303 300 299 300 303 305 308 313 323 327 332 332 331 330 331 331
290 290 294 295 291 294 292 288 282 280 281 281 290 288 291 296 299 301 303 303 303 303 303 302 302 302 302 301 301 298 297 297 300 302 305 313 324 325 333 332 332 328 328 329
283 281 290 294 292 289 289 288 282 276 279 283 289 284 291 301 303 303 302 302 302 302 301 301 300 300 300 299 300 297 294 295 298 301 306 312 328 329 335 333 332 330 330 332
285 284 292 292 293 294 290 287 293 286 287 284 287 290 298 298 298 299 299 300 299 299 299 299 299 299 299 298 298 294 293 294 296 300 303 312 334 335 333 332 332 331 337 336
288 282 289 290 293 292 293 295 286 288 279 278 284 286 289 293 294 295 296 297 298 298 298 297 297 297 297 297 297 293 293 293 295 299 302 310 330 331 332 332 332 329 334 332
288 286 285 288 287 286 288 289 290 290 287 281 280 286 294 293 293 294 295 297 297 297 296 295 296 296 296 297 296 292 291 292 293 296 301 305 326 328 329 329 328 327 329 330
289 286 281 283 288 289 287 287 287 283 282 285 285 285 296 295 294 294 294 295 295 295 294 295 295 294 295 295 293 290 290 290 291 294 298 302 304 314 323 323 324 326 325 328
287 283 279 280 285 287 284 286 286 285 285 281 280 283 296 294 293 293 292 293 294 293 293 293 294 293 293 293 291 288 288 288 289 292 295 297 297 300 303 319 323 324 326 326
289 284 281 278 280 284 281 283 284 283 281 281 282 283 289 290 289 292 293 292 292 291 290 291 291 292 292 292 291 287 286 287 287 289 292 292 295 296 297 302 312 321 323 323
288 280 281 282 282 282 282 282 282 281 281 278 281 281 285 289 292 293 292 291 289 287 287 288 289 289 290 289 289 289 286 286 288 287 287 290 292 293 293 293 295 300 309 319
286 280 281 279 282 282 280 282 282 282 282 282 282 283 292 293 293 289 289 288 287 286 286 287 287 287 288 287 286 286 287 286 286 286 286 288 288 291 292 291 290 290 291 294
282 282 278 275 279 279 276 281 282 283 284 285 282 287 290 289 288 287 287 285 285 284 284 284 285 286 286 286 286 286 286 287 285 284 285 285 286 287 288 289 289 287 287 288
282 281 280 277 278 271 282 287 286 283 286 286 285 286 286 285 285 285 285 284 284 283 283 283 284 285 285 285 285 286 286 285 285 284 283 284 284 284 285 287 286 286 286 285
286 283 279 277 277 279 280 282 281 280 280 283 282 284 283 284 285 282 284 283 282 282 284 283 284 285 284 284 285 285 284 285 284 283 284 284 283 283 284 283 284 285 285 284
285 286 283 279 274 272 281 284 287 284 277 282 282 282 284 285 283 280 282 282 282 283 283 284 284 284 284 283 284 284 283 282 282 282 283 284 285 283 283 284 283 283 283 282
280 280 278 278 277 279 280 285 286 276 277 282 281 281 283 280 281 280 281 281 282 283 283 284 284 283 283 285 284 282 282 281 282 284 284 284 284 284 284 285 285 284 284 282
280 279 279 280 277 273 285 285 280 280 283 282 281 280 279 279 279 279 279 278 280 281 282 283 283 282 284 284 285 283 281 283 284 283 283 283 284 285 285 285 285 285 285 284
279 281 281 280 279 283 284 282 283 284 283 282 280 280 279 278 276 277 277 277 278 280 281 283 283 283 283 283 283 282 284 285 285 284 283 283 284 284 285 285 284 286 285 285
283 287 283 282 282 283 283 283 283 283 281 281 281 280 279 276 276 276 277 277 278 278 279 281 282 281 281 282 283 283 285 286 285 284 283 283 283 284 283 285 285 282 284 284
286 287 283 281 282 283 283 283 283 281 282 280 280 280 279 278 278 278 278 278 278 278 278 279 279 279 279 281 281 283 284 285 284 283 283 284 283 283 283 281 281 282 282 282
287 284 282 281 285 284 282 283 284 281 280 280 280 279 280 279 278 278 277 278 278 276 277 276 277 277 278 280 279 281 283 283 283 282 282 282 283 283 283 283 281 280 280 280

GFSCGP_sfc_thetae_105.txt.gz
Theta_e
301 295 293 298 300 299 298 296 297 300 304 300 298 299 301 304 303 303 305 306 307 309 313 314 316 318 319 319 319 319 320 321 322 321 322 323 321 331 338 340 344 348 346 348
295 291 298 300 298 296 296 294 294 298 301 299 298 297 300 302 302 304 305 306 307 310 311 312 314 315 316 316 317 317 317 318 318 319 320 322 324 326 332 339 342 345 343 344
294 296 298 296 294 291 292 291 292 291 296 299 296 294 297 302 304 305 305 308 310 309 310 310 312 313 314 313 313 313 313 314 316 318 318 320 323 325 327 337 338 340 344 344
295 299 296 293 291 292 286 294 293 293 292 287 297 287 296 300 299 301 305 307 309 309 309 310 310 310 311 312 313 312 312 311 313 315 314 314 316 319 322 330 335 338 342 340
293 293 293 291 292 293 290 294 292 293 289 291 292 290 294 298 296 299 304 307 309 308 308 308 309 309 310 311 310 310 309 309 310 310 310 308 311 318 324 327 335 338 340 339
294 299 296 294 294 293 294 292 291 293 291 283 289 290 292 294 297 300 304 307 307 307 308 308 309 308 308 309 309 308 307 306 306 304 304 304 306 311 319 325 331 336 339 337
292 292 295 296 292 293 291 287 280 279 281 282 291 289 291 296 300 302 304 305 306 306 306 305 305 305 305 305 306 304 302 301 302 299 300 302 305 308 314 322 328 335 336 332
287 285 292 295 291 290 290 288 282 276 277 281 289 284 291 301 305 305 305 305 305 304 304 304 304 303 303 303 303 300 299 299 298 297 298 301 304 308 315 322 329 332 334 334
287 287 295 295 295 294 290 287 292 286 288 284 286 291 298 300 300 302 302 302 302 302 303 302 302 302 302 301 300 298 298 298 296 295 296 299 303 308 321 329 334 335 337 334
290 285 292 294 295 295 292 295 285 287 279 278 285 286 289 294 296 299 298 298 299 300 300 301 301 301 301 301 299 298 298 296 294 294 295 298 301 306 324 332 333 334 336 335
292 289 287 291 289 287 290 290 290 289 286 281 280 285 296 295 296 296 297 297 297 298 298 299 300 300 300 300 299 297 295 294 293 293 294 296 299 303 310 328 331 333 335 334
294 290 285 287 291 292 291 289 289 284 282 285 285 285 297 298 297 295 295 295 297 297 297 298 299 299 298 297 297 296 293 293 292 291 292 294 296 298 302 307 319 331 332 332
292 287 282 283 287 290 288 289 290 289 288 283 281 283 298 297 296 295 293 296 296 296 295 296 297 296 295 295 295 294 291 290 291 290 290 291 292 295 296 298 303 323 328 327
291 288 285 280 283 288 284 286 288 286 283 283 283 285 291 290 290 294 297 296 295 294 293 293 294 294 294 293 293 292 292 289 289 289 288 288 290 292 294 295 297 298 306 324
290 283 285 284 285 285 285 285 285 283 284 280 283 283 286 291 293 294 294 294 292 290 290 290 290 290 291 291 290 291 290 290 287 286 286 286 287 290 292 293 292 294 293 295
288 283 284 282 284 284 281 284 284 284 284 284 284 283 292 294 294 291 290 290 288 287 287 287 288 288 288 288 288 289 288 289 288 285 285 286 287 287 288 289 290 290 290 289
286 285 281 278 281 281 278 282 284 285 286 286 282 288 290 289 286 286 287 287 285 285 285 285 285 286 286 286 287 287 288 288 287 285 285 285 285 285 285 287 287 287 288 288
284 283 282 280 280 273 284 289 287 286 287 289 288 288 287 285 285 285 286 285 284 284 284 284 285 286 286 287 287 288 288 286 285 285 285 285 285 284 285 284 284 285 285 285
287 285 282 279 278 282 283 285 283 281 283 284 284 286 286 286 285 282 284 284 283 284 284 284 285 285 286 285 286 286 285 285 284 284 284 285 285 285 285 284 283 283 282 282
286 288 284 281 277 274 282 286 289 287 280 284 284 284 284 286 282 279 283 284 283 284 284 285 285 284 285 285 285 284 284 283 283 284 284 285 286 285 285 285 285 285 284 281
282 283 281 281 279 280 284 287 289 277 278 283 282 282 284 283 282 282 282 282 283 284 284 285 285 284 284 286 286 284 284 283 284 285 285 285 285 286 286 286 285 285 285 285
282 281 280 282 279 276 287 287 280 281 284 283 282 282 281 281 281 280 280 280 281 282 284 285 284 284 285 285 286 285 284 285 286 286 285 284 284 285 286 285 286 286 285 285
282 284 284 282 281 283 286 283 284 285 284 283 282 282 281 280 279 279 279 279 280 281 283 284 283 283 284 284 284 284 286 288 288 287 285 285 285 284 285 284 283 283 285 284
286 289 284 283 283 283 283 285 285 285 283 283 283 282 281 278 278 278 279 279 279 280 281 283 282 282 281 283 284 284 285 287 286 285 285 286 285 284 283 283 283 281 280 282
289 288 284 281 282 284 283 284 284 283 283 282 282 282 281 280 280 280 279 279 279 279 280 280 280 281 281 282 282 283 284 285 284 284 284 285 285 285 283 281 280 280 280 280
290 286 283 284 287 286 283 284 284 283 282 282 282 281 281 281 279 280 279 280 279 278 279 279 278 279 279 279 279 281 283 284 283 283 283 282 283 284 283 282 281 280 279 279

GFSCGP_sfc_thetae_108.txt.gz
Theta_e
302 296 292 295 297 298 297 295 294 298 302 300 300 299 302 305 305 304 304 305 306 308 313 315 317 318 317 318 317 317 317 318 318 318 318 319 320 323 324 331 337 341 342 342
296 292 297 298 297 296 296 294 293 297 300 299 297 295 298 303 303 304 304 304 305 308 311 312 314 315 316 315 314 314 313 314 314 315 316 317 317 318 321 324 326 335 338 339
293 296 299 297 295 293 293 292 292 292 296 297 295 292 296 301 303 304 305 305 307 309 309 310 311 312 314 312 312 311 311 311 312 313 313 314 315 316 318 320 321 324 336 338
295 299 297 295 294 294 289 296 294 292 290 285 294 284 292 297 299 301 303 305 308 309 309 309 309 309 311 310 311 310 310 309 310 310 308 308 308 308 312 315 320 324 336 336
294 295 294 292 293 296 291 295 293 292 289 288 288 285 290 296 295 298 302 306 308 307 308 307 307 307 308 308 308 308 307 306 306 306 305 303 302 306 309 313 315 320 324 335
296 301 297 296 297 297 296 291 291 291 288 280 287 285 286 292 296 299 303 305 306 306 306 306 306 306 305 306 306 304 303 302 303 303 301 299 299 301 303 306 310 314 322 329
294 294 298 298 293 295 292 287 280 279 280 279 289 286 288 296 300 301 303 304 305 305 304 303 302 302 303 303 303 301 300 300 301 301 298 297 298 299 300 303 306 310 316 324
286 285 293 297 293 291 289 287 281 275 278 281 289 283 288 300 303 304 304 303 303 302 302 301 301 301 301 301 301 299 298 298 299 298 297 296 297 299 301 304 307 309 315 322
287 288 297 297 297 295 289 285 291 284 284 281 285 289 295 300 300 301 301 300 299 299 299 299 300 301 300 300 299 298 296 295 296 296 295 295 297 299 300 303 307 312 317 322
292 285 293 296 296 295 293 295 284 284 277 277 284 286 287 294 295 297 296 296 296 297 297 298 299 299 299 299 298 298 296 293 294 294 293 294 295 298 300 303 306 316 321 327
294 290 288 292 290 288 290 288 289 288 286 280 279 283 293 291 294 294 295 295 296 296 296 296 298 298 297 297 296 296 294 292 291 292 292 293 293 295 297 299 301 304 309 327
295 290 285 287 293 294 293 289 289 284 282 285 284 283 295 293 295 295 295 295 296 296 295 295 296 296 295 294 293 293 292 291 290 290 291 291 291 293 294 295 298 302 302 311
293 288 281 283 288 291 288 290 290 289 288 282 279 281 295 295 294 295 294 295 295 294 293 293 293 292 292 292 292 292 291 290 289 288 289 289 289 290 291 293 294 297 298 302
293 288 285 281 283 288 285 287 289 287 282 282 283 284 290 290 291 294 294 294 293 291 291 290 290 290 290 290 290 290 290 290 289 287 287 287 287 288 289 291 292 294 295 296
291 284 287 287 286 286 286 285 286 284 285 282 283 283 287 291 292 292 292 292 290 289 288 288 287 287 287 287 288 289 289 289 288 287 286 286 287 287 287 288 288 290 291 292
291 283 286 283 286 285 282 284 285 285 285 284 284 283 291 291 291 289 289 288 287 286 286 286 286 286 286 286 287 288 288 287 287 286 286 286 286 286 286 285 285 286 287 288
287 285 282 278 284 282 278 282 283 285 286 286 281 286 289 286 285 284 286 285 284 284 283 283 284 284 284 285 287 286 287 287 286 285 286 286 286 285 285 285 284 283 283 285
286 285 283 279 280 272 284 289 288 285 287 287 287 287 287 285 284 284 284 283 282 282 283 283 284 284 285 286 286 286 286 285 285 284 285 285 285 285 285 285 284 283 282 281
288 285 280 277 277 282 284 285 283 281 282 285 284 286 287 285 283 281 283 283 282 283 284 283 284 285 286 285 286 285 284 284 284 284 284 285 285 285 285 285 284 284 283 281
286 287 284 281 276 274 282 287 290 287 278 283 283 282 284 286 280 277 281 283 283 284 284 284 284 285 285 285 286 284 284 283 283 283 283 284 285 284 284 285 284 285 285 284
281 283 280 280 279 279 285 288 289 277 277 282 281 281 285 280 280 280 281 281 283 284 284 285 285 284 284 285 285 284 284 283 284 285 284 284 284 284 283 284 284 285 285 284
281 279 279 282 279 276 287 287 282 282 284 282 281 282 280 280 279 279 280 280 281 283 284 284 283 283 284 285 285 284 284 285 286 285 285 283 282 283 283 281 282 282 283 282
282 284 283 280 279 283 285 283 285 287 284 282 281 281 281 279 278 279 278 279 280 281 282 283 283 282 282 283 283 282 284 286 285 285 285 285 283 282 282 280 279 279 280 280
287 290 283 283 282 282 283 284 285 285 283 283 283 282 281 278 279 278 279 279 279 280 280 282 281 280 279 281 282 282 284 285 284 283 283 284 284 282 281 281 279 278 277 277
288 289 284 281 283 283 283 284 283 283 283 282 283 282 280 280 280 279 279 279 279 279 280 280 279 278 278 278 280 281 283 283 283 283 282 282 282 282 281 279 278 278 277 277
290 286 284 284 286 286 283 284 284 282 281 282 282 281 282 281 279 280 279 279 278 278 278 278 277 277 277 277 277 279 281 282 282 280 281 281 281 281 281 281 279 280 280 280

GFSCGP_sfc_thetae_111.txt.gz
Theta_e
299 291 287 291 294 294 292 291 289 293 297 296 295 295 295 299 301 301 299 299 299 306 309 311 310 310 310 309 309 309 309 309 309 309 309 310 311 313 314 316 319 320 333 338
292 288 294 296 295 293 291 289 289 293 296 295 293 291 295 298 299 301 302 299 300 307 308 308 308 307 307 306 306 306 306 306 306 308 308 308 309 311 313 315 317 318 320 324
289 293 297 295 292 291 291 289 289 288 292 294 291 289 292 297 300 303 304 302 303 306 305 305 306 305 305 304 304 304 304 304 304 305 305 304 305 306 307 309 311 313 316 319
292 297 295 293 292 292 287 293 292 290 288 283 290 281 289 293 295 299 303 301 304 304 304 304 303 302 302 302 303 302 302 301 302 302 301 299 298 298 301 303 307 309 311 314
291 293 292 291 292 293 290 293 291 290 286 287 286 283 286 292 292 296 300 302 303 302 301 300 300 301 301 301 299 300 300 300 300 300 299 297 296 297 300 301 302 305 307 311
294 297 296 293 296 294 295 291 290 288 287 279 284 284 283 287 292 296 301 302 301 299 300 300 301 301 299 298 297 297 298 298 299 298 297 296 295 296 296 298 299 302 304 307
291 292 295 298 291 293 290 285 278 275 278 276 287 285 285 292 297 300 301 300 299 299 298 298 298 297 298 296 296 297 295 294 295 296 296 295 294 295 295 297 299 301 303 306
284 281 292 296 292 288 287 285 278 273 274 280 287 281 287 299 301 300 299 298 298 297 298 297 297 296 295 296 295 293 293 291 292 294 294 294 294 295 296 298 300 301 303 307
285 285 295 296 296 293 289 283 289 282 282 277 281 288 295 293 297 297 296 296 294 295 296 296 296 295 295 294 294 293 292 291 290 292 292 293 294 294 294 296 299 301 305 308
291 283 293 295 296 294 291 292 282 283 275 275 281 284 281 287 288 292 292 292 293 294 294 295 294 293 294 293 293 291 291 292 290 290 290 292 292 293 293 295 297 298 301 304
293 288 287 292 290 287 288 287 288 287 285 278 277 282 287 285 290 290 291 292 291 292 292 292 292 292 292 291 291 291 290 290 289 289 289 290 290 291 292 293 294 295 298 301
294 289 283 286 293 295 292 288 288 281 280 283 282 282 293 291 292 293 292 291 291 291 290 290 290 290 289 289 289 290 290 289 289 289 289 289 289 290 290 291 292 294 295 297
293 285 280 282 287 290 287 289 291 289 287 281 277 281 294 295 293 292 289 289 289 289 288 287 287 287 287 288 288 289 289 288 288 288 288 288 288 288 288 288 289 291 291 293
294 288 283 278 282 286 283 286 289 287 278 280 280 285 288 290 289 290 289 288 287 287 287 286 285 286 286 287 287 288 287 288 287 287 287 286 287 288 287 287 287 287 289 289
290 282 286 287 288 286 285 285 286 285 284 279 282 283 286 287 286 287 288 287 286 285 285 285 284 284 285 285 286 287 286 286 287 286 286 286 287 288 287 286 285 285 285 286
290 282 285 282 286 285 282 284 283 284 284 284 283 282 287 287 287 285 285 285 283 283 283 283 284 283 284 284 285 285 285 285 286 285 285 286 286 287 286 286 284 283 283 283
284 282 281 277 284 283 276 282 284 285 285 286 279 284 285 283 282 282 283 283 282 282 282 282 283 283 283 283 285 284 285 286 285 285 285 286 286 286 286 286 285 283 282 282
284 282 281 278 278 271 282 287 287 284 283 285 285 284 283 281 281 282 282 281 281 282 280 281 282 283 283 285 285 285 285 285 284 284 284 285 284 284 285 285 285 285 283 282
288 283 278 275 276 280 282 285 281 278 279 282 282 284 282 281 280 279 282 282 282 281 283 280 283 284 285 285 286 286 284 284 284 282 283 283 283 282 282 282 284 284 283 282
286 286 279 278 273 270 278 286 288 286 273 281 280 280 283 281 276 275 281 282 281 283 282 283 284 284 284 284 285 285 284 284 283 283 282 283 283 281 280 281 281 283 283 282
279 279 278 277 274 278 285 288 290 272 273 281 282 280 281 276 276 279 281 279 280 283 283 284 284 282 283 284 284 283 284 283 284 285 283 282 282 281 280 280 280 280 280 280
278 277 276 277 274 272 284 285 279 278 282 281 281 279 277 278 278 278 278 277 280 282 283 283 282 281 282 282 282 281 281 283 284 284 283 281 281 281 280 278 278 278 278 278
275 278 277 278 276 282 284 282 285 285 281 281 281 281 280 278 277 276 277 278 279 280 282 281 279 279 279 280 280 279 281 283 282 282 282 281 280 280 280 278 277 276 276 276
285 288 278 279 280 281 282 284 285 284 282 282 282 281 279 277 276 276 277 277 278 278 278 278 278 276 276 278 279 280 281 282 282 280 280 281 281 279 279 278 277 276 275 275
284 286 281 280 281 282 283 283 283 282 282 281 280 279 278 278 277 277 277 276 275 275 276 277 276 275 274 276 276 278 279 281 280 280 279 279 280 279 278 278 277 277 278 278
287 281 277 278 282 282 280 283 283 281 281 282 280 280 280 279 278 278 276 276 276 275 275 274 274 273 273 274 274 275 277 279 279 278 279 278 278 278 279 278 276 281 280 280

GFSCGP_sfc_thetae_114.txt.gz
Theta_e
297 290 286 289 291 292 290 288 287 290 293 292 291 292 294 297 297 297 298 301 302 305 307 307 307 306 306 305 305 305 304 304 304 304 304 305 304 306 308 310 313 315 317 319
291 288 294 295 293 292 291 288 287 291 293 292 289 290 294 296 296 297 297 300 305 305 305 305 304 303 303 302 302 301 301 301 301 302 302 302 302 304 305 308 308 310 311 313
289 291 296 294 292 290 289 287 287 287 290 291 289 287 290 294 296 298 299 300 306 305 303 302 301 300 300 299 299 299 299 299 300 300 300 299 299 300 301 301 302 305 306 308
290 295 293 292 290 291 286 292 291 289 286 281 289 280 287 290 292 295 297 300 302 301 301 300 299 297 297 297 298 298 299 298 299 298 297 295 294 293 297 298 300 301 304 305
289 290 290 289 291 292 289 292 290 289 284 283 285 280 285 291 289 292 298 299 299 300 299 297 297 296 296 296 295 296 295 295 296 296 295 294 293 294 295 298 299 300 302 304
292 296 294 292 294 293 294 290 288 287 284 275 282 282 280 285 291 295 299 298 298 298 297 297 297 297 295 295 294 294 293 291 293 294 293 295 293 293 294 295 297 299 302 303
290 291 294 296 290 292 289 284 279 273 276 275 285 282 283 293 295 298 294 294 295 296 295 294 293 293 293 293 292 293 292 290 290 291 291 293 293 294 294 294 296 296 298 300
283 281 290 295 292 288 286 285 278 272 273 276 285 277 285 292 291 294 295 295 295 294 294 293 292 292 292 292 291 290 290 290 290 290 290 292 292 293 293 293 294 295 298 300
284 284 293 295 295 292 287 281 287 282 281 274 279 284 290 289 288 288 288 290 291 292 292 291 292 291 291 291 290 289 290 290 289 289 289 290 291 291 292 292 294 295 296 298
290 284 291 294 295 294 289 290 282 281 274 273 279 280 280 285 285 287 286 286 286 290 290 290 290 289 289 290 290 290 290 289 289 289 289 290 290 291 291 292 292 293 294 295
291 288 286 293 289 287 287 286 287 285 281 276 275 278 287 286 289 287 287 288 289 288 288 288 288 289 289 289 289 288 288 288 287 288 288 288 288 289 290 290 290 290 292 293
293 289 283 285 293 294 292 288 288 279 277 280 279 281 291 291 293 290 289 288 288 287 287 286 286 287 287 287 288 287 286 286 287 288 288 287 288 288 288 288 288 289 289 291
292 286 281 282 287 289 286 289 289 288 286 280 275 279 293 293 291 289 287 287 287 286 285 285 285 285 286 286 287 286 285 285 287 288 287 287 287 287 286 286 287 287 287 288
295 288 284 279 282 285 283 286 289 287 279 278 279 283 288 287 286 286 285 285 284 284 285 284 284 284 285 285 285 285 285 286 286 286 286 286 286 287 286 286 286 285 286 285
288 280 284 286 288 287 286 283 286 286 284 279 281 283 286 285 284 284 285 285 283 282 283 283 282 282 283 284 283 284 284 286 285 285 285 285 286 287 287 286 286 285 285 285
288 280 283 282 287 285 281 283 283 283 284 284 284 282 287 286 285 283 283 283 281 281 282 282 282 282 282 283 283 283 283 284 284 284 284 284 285 285 286 286 285 284 284 284
284 282 281 279 284 284 278 280 284 284 284 285 279 283 284 281 281 281 282 282 281 280 281 281 282 282 283 283 284 283 284 284 283 283 283 284 283 283 283 284 284 283 282 281
282 282 281 278 281 273 281 288 288 282 282 285 284 283 283 281 280 281 282 281 281 280 280 281 282 283 284 285 285 285 284 284 282 282 281 282 282 281 282 282 282 281 282 281
287 283 279 275 276 279 282 284 282 280 278 282 283 281 280 280 280 279 282 282 280 281 281 282 283 283 283 283 285 285 284 284 283 281 281 281 280 279 279 279 279 280 280 280
288 286 280 277 274 270 277 286 288 284 272 280 281 283 280 279 274 275 281 282 281 280 283 282 280 278 279 281 283 284 284 283 283 282 281 281 281 279 277 277 278 278 278 277
279 279 277 277 274 277 284 287 288 272 274 280 279 277 280 279 274 278 280 280 281 283 282 281 280 279 279 282 282 280 281 280 282 283 282 280 280 279 278 277 277 277 277 277
278 277 277 278 273 271 283 285 279 276 280 279 276 276 276 277 278 277 277 277 278 280 280 279 278 278 280 280 280 279 279 280 281 281 281 280 279 280 279 277 277 276 276 275
275 277 276 277 274 280 283 280 282 282 279 280 277 277 276 275 276 275 274 271 275 278 278 278 277 277 277 278 278 277 279 282 281 280 279 279 279 278 278 277 276 276 276 276
284 285 276 277 280 280 282 284 284 283 280 282 281 280 278 275 272 273 272 273 274 275 275 276 276 275 275 276 277 278 279 281 280 279 279 279 279 278 278 278 278 276 275 275
284 284 280 279 280 281 282 282 283 282 282 281 280 278 276 275 274 275 275 274 272 272 274 275 274 273 273 275 275 276 277 279 279 279 279 278 279 278 277 278 278 277 276 277
285 280 277 275 282 280 280 282 283 281 280 278 278 277 278 277 276 276 274 275 274 273 273 272 272 271 272 273 273 273 276 278 278 277 278 277 277 277 277 277 276 280 278 278

GFSCGP_sfc_thetae_117.txt.gz
Theta_e
294 288 286 290 290 290 288 286 285 287 292 290 290 290 292 294 294 295 296 296 297 302 303 304 303 302 301 301 300 300 300 300 301 300 299 300 298 301 302 305 305 306 309 310
291 287 293 293 291 290 289 287 286 289 292 290 288 289 293 293 293 295 296 294 300 301 301 301 300 298 298 297 298 298 298 298 298 298 298 298 297 299 300 301 301 304 303 305
289 292 296 293 291 289 289 287 287 286 289 290 288 286 288 293 294 295 296 297 302 301 299 298 297 296 296 295 296 296 296 296 296 297 296 296 297 296 297 296 298 300 302 303
290 295 292 290 289 290 285 290 289 288 285 279 287 278 287 288 292 296 298 297 298 297 297 296 295 295 295 294 294 293 293 294 295 295 294 293 292 292 293 294 297 299 301 303
288 290 289 288 290 291 287 292 289 288 283 281 283 279 282 289 290 294 295 295 295 296 296 295 294 294 294 294 293 292 291 291 292 292 293 293 293 294 296 296 296 297 301 302
289 293 292 290 292 293 293 289 287 286 282 274 281 280 278 285 287 291 296 295 295 294 294 294 295 294 292 292 292 292 291 290 291 291 292 292 292 292 293 293 294 295 297 299
288 290 293 295 290 291 288 288 281 275 275 275 284 280 283 287 288 291 290 291 291 291 291 291 291 291 291 290 290 291 290 289 289 289 290 292 292 292 292 292 292 293 295 297
283 281 290 295 292 288 286 285 279 273 273 275 283 275 283 289 290 290 290 290 289 288 289 289 289 289 290 289 289 289 289 288 289 289 290 290 291 291 292 292 292 293 294 295
283 284 291 294 293 292 286 281 286 281 281 275 278 283 288 289 288 288 288 288 287 287 287 286 287 288 288 289 289 288 288 288 288 289 289 290 290 290 290 291 292 291 292 293
289 282 290 292 294 292 289 290 280 281 274 273 277 279 277 284 285 288 287 286 286 287 287 287 287 287 288 289 289 288 287 287 288 288 289 289 289 290 290 290 289 289 290 291
290 287 285 291 288 286 287 284 285 283 279 274 274 275 283 286 288 287 287 287 286 286 285 285 286 287 287 288 288 286 286 286 286 288 288 288 288 289 288 288 287 287 288 289
292 288 284 286 290 293 291 288 286 276 276 281 274 275 291 290 291 289 289 287 286 286 285 285 285 286 286 286 285 284 285 285 286 288 288 288 288 288 287 286 286 287 286 287
291 286 279 282 285 290 287 289 289 287 284 280 275 278 292 292 291 289 286 285 285 285 284 284 284 284 284 284 284 284 284 284 286 287 287 287 287 287 286 286 286 286 286 286
295 287 283 278 280 285 284 287 289 287 280 280 280 283 288 289 285 284 283 283 282 283 283 283 282 283 283 284 283 284 284 285 285 286 285 285 285 285 286 286 285 284 284 284
290 282 284 286 286 286 285 286 287 285 285 280 281 282 287 286 284 284 283 283 282 282 282 282 281 282 283 283 283 284 284 284 285 284 284 284 284 284 285 284 284 283 283 284
286 280 281 281 286 287 283 285 283 286 287 286 284 284 288 286 285 283 282 282 281 280 281 281 281 282 282 283 283 284 284 283 284 283 283 283 283 282 282 283 282 282 281 281
284 282 281 279 284 285 280 282 283 283 283 284 280 283 285 283 283 282 281 281 279 280 280 280 281 282 283 283 284 283 284 283 282 281 281 280 280 279 279 280 280 279 280 280
282 282 282 278 280 274 280 287 287 283 282 284 283 284 284 281 281 281 280 281 279 279 280 280 281 281 282 283 285 285 285 283 282 281 281 280 279 278 277 277 277 277 277 277
286 282 279 274 276 279 281 283 281 281 279 282 282 281 280 280 279 278 282 281 279 277 278 279 281 281 279 280 282 285 284 284 282 280 280 280 279 277 276 274 274 275 276 276
286 285 280 278 273 271 276 285 288 284 272 281 281 279 278 278 271 275 281 280 278 277 281 280 277 275 278 280 281 281 281 281 281 280 279 279 280 277 275 274 274 274 274 275
280 280 277 276 274 276 283 287 287 271 274 280 281 280 278 275 273 279 281 278 280 282 278 279 278 277 279 281 281 278 278 278 280 282 280 279 279 278 277 276 276 275 275 275
278 277 276 277 273 270 284 285 278 277 279 278 275 276 280 278 278 278 279 279 280 278 278 278 277 277 278 278 279 278 277 277 279 280 279 278 278 278 278 276 275 276 276 275
273 277 275 278 275 281 283 280 280 280 279 276 275 277 278 277 276 277 275 274 275 276 276 277 276 276 276 277 277 277 278 280 280 279 277 277 277 278 277 276 274 275 275 275
283 284 277 278 279 280 281 282 282 281 279 277 277 277 277 274 275 272 273 272 271 272 273 274 275 274 275 276 277 277 278 280 280 278 278 278 278 278 278 277 275 274 275 275
284 283 280 278 280 281 282 281 281 280 280 279 279 277 275 274 273 274 273 271 271 269 272 274 274 274 273 274 275 275 277 278 278 278 277 277 277 276 276 277 275 274 275 275
284 280 277 276 281 280 280 281 282 280 280 279 277 276 276 276 274 274 272 273 273 271 272 271 271 271 271 272 272 273 275 277 277 276 276 275 275 275 275 274 273 276 277 277